Darstellungsparameter: Aktuell verwendete Einstellungen:
Skalierung der Graphiken ... ?
xyx+y,   Skalierungsfaktor:      Skalierung: Modus: x, Faktor: 1
Darstellungszeitraum ... ?
Vom - - bis: - -   Zeitraum: 22.10.2019 - 21.10.2020
Min/Max/Avg-Anzeige ... ?
Zeige MMA aktuell
Zeige MMA Monat
Zeige MMA alles
Zeige --A aktuell
Zeige --A Monat
Zeige --A alles
Keine MMA-Anzeige
MMA:
Average (ber die Originaldaten)
MMA-Basis: 23.02.2003 - 03.08.2020
Quicknavigation für Darstellung... ?
Tage:      1T, 2T, 3T, 5T -1T -2T -3T -5T +1T +2T +3T +5T
Wochen: 1W, 2W, 3W -1W -2W -3W +1W +2W +3W
Monate: 1M, 3M, 6M -1M -3M -6M +1M +3M +6M
Jahre:    1J, 3J, 5J, 10J -1J -3J -5J -10J +1J +3J +5J +10J
Nutze für die Darstellung ... ?
Originaldaten oder ...
Mittelwerte Minima Maxima auf...
Stundenbasis Tagesbasis Wochenbasis
Monatsbasis Jahresbasis      Datenbasis: Mittelwerte auf Stundenbasis
Darstellen als:
Statistik (Auto) Statistik J:M      Darstellung:
Zur Graphik,    zurück zur Übersicht aller Sensoren.
 
Tabellarische Datenbersicht: ?
 
Sensor: Nr:Datum:Temp:Abs-Feuchte:Windchill:Wind:
Aussen-T/F 1 22-10-2019 00:00:00 10.825 C 9.36 g/m*3 10.83 C 0 km/h
2 22-10-2019 01:00:00 11.01667 C 9.52 g/m*3 11.02 C 0.26667 km/h
3 22-10-2019 02:00:00 10.94167 C 9.47 g/m*3 10.94 C 0 km/h
4 22-10-2019 03:00:00 10.875 C 9.42 g/m*3 10.88 C 0 km/h
5 22-10-2019 04:00:00 10.66667 C 9.29 g/m*3 10.67 C 0 km/h
6 22-10-2019 05:00:00 10 C 8.92 g/m*3 10 C 0 km/h
7 22-10-2019 06:00:00 10.1 C 9.08 g/m*3 10.1 C 0 km/h
8 22-10-2019 07:00:00 9.975 C 8.95 g/m*3 9.98 C 0 km/h
9 22-10-2019 08:00:00 9.875 C 8.95 g/m*3 9.88 C 0 km/h
10 22-10-2019 09:00:00 10.44167 C 9.25 g/m*3 10.44 C 1.2 km/h
11 22-10-2019 10:00:00 11.36667 C 9.62 g/m*3 11.37 C 3.6 km/h
12 22-10-2019 11:00:00 12.78333 C 9.88 g/m*3 12.78 C 4.675 km/h
13 22-10-2019 12:00:00 13.61667 C 10 g/m*3 13.62 C 1.06667 km/h
14 22-10-2019 13:00:00 14.35714 C 10.15 g/m*3 14.36 C 1.82857 km/h
15 22-10-2019 14:00:00 15.08333 C 9.99 g/m*3 15.08 C 3.2 km/h
16 22-10-2019 15:00:00 14.68333 C 10.31 g/m*3 14.68 C 0.26667 km/h
17 22-10-2019 16:00:00 13.78333 C 10.36 g/m*3 13.78 C 0 km/h
18 22-10-2019 17:00:00 13.31667 C 10.17 g/m*3 13.32 C 0.13333 km/h
19 22-10-2019 18:00:00 12.55 C 9.64 g/m*3 12.55 C 1.33333 km/h
20 22-10-2019 19:00:00 11.74167 C 9.48 g/m*3 11.74 C 0 km/h
21 22-10-2019 20:00:00 10.70833 C 9.16 g/m*3 10.71 C 0 km/h
22 22-10-2019 21:00:00 10.125 C 8.96 g/m*3 10.13 C 0 km/h
23 22-10-2019 22:00:00 10.20833 C 9.13 g/m*3 10.21 C 0 km/h
24 22-10-2019 23:00:00 9.9 C 8.94 g/m*3 9.9 C 0 km/h
25 23-10-2019 00:00:00 8.98333 C 8.43 g/m*3 8.98 C 0 km/h
Sensor: Nr:Datum:Temp:Abs-Feuchte:Windchill:Wind:
Aussen-T/F 26 23-10-2019 01:00:00 8.61667 C 8.26 g/m*3 8.62 C 0 km/h
27 23-10-2019 02:00:00 8.20833 C 8.04 g/m*3 8.21 C 0 km/h
28 23-10-2019 03:00:00 8.00833 C 8 g/m*3 8.01 C 0 km/h
29 23-10-2019 04:00:00 7.83333 C 7.93 g/m*3 7.83 C 0 km/h
30 23-10-2019 05:00:00 8.16667 C 8.11 g/m*3 8.17 C 0 km/h
31 23-10-2019 06:00:00 8.13333 C 8.09 g/m*3 8.13 C 0 km/h
32 23-10-2019 07:00:00 7.95 C 7.99 g/m*3 7.95 C 0 km/h
33 23-10-2019 08:00:00 7.86667 C 7.97 g/m*3 7.87 C 0.13333 km/h
34 23-10-2019 09:00:00 8.70833 C 8.47 g/m*3 8.71 C 1.06667 km/h
35 23-10-2019 10:00:00 9.60833 C 8.98 g/m*3 9.61 C 0.13333 km/h
36 23-10-2019 11:00:00 10.98333 C 9.8 g/m*3 10.98 C 3.20833 km/h
37 23-10-2019 12:00:00 11.825 C 10.16 g/m*3 11.83 C 7.11667 km/h
38 23-10-2019 13:00:00 12.95833 C 10.43 g/m*3 12.96 C 5.50833 km/h
39 23-10-2019 14:00:00 13.84167 C 10.72 g/m*3 13.84 C 6.975 km/h
40 23-10-2019 15:00:00 14.3 C 10.94 g/m*3 14.3 C 3.34167 km/h
41 23-10-2019 16:00:00 14.79167 C 11.3 g/m*3 14.79 C 0.93333 km/h
42 23-10-2019 17:00:00 14.94167 C 11.51 g/m*3 14.94 C 0.13333 km/h
43 23-10-2019 18:00:00 14.175 C 11.18 g/m*3 14.18 C 0 km/h
44 23-10-2019 19:00:00 13.39167 C 10.86 g/m*3 13.39 C 0.13333 km/h
45 23-10-2019 20:00:00 13.24167 C 10.86 g/m*3 13.24 C 0 km/h
46 23-10-2019 21:00:00 13.19167 C 10.9 g/m*3 13.19 C 0 km/h
47 23-10-2019 22:00:00 12.94167 C 10.73 g/m*3 12.94 C 0 km/h
48 23-10-2019 23:00:00 12.76667 C 10.62 g/m*3 12.77 C 0 km/h
49 24-10-2019 00:00:00 12.39167 C 10.44 g/m*3 12.39 C 0 km/h
50 24-10-2019 01:00:00 12.15833 C 10.33 g/m*3 12.16 C 0.66667 km/h
Sensor: Nr:Datum:Temp:Abs-Feuchte:Windchill:Wind:
Aussen-T/F 51 24-10-2019 02:00:00 12.25833 C 10.43 g/m*3 12.26 C 0 km/h
52 24-10-2019 03:00:00 11.81667 C 10.11 g/m*3 11.82 C 0 km/h
53 24-10-2019 04:00:00 11.59167 C 10.06 g/m*3 11.59 C 0 km/h
54 24-10-2019 05:00:00 11.85 C 10.24 g/m*3 11.85 C 0.13333 km/h
55 24-10-2019 06:00:00 11.89167 C 10.28 g/m*3 11.89 C 0.53333 km/h
56 24-10-2019 07:00:00 12.33333 C 10.56 g/m*3 12.33 C 0.66667 km/h
57 24-10-2019 08:00:00 12.49167 C 10.66 g/m*3 12.49 C 0.66667 km/h
58 24-10-2019 09:00:00 13.01667 C 11.01 g/m*3 13.02 C 0 km/h
59 24-10-2019 10:00:00 13.58333 C 11.38 g/m*3 13.58 C 0.93333 km/h
60 24-10-2019 11:00:00 14.51667 C 11.65 g/m*3 14.52 C 0.53333 km/h
61 24-10-2019 12:00:00 15.175 C 12 g/m*3 15.18 C 0 km/h
62 24-10-2019 13:00:00 16.45833 C 12.57 g/m*3 16.46 C 1.74167 km/h
63 24-10-2019 14:00:00 17.46667 C 12.93 g/m*3 17.47 C 0.66667 km/h
64 24-10-2019 15:00:00 18.525 C 13.34 g/m*3 18.52 C 1.2 km/h
65 24-10-2019 16:00:00 18.44167 C 12.48 g/m*3 18.44 C 4.01667 km/h
66 24-10-2019 17:00:00 17.525 C 12.19 g/m*3 17.52 C 2.28333 km/h
67 24-10-2019 18:00:00 15.70833 C 11.42 g/m*3 15.71 C 1.86667 km/h
68 24-10-2019 19:00:00 14.69167 C 11.11 g/m*3 14.69 C 1.06667 km/h
69 24-10-2019 20:00:00 13.85833 C 10.81 g/m*3 13.86 C 0.66667 km/h
70 24-10-2019 21:00:00 13.54167 C 10.67 g/m*3 13.54 C 0.26667 km/h
71 24-10-2019 22:00:00 13.075 C 10.53 g/m*3 13.08 C 0 km/h
72 24-10-2019 23:00:00 13.18333 C 10.74 g/m*3 13.18 C 0 km/h
73 25-10-2019 00:00:00 12.40833 C 10.23 g/m*3 12.41 C 0 km/h
74 25-10-2019 01:00:00 11.95 C 10.09 g/m*3 11.95 C 0 km/h
75 25-10-2019 02:00:00 11.49167 C 9.82 g/m*3 11.49 C 1.075 km/h
Sensor: Nr:Datum:Temp:Abs-Feuchte:Windchill:Wind:
Aussen-T/F 76 25-10-2019 03:00:00 12.34167 C 10.22 g/m*3 12.34 C 1.875 km/h
77 25-10-2019 04:00:00 12.88333 C 10.32 g/m*3 12.88 C 1.73333 km/h
78 25-10-2019 05:00:00 12.65833 C 10.09 g/m*3 12.66 C 2.95 km/h
79 25-10-2019 06:00:00 12.63333 C 10.2 g/m*3 12.63 C 1.86667 km/h
80 25-10-2019 07:00:00 13.175 C 10.39 g/m*3 13.18 C 2.40833 km/h
81 25-10-2019 08:00:00 12.68333 C 10.19 g/m*3 12.68 C 1.46667 km/h
82 25-10-2019 09:00:00 12.93333 C 10.5 g/m*3 12.93 C 1.86667 km/h
83 25-10-2019 10:00:00 13.775 C 10.6 g/m*3 13.78 C 6.30833 km/h
84 25-10-2019 11:00:00 14.90833 C 10.52 g/m*3 14.91 C 9.40833 km/h
85 25-10-2019 12:00:00 15.275 C 10.34 g/m*3 15.28 C 9.95833 km/h
86 25-10-2019 13:00:00 16.19167 C 10.17 g/m*3 16.19 C 9.275 km/h
87 25-10-2019 14:00:00 16.29167 C 10.24 g/m*3 16.29 C 7.525 km/h
88 25-10-2019 15:00:00 16.43333 C 9.86 g/m*3 16.43 C 9.68333 km/h
89 25-10-2019 16:00:00 16.05833 C 10 g/m*3 16.06 C 6.575 km/h
90 25-10-2019 17:00:00 14.56667 C 10.21 g/m*3 14.57 C 0.66667 km/h
91 25-10-2019 18:00:00 13.01667 C 9.81 g/m*3 13.02 C 0.8 km/h
92 25-10-2019 19:00:00 11.99167 C 9.58 g/m*3 11.99 C 0.13333 km/h
93 25-10-2019 20:00:00 11.45 C 9.4 g/m*3 11.45 C 0 km/h
94 25-10-2019 21:00:00 11.025 C 9.26 g/m*3 11.03 C 0 km/h
95 25-10-2019 22:00:00 11.3 C 9.56 g/m*3 11.3 C 0.53333 km/h
96 25-10-2019 23:00:00 12.46667 C 10.12 g/m*3 12.47 C 1.6 km/h
97 26-10-2019 00:00:00 13.48333 C 10.42 g/m*3 13.48 C 1.46667 km/h
98 26-10-2019 01:00:00 13.675 C 10.41 g/m*3 13.68 C 1.2 km/h
99 26-10-2019 02:00:00 13.53333 C 10.28 g/m*3 13.53 C 1.06667 km/h
100 26-10-2019 03:00:00 12.26667 C 9.88 g/m*3 12.27 C 0.53333 km/h
Sensor: Nr:Datum:Temp:Abs-Feuchte:Windchill:Wind:
Aussen-T/F 101 26-10-2019 04:00:00 11.59167 C 9.73 g/m*3 11.59 C 1.74167 km/h
102 26-10-2019 05:00:00 12.29167 C 10.1 g/m*3 12.29 C 2.28333 km/h
103 26-10-2019 06:00:00 11.86667 C 9.86 g/m*3 11.87 C 0.13333 km/h
104 26-10-2019 07:00:00 11.1 C 9.47 g/m*3 11.1 C 0 km/h
105 26-10-2019 08:00:00 10.15833 C 8.99 g/m*3 10.16 C 0 km/h
106 26-10-2019 09:00:00 10.325 C 9.21 g/m*3 10.33 C 0 km/h
107 26-10-2019 10:00:00 11.26667 C 9.84 g/m*3 11.27 C 0 km/h
108 26-10-2019 11:00:00 12.475 C 10.63 g/m*3 12.48 C 0 km/h
109 26-10-2019 12:00:00 13.81667 C 11.34 g/m*3 13.82 C 1.2 km/h
110 26-10-2019 13:00:00 15.18333 C 11.66 g/m*3 15.18 C 0.93333 km/h
111 26-10-2019 14:00:00 16.53333 C 11.97 g/m*3 16.53 C 2.26667 km/h
112 26-10-2019 15:00:00 16.78333 C 12.09 g/m*3 16.78 C 0.66667 km/h
113 26-10-2019 16:00:00 16.53333 C 12.06 g/m*3 16.53 C 1.06667 km/h
114 26-10-2019 17:00:00 15.31667 C 11.43 g/m*3 15.32 C 1.6 km/h
115 26-10-2019 18:00:00 13.925 C 10.7 g/m*3 13.93 C 0.53333 km/h
116 26-10-2019 19:00:00 12.975 C 10.3 g/m*3 12.98 C 0.26667 km/h
117 26-10-2019 20:00:00 12.86667 C 10.42 g/m*3 12.87 C 0.4 km/h
118 26-10-2019 21:00:00 12.99167 C 10.44 g/m*3 12.99 C 0 km/h
119 26-10-2019 22:00:00 12.64167 C 10.32 g/m*3 12.64 C 0 km/h
120 26-10-2019 23:00:00 12.625 C 10.4 g/m*3 12.63 C 0.4 km/h
121 27-10-2019 00:00:00 13.45833 C 10.54 g/m*3 13.46 C 3.35 km/h
122 27-10-2019 01:00:00 13.74167 C 10.39 g/m*3 13.74 C 0.8 km/h
123 27-10-2019 02:00:00 12.98333 C 10.14 g/m*3 12.98 C 2 km/h
124 27-10-2019 04:00:00 12.17391 C 9.93 g/m*3 12.17 C 1.04348 km/h
125 27-10-2019 05:00:00 12.87692 C 10.27 g/m*3 12.88 C 0.98462 km/h
Sensor: Nr:Datum:Temp:Abs-Feuchte:Windchill:Wind:
Aussen-T/F 126 27-10-2019 06:00:00 14.125 C 10.45 g/m*3 14.13 C 7.10833 km/h
127 27-10-2019 07:00:00 14.16667 C 10.64 g/m*3 14.17 C 9.66667 km/h
128 27-10-2019 08:00:00 11.975 C 9.77 g/m*3 11.98 C 10.89167 km/h
129 27-10-2019 09:00:00 10.425 C 8.96 g/m*3 9.15 C 9.93333 km/h
130 27-10-2019 10:00:00 9.44167 C 8.49 g/m*3 9.44 C 1.6 km/h
131 27-10-2019 11:00:00 9.75833 C 8.74 g/m*3 9.76 C 0.93333 km/h
132 27-10-2019 12:00:00 10 C 8.87 g/m*3 10 C 0.4 km/h
133 27-10-2019 13:00:00 9.9 C 8.84 g/m*3 9.9 C 0 km/h
134 27-10-2019 14:00:00 9.53333 C 8.6 g/m*3 9.53 C 0.4 km/h
135 27-10-2019 15:00:00 9.43333 C 8.61 g/m*3 9.43 C 0 km/h
136 27-10-2019 16:00:00 9.16667 C 8.47 g/m*3 9.17 C 0 km/h
137 27-10-2019 17:00:00 8.55 C 8.17 g/m*3 8.55 C 0 km/h
138 27-10-2019 18:00:00 8.35 C 8.12 g/m*3 8.35 C 0 km/h
139 27-10-2019 19:00:00 8.275 C 8.08 g/m*3 8.28 C 0 km/h
140 27-10-2019 20:00:00 7.50833 C 7.69 g/m*3 7.51 C 0 km/h
141 27-10-2019 21:00:00 6.91667 C 7.4 g/m*3 6.92 C 0.4 km/h
142 27-10-2019 22:00:00 5.925 C 6.93 g/m*3 5.93 C 0 km/h
143 27-10-2019 23:00:00 5.125 C 6.6 g/m*3 5.13 C 0.26667 km/h
144 28-10-2019 00:00:00 5.325 C 6.73 g/m*3 5.33 C 0.13333 km/h
145 28-10-2019 01:00:00 5.8 C 6.95 g/m*3 5.8 C 0.13333 km/h
146 28-10-2019 02:00:00 5.59167 C 6.85 g/m*3 5.59 C 0 km/h
147 28-10-2019 03:00:00 5.44167 C 6.79 g/m*3 5.44 C 0.26667 km/h
148 28-10-2019 04:00:00 5.30833 C 6.73 g/m*3 5.31 C 0 km/h
149 28-10-2019 05:00:00 5.2 C 6.68 g/m*3 5.2 C 0 km/h
150 28-10-2019 06:00:00 5.13333 C 6.65 g/m*3 5.13 C 0 km/h
Sensor: Nr:Datum:Temp:Abs-Feuchte:Windchill:Wind:
Aussen-T/F 151 28-10-2019 07:00:00 5.26667 C 6.71 g/m*3 5.27 C 0.8 km/h
152 28-10-2019 08:00:00 5.51667 C 6.84 g/m*3 5.52 C 2 km/h
153 28-10-2019 09:00:00 5.8 C 7.02 g/m*3 5.8 C 1.2 km/h
154 28-10-2019 10:00:00 6.18333 C 7.2 g/m*3 6.18 C 2.26667 km/h
155 28-10-2019 11:00:00 6.38333 C 7.29 g/m*3 6.38 C 1.6 km/h
156 28-10-2019 12:00:00 6.5 C 7.33 g/m*3 5.48 C 5.88333 km/h
157 28-10-2019 13:00:00 6.725 C 7.38 g/m*3 6.73 C 1.86667 km/h
158 28-10-2019 14:00:00 7.39167 C 7.68 g/m*3 7.39 C 0.13333 km/h
159 28-10-2019 15:00:00 8.01667 C 7.88 g/m*3 8.02 C 0.13333 km/h
160 28-10-2019 16:00:00 7.79167 C 7.74 g/m*3 7.79 C 0 km/h
161 28-10-2019 17:00:00 7 C 7.39 g/m*3 7 C 0 km/h
162 28-10-2019 18:00:00 7.175 C 7.52 g/m*3 7.18 C 0 km/h
163 28-10-2019 19:00:00 7.15833 C 7.52 g/m*3 7.16 C 0 km/h
164 28-10-2019 20:00:00 6.99167 C 7.47 g/m*3 6.99 C 0 km/h
165 28-10-2019 21:00:00 6.94167 C 7.46 g/m*3 6.94 C 0 km/h
166 28-10-2019 22:00:00 6.78333 C 7.41 g/m*3 6.78 C 0.53333 km/h
167 28-10-2019 23:00:00 6.7 C 7.33 g/m*3 6.7 C 1.73333 km/h
168 29-10-2019 00:00:00 6.68333 C 7.29 g/m*3 6.68 C 2.4 km/h
169 29-10-2019 01:00:00 6.41667 C 7.16 g/m*3 6.42 C 3.73333 km/h
170 29-10-2019 02:00:00 6.3 C 7.11 g/m*3 6.3 C 0.26667 km/h
171 29-10-2019 03:00:00 6.275 C 7.09 g/m*3 6.28 C 1.2 km/h
172 29-10-2019 04:00:00 6.2 C 7.06 g/m*3 6.2 C 0.93333 km/h
173 29-10-2019 05:00:00 6.2 C 7.06 g/m*3 6.2 C 1.46667 km/h
174 29-10-2019 06:00:00 6.10833 C 7 g/m*3 6.11 C 1.06667 km/h
175 29-10-2019 07:00:00 5.975 C 6.91 g/m*3 5.98 C 0.8 km/h
Sensor: Nr:Datum:Temp:Abs-Feuchte:Windchill:Wind:
Aussen-T/F 176 29-10-2019 08:00:00 6.225 C 7.04 g/m*3 6.23 C 0.66667 km/h
177 29-10-2019 09:00:00 6.69167 C 7.2 g/m*3 6.69 C 0 km/h
178 29-10-2019 10:00:00 7.475 C 7.41 g/m*3 7.48 C 0.53333 km/h
179 29-10-2019 11:00:00 8.23333 C 7.6 g/m*3 8.23 C 0 km/h
180 29-10-2019 12:00:00 8.925 C 7.75 g/m*3 8.93 C 0.66667 km/h
181 29-10-2019 13:00:00 9.74167 C 7.8 g/m*3 9.74 C 3.88333 km/h
182 29-10-2019 14:00:00 10.59167 C 7.45 g/m*3 9.92 C 6.96667 km/h
183 29-10-2019 15:00:00 9.575 C 7.35 g/m*3 9.57 C 1.74167 km/h
184 29-10-2019 16:00:00 8.275 C 7.43 g/m*3 8.28 C 0.4 km/h
185 29-10-2019 17:00:00 6.94167 C 6.9 g/m*3 6.94 C 1.86667 km/h
186 29-10-2019 18:00:00 5.96667 C 6.58 g/m*3 5.97 C 0.66667 km/h
187 29-10-2019 19:00:00 4.96667 C 6.27 g/m*3 4.97 C 0 km/h
188 29-10-2019 20:00:00 4.425 C 6.15 g/m*3 4.43 C 0 km/h
189 29-10-2019 21:00:00 3.63333 C 5.84 g/m*3 3.63 C 0 km/h
190 29-10-2019 22:00:00 2.99167 C 5.65 g/m*3 2.99 C 0 km/h
191 29-10-2019 23:00:00 2.775 C 5.61 g/m*3 2.78 C 0 km/h
192 30-10-2019 00:00:00 2.20833 C 5.4 g/m*3 2.21 C 0 km/h
193 30-10-2019 01:00:00 1.98333 C 5.33 g/m*3 1.98 C 0 km/h
194 30-10-2019 02:00:00 1.98333 C 5.33 g/m*3 1.98 C 0 km/h
195 30-10-2019 03:00:00 1.51667 C 5.16 g/m*3 1.52 C 0 km/h
196 30-10-2019 04:00:00 1.14167 C 5.05 g/m*3 1.14 C 0 km/h
197 30-10-2019 05:00:00 1.35 C 5.14 g/m*3 1.35 C 0.26667 km/h
198 30-10-2019 06:00:00 1.4 C 5.17 g/m*3 1.4 C 0 km/h
199 30-10-2019 07:00:00 1.45833 C 5.19 g/m*3 1.46 C 0.26667 km/h
200 30-10-2019 08:00:00 1.85833 C 5.34 g/m*3 1.86 C 0.26667 km/h
Sensor: Nr:Datum:Temp:Abs-Feuchte:Windchill:Wind:
Aussen-T/F 201 30-10-2019 09:00:00 2.4 C 5.54 g/m*3 2.4 C 0.13333 km/h
202 30-10-2019 10:00:00 3.69167 C 6.09 g/m*3 3.69 C 0 km/h
203 30-10-2019 11:00:00 4.94167 C 6.63 g/m*3 4.94 C 0.66667 km/h
204 30-10-2019 12:00:00 5.71667 C 6.9 g/m*3 5.72 C 0.26667 km/h
205 30-10-2019 13:00:00 6.63333 C 6.88 g/m*3 6.63 C 2.66667 km/h
206 30-10-2019 14:00:00 7.58333 C 6.8 g/m*3 7.58 C 2.675 km/h
207 30-10-2019 15:00:00 7.75 C 6.86 g/m*3 7.75 C 0.4 km/h
208 30-10-2019 16:00:00 7.01667 C 6.83 g/m*3 7.02 C 0 km/h
209 30-10-2019 17:00:00 5.76667 C 6.37 g/m*3 5.77 C 0 km/h
210 30-10-2019 18:00:00 4.46667 C 5.94 g/m*3 4.47 C 0.26667 km/h
211 30-10-2019 19:00:00 3.8 C 5.77 g/m*3 3.8 C 0 km/h
212 30-10-2019 20:00:00 3.23333 C 5.64 g/m*3 3.23 C 0.66667 km/h
213 30-10-2019 21:00:00 2.70833 C 5.5 g/m*3 2.71 C 0.53333 km/h
214 30-10-2019 22:00:00 2.25 C 5.35 g/m*3 2.25 C 0.13333 km/h
215 30-10-2019 23:00:00 1.80833 C 5.21 g/m*3 1.81 C 0 km/h
216 31-10-2019 00:00:00 1.025 C 4.94 g/m*3 1.02 C 0 km/h
217 31-10-2019 01:00:00 0.89167 C 4.94 g/m*3 0.89 C 0 km/h
218 31-10-2019 02:00:00 0.53333 C 4.83 g/m*3 0.53 C 0 km/h
219 31-10-2019 03:00:00 0.28333 C 4.74 g/m*3 0.28 C 0 km/h
220 31-10-2019 04:00:00 0.06667 C 4.67 g/m*3 0.07 C 0 km/h
221 31-10-2019 05:00:00 -0.325 C 4.55 g/m*3 -0.33 C 0 km/h
222 31-10-2019 06:00:00 -0.50833 C 4.49 g/m*3 -0.51 C 0 km/h
223 31-10-2019 07:00:00 -0.75 C 4.43 g/m*3 -0.75 C 0 km/h
224 31-10-2019 08:00:00 -0.61667 C 4.48 g/m*3 -0.62 C 0 km/h
225 31-10-2019 09:00:00 0.05 C 4.72 g/m*3 0.05 C 0 km/h
Sensor: Nr:Datum:Temp:Abs-Feuchte:Windchill:Wind:
Aussen-T/F 226 31-10-2019 10:00:00 1.13333 C 5.09 g/m*3 1.13 C 0.93333 km/h
227 31-10-2019 11:00:00 2.85833 C 5.76 g/m*3 2.86 C 0.53333 km/h
228 31-10-2019 12:00:00 4.16667 C 6.28 g/m*3 4.17 C 1.2 km/h
229 31-10-2019 13:00:00 5.60833 C 6.68 g/m*3 5.61 C 4.55833 km/h
230 31-10-2019 14:00:00 7.29167 C 6.65 g/m*3 7.29 C 3.875 km/h
231 31-10-2019 15:00:00 7.44167 C 6.65 g/m*3 7.44 C 2.54167 km/h
232 31-10-2019 16:00:00 6.125 C 6.4 g/m*3 6.13 C 1.73333 km/h
233 31-10-2019 17:00:00 4.63333 C 5.86 g/m*3 4.63 C 0.8 km/h
234 31-10-2019 18:00:00 3.70833 C 5.55 g/m*3 3.71 C 0 km/h
235 31-10-2019 19:00:00 3.175 C 5.44 g/m*3 3.18 C 0 km/h
236 31-10-2019 20:00:00 2.325 C 5.23 g/m*3 2.33 C 0 km/h
237 31-10-2019 21:00:00 1.71667 C 5.11 g/m*3 1.72 C 0 km/h
238 31-10-2019 22:00:00 1.48333 C 5.06 g/m*3 1.48 C 0 km/h
239 31-10-2019 23:00:00 1.30833 C 5.04 g/m*3 1.31 C 0 km/h
240 01-11-2019 00:00:00 0.88333 C 4.89 g/m*3 0.88 C 0 km/h
241 01-11-2019 01:00:00 0.6 C 4.81 g/m*3 0.6 C 0 km/h
242 01-11-2019 02:00:00 0.55833 C 4.83 g/m*3 0.56 C 0 km/h
243 01-11-2019 03:00:00 0.44167 C 4.8 g/m*3 0.44 C 0 km/h
244 01-11-2019 04:00:00 1.03333 C 5.02 g/m*3 1.03 C 0 km/h
245 01-11-2019 05:00:00 2.16667 C 5.45 g/m*3 2.17 C 0 km/h
246 01-11-2019 06:00:00 2.85833 C 5.71 g/m*3 2.86 C 0 km/h
247 01-11-2019 07:00:00 3.55 C 5.98 g/m*3 3.55 C 0 km/h
248 01-11-2019 08:00:00 4.35833 C 6.32 g/m*3 4.36 C 0 km/h
249 01-11-2019 09:00:00 5.40833 C 6.77 g/m*3 5.41 C 0 km/h
250 01-11-2019 10:00:00 6.38333 C 7.22 g/m*3 6.38 C 0.8 km/h
Sensor: Nr:Datum:Temp:Abs-Feuchte:Windchill:Wind:
Aussen-T/F 251 01-11-2019 11:00:00 7.29167 C 7.55 g/m*3 7.29 C 1.86667 km/h
252 01-11-2019 12:00:00 8.09167 C 7.76 g/m*3 8.09 C 3.35 km/h
253 01-11-2019 13:00:00 8.53333 C 7.96 g/m*3 8.53 C 1.06667 km/h
254 01-11-2019 14:00:00 8.73333 C 8.2 g/m*3 8.73 C 1.33333 km/h
255 01-11-2019 15:00:00 8.7 C 8.27 g/m*3 8.7 C 1.46667 km/h
256 01-11-2019 16:00:00 8.8 C 8.36 g/m*3 8.8 C 0 km/h
257 01-11-2019 17:00:00 8.85833 C 8.39 g/m*3 8.86 C 1.2 km/h
258 01-11-2019 18:00:00 8.86667 C 8.41 g/m*3 8.87 C 0.4 km/h
259 01-11-2019 19:00:00 8.93333 C 8.52 g/m*3 8.93 C 0 km/h
260 01-11-2019 20:00:00 9.225 C 8.68 g/m*3 9.23 C 0 km/h
261 01-11-2019 21:00:00 9.64167 C 8.92 g/m*3 9.64 C 0 km/h
262 01-11-2019 22:00:00 10.15 C 9.3 g/m*3 10.15 C 0.26667 km/h
263 01-11-2019 23:00:00 10.525 C 9.52 g/m*3 10.53 C 0 km/h
264 02-11-2019 00:00:00 11.18333 C 9.92 g/m*3 11.18 C 0 km/h
265 02-11-2019 01:00:00 11.96667 C 10.42 g/m*3 11.97 C 0.93333 km/h
266 02-11-2019 02:00:00 12.21667 C 10.59 g/m*3 12.22 C 1.33333 km/h
267 02-11-2019 03:00:00 12.28333 C 10.63 g/m*3 12.28 C 2.13333 km/h
268 02-11-2019 04:00:00 12.25 C 10.61 g/m*3 12.25 C 2 km/h
269 02-11-2019 05:00:00 12.65833 C 10.88 g/m*3 12.66 C 1.46667 km/h
270 02-11-2019 06:00:00 13.1 C 11.18 g/m*3 13.1 C 2.94167 km/h
271 02-11-2019 07:00:00 13.48333 C 11.45 g/m*3 13.48 C 0.93333 km/h
272 02-11-2019 08:00:00 13.84167 C 11.71 g/m*3 13.84 C 2.275 km/h
273 02-11-2019 09:00:00 14.30833 C 12.03 g/m*3 14.31 C 12.21667 km/h
274 02-11-2019 10:00:00 14.925 C 11.87 g/m*3 14.93 C 14.625 km/h
275 02-11-2019 11:00:00 15.74167 C 11.57 g/m*3 15.74 C 16.5 km/h
Sensor: Nr:Datum:Temp:Abs-Feuchte:Windchill:Wind:
Aussen-T/F 276 02-11-2019 12:00:00 16.15833 C 11.05 g/m*3 16.16 C 20.23333 km/h
277 02-11-2019 13:00:00 16.04167 C 10.29 g/m*3 16.04 C 15.03333 km/h
278 02-11-2019 14:00:00 15.8 C 10.01 g/m*3 15.8 C 10.35833 km/h
279 02-11-2019 15:00:00 15.10833 C 9.97 g/m*3 15.11 C 5.35833 km/h
280 02-11-2019 16:00:00 14.55833 C 9.75 g/m*3 14.56 C 8.06667 km/h
281 02-11-2019 17:00:00 13.78333 C 9.71 g/m*3 13.78 C 11.28333 km/h
282 02-11-2019 18:00:00 11.90833 C 9.55 g/m*3 11.91 C 2.66667 km/h
283 02-11-2019 19:00:00 11.425 C 9.44 g/m*3 11.43 C 2.13333 km/h
284 02-11-2019 20:00:00 11.30833 C 9.3 g/m*3 11.31 C 4.01667 km/h
285 02-11-2019 21:00:00 11.15 C 8.96 g/m*3 11.15 C 4.55 km/h
286 02-11-2019 22:00:00 10.98333 C 8.84 g/m*3 10.98 C 1.06667 km/h
287 02-11-2019 23:00:00 10.56667 C 8.68 g/m*3 10.57 C 3.625 km/h
288 03-11-2019 00:00:00 10.475 C 8.55 g/m*3 10.48 C 0.53333 km/h
289 03-11-2019 01:00:00 10.41667 C 8.7 g/m*3 10.42 C 0.4 km/h
290 03-11-2019 02:00:00 10.03333 C 8.62 g/m*3 10.03 C 0.26667 km/h
291 03-11-2019 03:00:00 10 C 8.75 g/m*3 10 C 0.8 km/h
292 03-11-2019 04:00:00 10.26667 C 9.02 g/m*3 10.27 C 0.66667 km/h
293 03-11-2019 05:00:00 10.25 C 9.07 g/m*3 10.25 C 0.8 km/h
294 03-11-2019 06:00:00 10.3 C 9.19 g/m*3 10.3 C 0 km/h
295 03-11-2019 07:00:00 10.325 C 9.21 g/m*3 10.33 C 0 km/h
296 03-11-2019 08:00:00 10.48333 C 9.37 g/m*3 10.48 C 0 km/h
297 03-11-2019 09:00:00 11.3 C 9.89 g/m*3 11.3 C 0 km/h
298 03-11-2019 10:00:00 12.26667 C 10.36 g/m*3 12.27 C 0.93333 km/h
299 03-11-2019 11:00:00 13.53333 C 10.65 g/m*3 13.53 C 2.675 km/h
300 03-11-2019 12:00:00 14.85 C 10.6 g/m*3 14.85 C 4.55 km/h
Sensor: Nr:Datum:Temp:Abs-Feuchte:Windchill:Wind:
Aussen-T/F 301 03-11-2019 13:00:00 15.39167 C 10.7 g/m*3 15.39 C 6.30833 km/h
302 03-11-2019 14:00:00 15.46667 C 10.78 g/m*3 15.47 C 5.08333 km/h
303 03-11-2019 15:00:00 14.81667 C 10.57 g/m*3 14.82 C 6.83333 km/h
304 03-11-2019 16:00:00 14.00833 C 10.41 g/m*3 14.01 C 2 km/h
305 03-11-2019 17:00:00 13.00833 C 10.25 g/m*3 13.01 C 0.4 km/h
306 03-11-2019 18:00:00 12.35833 C 10.22 g/m*3 12.36 C 0.13333 km/h
307 03-11-2019 19:00:00 11.71667 C 9.95 g/m*3 11.72 C 0.53333 km/h
308 03-11-2019 20:00:00 11.075 C 9.63 g/m*3 11.08 C 0.53333 km/h
309 03-11-2019 21:00:00 10.75833 C 9.46 g/m*3 10.76 C 1.46667 km/h
310 03-11-2019 22:00:00 10.7 C 9.43 g/m*3 10.7 C 0.8 km/h
311 03-11-2019 23:00:00 10.60833 C 9.37 g/m*3 10.61 C 4.96667 km/h
312 04-11-2019 00:00:00 11.075 C 9.31 g/m*3 11.08 C 10.475 km/h
313 04-11-2019 01:00:00 11.025 C 9.11 g/m*3 11.03 C 6.44167 km/h
314 04-11-2019 02:00:00 10.15833 C 8.79 g/m*3 10.16 C 2.00833 km/h
315 04-11-2019 03:00:00 9.9 C 8.78 g/m*3 9.9 C 1.61667 km/h
316 04-11-2019 04:00:00 10.18333 C 9.03 g/m*3 10.18 C 2.13333 km/h
317 04-11-2019 05:00:00 10.38333 C 9.12 g/m*3 9.94 C 5.9 km/h
318 04-11-2019 06:00:00 9.79167 C 8.76 g/m*3 9.79 C 2.8 km/h
319 04-11-2019 07:00:00 9.26667 C 8.51 g/m*3 9.27 C 2.66667 km/h
320 04-11-2019 08:00:00 9.5 C 8.69 g/m*3 9.5 C 0.13333 km/h
321 04-11-2019 09:00:00 10.00833 C 8.83 g/m*3 10.01 C 1.475 km/h
322 04-11-2019 10:00:00 10.875 C 9.14 g/m*3 10.88 C 1.73333 km/h
323 04-11-2019 11:00:00 10.91667 C 9.26 g/m*3 10.92 C 1.33333 km/h
324 04-11-2019 12:00:00 11.25 C 9.46 g/m*3 11.25 C 1.86667 km/h
325 04-11-2019 13:00:00 12.025 C 9.75 g/m*3 12.03 C 5.23333 km/h
Sensor: Nr:Datum:Temp:Abs-Feuchte:Windchill:Wind:
Aussen-T/F 326 04-11-2019 14:00:00 12.58333 C 9.58 g/m*3 12.58 C 13.56667 km/h
327 04-11-2019 15:00:00 12.625 C 9.37 g/m*3 12.63 C 6.31667 km/h
328 04-11-2019 16:00:00 11.44167 C 9.06 g/m*3 11.44 C 0.93333 km/h
329 04-11-2019 17:00:00 10.275 C 8.76 g/m*3 10.28 C 0.66667 km/h
330 04-11-2019 18:00:00 9.60833 C 8.5 g/m*3 9.61 C 0 km/h
331 04-11-2019 19:00:00 9.18333 C 8.43 g/m*3 9.18 C 0.94167 km/h
332 04-11-2019 20:00:00 9.5 C 8.71 g/m*3 9.5 C 0 km/h
333 04-11-2019 21:00:00 9.24167 C 8.58 g/m*3 9.24 C 0.13333 km/h
334 04-11-2019 22:00:00 8.29167 C 8.07 g/m*3 8.29 C 0.4 km/h
335 04-11-2019 23:00:00 8.89167 C 8.48 g/m*3 8.42 C 5.24167 km/h
336 05-11-2019 00:00:00 9.275 C 8.49 g/m*3 9.28 C 4.275 km/h
337 05-11-2019 01:00:00 9.14167 C 8.29 g/m*3 9.14 C 3.74167 km/h
338 05-11-2019 02:00:00 9.225 C 8.34 g/m*3 9.23 C 1.875 km/h
339 05-11-2019 03:00:00 9.40833 C 8.27 g/m*3 8.9 C 5.625 km/h
340 05-11-2019 04:00:00 9.46667 C 8.14 g/m*3 9.47 C 4.40833 km/h
341 05-11-2019 05:00:00 9.525 C 8.15 g/m*3 9.53 C 4.95833 km/h
342 05-11-2019 06:00:00 9.25 C 8.13 g/m*3 9.25 C 4.14167 km/h
343 05-11-2019 07:00:00 9.15833 C 8.1 g/m*3 9.16 C 1.86667 km/h
344 05-11-2019 08:00:00 8.95833 C 8.07 g/m*3 8.96 C 2.675 km/h
345 05-11-2019 09:00:00 9.45833 C 8.15 g/m*3 9.46 C 2.26667 km/h
346 05-11-2019 10:00:00 10.48333 C 8.33 g/m*3 10.48 C 3.625 km/h
347 05-11-2019 11:00:00 11.225 C 8.32 g/m*3 11.23 C 5.5 km/h
348 05-11-2019 12:00:00 11.83333 C 8.23 g/m*3 11.83 C 9.275 km/h
349 05-11-2019 13:00:00 11.89167 C 8.41 g/m*3 11.89 C 4.68333 km/h
350 05-11-2019 14:00:00 12.06667 C 8.62 g/m*3 12.07 C 1.86667 km/h
Sensor: Nr:Datum:Temp:Abs-Feuchte:Windchill:Wind:
Aussen-T/F 351 05-11-2019 15:00:00 11.875 C 8.69 g/m*3 11.88 C 2.14167 km/h
352 05-11-2019 16:00:00 10.85833 C 8.62 g/m*3 10.86 C 0 km/h
353 05-11-2019 17:00:00 9.85833 C 8.46 g/m*3 9.86 C 0.13333 km/h
354 05-11-2019 18:00:00 9.025 C 8.18 g/m*3 9.03 C 0 km/h
355 05-11-2019 19:00:00 8.54167 C 8.03 g/m*3 8.54 C 0.13333 km/h
356 05-11-2019 20:00:00 8.425 C 8.02 g/m*3 8.43 C 0.13333 km/h
357 05-11-2019 21:00:00 7.95833 C 7.83 g/m*3 7.96 C 0 km/h
358 05-11-2019 22:00:00 8.00833 C 7.88 g/m*3 8.01 C 0 km/h
359 05-11-2019 23:00:00 8.11667 C 8 g/m*3 8.12 C 0 km/h
360 06-11-2019 00:00:00 8.2 C 8.04 g/m*3 8.2 C 0 km/h
361 06-11-2019 01:00:00 8.2 C 8.04 g/m*3 8.2 C 1.06667 km/h
362 06-11-2019 02:00:00 8.175 C 8.05 g/m*3 8.18 C 0.26667 km/h
363 06-11-2019 03:00:00 7.79167 C 7.83 g/m*3 7.79 C 0.13333 km/h
364 06-11-2019 04:00:00 7.45 C 7.7 g/m*3 7.45 C 0 km/h
365 06-11-2019 05:00:00 7.49167 C 7.76 g/m*3 7.49 C 0.26667 km/h
366 06-11-2019 06:00:00 7.65 C 7.84 g/m*3 7.65 C 0.4 km/h
367 06-11-2019 07:00:00 7.65 C 7.84 g/m*3 7.65 C 0.13333 km/h
368 06-11-2019 08:00:00 7.975 C 8.01 g/m*3 7.98 C 0.53333 km/h
369 06-11-2019 09:00:00 8.81667 C 8.42 g/m*3 8.82 C 4.15 km/h
370 06-11-2019 10:00:00 9.68333 C 8.51 g/m*3 8.83 C 7.13333 km/h
371 06-11-2019 11:00:00 10.15 C 8.71 g/m*3 9.64 C 6.025 km/h
372 06-11-2019 12:00:00 10.35 C 8.85 g/m*3 9.87 C 6.03333 km/h
373 06-11-2019 13:00:00 10.6 C 8.84 g/m*3 9.76 C 7.78333 km/h
374 06-11-2019 14:00:00 10.43333 C 8.83 g/m*3 10.43 C 4.40833 km/h
375 06-11-2019 15:00:00 10.24167 C 8.91 g/m*3 10.24 C 0.66667 km/h
Sensor: Nr:Datum:Temp:Abs-Feuchte:Windchill:Wind:
Aussen-T/F 376 06-11-2019 16:00:00 10 C 8.84 g/m*3 10 C 0.13333 km/h
377 06-11-2019 17:00:00 9.68333 C 8.75 g/m*3 9.68 C 0 km/h
378 06-11-2019 18:00:00 9.6 C 8.77 g/m*3 9.6 C 0 km/h
379 06-11-2019 19:00:00 9.40833 C 8.69 g/m*3 9.41 C 0 km/h
380 06-11-2019 20:00:00 9.13333 C 8.54 g/m*3 9.13 C 0 km/h
381 06-11-2019 21:00:00 8.975 C 8.51 g/m*3 8.98 C 0 km/h
382 06-11-2019 22:00:00 8.9 C 8.42 g/m*3 8.9 C 0 km/h
383 06-11-2019 23:00:00 8.85833 C 8.47 g/m*3 8.86 C 0.53333 km/h
384 07-11-2019 00:00:00 8.51667 C 8.29 g/m*3 8.52 C 0 km/h
385 07-11-2019 01:00:00 8.06667 C 8.05 g/m*3 8.07 C 0 km/h
386 07-11-2019 02:00:00 7.98333 C 8.01 g/m*3 7.98 C 0 km/h
387 07-11-2019 03:00:00 7.91667 C 7.98 g/m*3 7.92 C 0 km/h
388 07-11-2019 04:00:00 7.49167 C 7.76 g/m*3 7.49 C 0 km/h
389 07-11-2019 05:00:00 7.55 C 7.79 g/m*3 7.55 C 0.4 km/h
390 07-11-2019 06:00:00 7.375 C 7.7 g/m*3 7.38 C 0 km/h
391 07-11-2019 07:00:00 7.59167 C 7.84 g/m*3 7.59 C 0.4 km/h
392 07-11-2019 08:00:00 8.24167 C 8.23 g/m*3 8.24 C 0.26667 km/h
393 07-11-2019 09:00:00 8.875 C 8.57 g/m*3 8.88 C 1.06667 km/h
394 07-11-2019 10:00:00 9.29167 C 8.77 g/m*3 9.29 C 3.35 km/h
395 07-11-2019 11:00:00 9.39167 C 8.69 g/m*3 9.39 C 2.8 km/h
396 07-11-2019 12:00:00 9.31667 C 8.52 g/m*3 9.32 C 2.95 km/h
397 07-11-2019 13:00:00 9.625 C 8.55 g/m*3 9.63 C 4.00833 km/h
398 07-11-2019 14:00:00 9.375 C 8.35 g/m*3 9.38 C 4.41667 km/h
399 07-11-2019 15:00:00 9.76667 C 8.64 g/m*3 9.77 C 4.41667 km/h
400 07-11-2019 16:00:00 9.65 C 8.24 g/m*3 7.67 C 13.55833 km/h
Sensor: Nr:Datum:Temp:Abs-Feuchte:Windchill:Wind:
Aussen-T/F 401 07-11-2019 17:00:00 8.55833 C 7.73 g/m*3 7.46 C 7.38333 km/h
402 07-11-2019 18:00:00 7.24167 C 7.22 g/m*3 7.24 C 1.075 km/h
403 07-11-2019 19:00:00 6.76667 C 7.21 g/m*3 6.77 C 0.8 km/h
404 07-11-2019 20:00:00 6.18333 C 6.96 g/m*3 6.18 C 0.4 km/h
405 07-11-2019 21:00:00 5.65833 C 6.77 g/m*3 5.66 C 0.13333 km/h
406 07-11-2019 22:00:00 5.00833 C 6.51 g/m*3 5.01 C 0 km/h
407 07-11-2019 23:00:00 5.025 C 6.56 g/m*3 5.03 C 0.26667 km/h
408 08-11-2019 00:00:00 4.675 C 6.38 g/m*3 4.68 C 0.26667 km/h
409 08-11-2019 01:00:00 4.24167 C 6.2 g/m*3 4.24 C 0.26667 km/h
410 08-11-2019 02:00:00 3.28333 C 5.82 g/m*3 3.28 C 0 km/h
411 08-11-2019 03:00:00 3.1 C 5.79 g/m*3 3.1 C 0 km/h
412 08-11-2019 04:00:00 2.75833 C 5.66 g/m*3 2.76 C 0 km/h
413 08-11-2019 05:00:00 2.34167 C 5.52 g/m*3 2.34 C 0 km/h
414 08-11-2019 06:00:00 2.31667 C 5.51 g/m*3 2.32 C 0 km/h
415 08-11-2019 07:00:00 2.35 C 5.52 g/m*3 2.35 C 0 km/h
416 08-11-2019 08:00:00 3.05 C 5.81 g/m*3 3.05 C 0 km/h
417 08-11-2019 09:00:00 3.78333 C 6.1 g/m*3 3.78 C 0.53333 km/h
418 08-11-2019 10:00:00 4.43333 C 6.4 g/m*3 4.43 C 0.4 km/h
419 08-11-2019 11:00:00 5.15833 C 6.73 g/m*3 5.16 C 0.8 km/h
420 08-11-2019 12:00:00 6 C 7.11 g/m*3 6 C 0.8 km/h
421 08-11-2019 13:00:00 6.8 C 7.44 g/m*3 6.8 C 0.13333 km/h
422 08-11-2019 14:00:00 7.44167 C 7.63 g/m*3 7.44 C 1.86667 km/h
423 08-11-2019 15:00:00 7.73333 C 7.71 g/m*3 7.73 C 0 km/h
424 08-11-2019 16:00:00 7.61667 C 7.63 g/m*3 7.62 C 0 km/h
425 08-11-2019 17:00:00 6.85833 C 7.29 g/m*3 6.86 C 0 km/h
Sensor: Nr:Datum:Temp:Abs-Feuchte:Windchill:Wind:
Aussen-T/F 426 08-11-2019 18:00:00 6.65 C 7.26 g/m*3 6.65 C 0 km/h
427 08-11-2019 19:00:00 6.475 C 7.19 g/m*3 6.48 C 0 km/h
428 08-11-2019 20:00:00 6.21667 C 7.07 g/m*3 6.22 C 0 km/h
429 08-11-2019 21:00:00 5.7 C 6.83 g/m*3 5.7 C 0 km/h
430 08-11-2019 22:00:00 5.39167 C 6.76 g/m*3 5.39 C 0.26667 km/h
431 08-11-2019 23:00:00 5.49167 C 6.81 g/m*3 5.49 C 2.53333 km/h
432 09-11-2019 00:00:00 5.34167 C 6.74 g/m*3 4.34 C 5.35 km/h
433 09-11-2019 01:00:00 5.15833 C 6.66 g/m*3 4.18 C 5.225 km/h
434 09-11-2019 02:00:00 5.1 C 6.63 g/m*3 3.79 C 6.15833 km/h
435 09-11-2019 03:00:00 5.125 C 6.65 g/m*3 5.13 C 3.33333 km/h
436 09-11-2019 04:00:00 4.96667 C 6.58 g/m*3 4.97 C 1.46667 km/h
437 09-11-2019 05:00:00 4.78333 C 6.51 g/m*3 4.78 C 3.075 km/h
438 09-11-2019 06:00:00 4.45 C 6.32 g/m*3 3.13 C 5.9 km/h
439 09-11-2019 07:00:00 3.44167 C 5.88 g/m*3 3.44 C 0.8 km/h
440 09-11-2019 08:00:00 3.29167 C 5.86 g/m*3 3.29 C 0.13333 km/h
441 09-11-2019 09:00:00 4.53333 C 6.37 g/m*3 3.46 C 5.25 km/h
442 09-11-2019 10:00:00 5.65833 C 6.55 g/m*3 3.11 C 11.7 km/h
443 09-11-2019 11:00:00 5.91667 C 6.56 g/m*3 3.82 C 9.68333 km/h
444 09-11-2019 12:00:00 6.375 C 6.66 g/m*3 4.51 C 9.00833 km/h
445 09-11-2019 13:00:00 7.04167 C 6.76 g/m*3 5.39 C 8.59167 km/h
446 09-11-2019 14:00:00 6.93333 C 6.77 g/m*3 5.67 C 6.96667 km/h
447 09-11-2019 15:00:00 6.68333 C 6.88 g/m*3 6.68 C 3.20833 km/h
448 09-11-2019 16:00:00 6.56667 C 6.94 g/m*3 6.57 C 1.33333 km/h
449 09-11-2019 17:00:00 6.175 C 6.83 g/m*3 6.18 C 0.26667 km/h
450 09-11-2019 18:00:00 5.375 C 6.48 g/m*3 5.38 C 0.13333 km/h
Sensor: Nr:Datum:Temp:Abs-Feuchte:Windchill:Wind:
Aussen-T/F 451 09-11-2019 19:00:00 4.875 C 6.35 g/m*3 4.88 C 2.00833 km/h
452 09-11-2019 20:00:00 4.03333 C 5.94 g/m*3 4.03 C 0 km/h
453 09-11-2019 21:00:00 3.25833 C 5.73 g/m*3 3.26 C 0 km/h
454 09-11-2019 22:00:00 2.725 C 5.56 g/m*3 2.73 C 0 km/h
455 09-11-2019 23:00:00 1.99167 C 5.28 g/m*3 1.99 C 0 km/h
456 10-11-2019 00:00:00 1.25833 C 5.05 g/m*3 1.26 C 0 km/h
457 10-11-2019 01:00:00 1.31667 C 5.11 g/m*3 1.32 C 0 km/h
458 10-11-2019 02:00:00 1.65833 C 5.24 g/m*3 1.66 C 0 km/h
459 10-11-2019 03:00:00 1.59167 C 5.24 g/m*3 1.59 C 0.53333 km/h
460 10-11-2019 04:00:00 1.28333 C 5.13 g/m*3 1.28 C 0.8 km/h
461 10-11-2019 05:00:00 1.38333 C 5.17 g/m*3 1.38 C 0 km/h
462 10-11-2019 06:00:00 1.70833 C 5.28 g/m*3 1.71 C 2.93333 km/h
463 10-11-2019 07:00:00 1.61667 C 5.25 g/m*3 1.62 C 1.86667 km/h
464 10-11-2019 08:00:00 1.81667 C 5.35 g/m*3 1.82 C 0.53333 km/h
465 10-11-2019 09:00:00 2.25 C 5.52 g/m*3 2.25 C 0.66667 km/h
466 10-11-2019 10:00:00 2.66667 C 5.7 g/m*3 2.67 C 0.93333 km/h
467 10-11-2019 11:00:00 3.2 C 5.91 g/m*3 3.2 C 2.26667 km/h
468 10-11-2019 12:00:00 3.4 C 5.91 g/m*3 2.24 C 5.075 km/h
469 10-11-2019 13:00:00 3.86667 C 5.99 g/m*3 3.87 C 4.26667 km/h
470 10-11-2019 14:00:00 4.29167 C 6.06 g/m*3 4.29 C 3.2 km/h
471 10-11-2019 15:00:00 4.65833 C 6.17 g/m*3 4.66 C 1.86667 km/h
472 10-11-2019 16:00:00 4.58333 C 6.08 g/m*3 4.58 C 1.46667 km/h
473 10-11-2019 17:00:00 4.35833 C 6.06 g/m*3 4.36 C 1.2 km/h
474 10-11-2019 18:00:00 4.275 C 6.07 g/m*3 4.28 C 1.2 km/h
475 10-11-2019 19:00:00 4.15 C 6.04 g/m*3 4.15 C 1.6 km/h
Sensor: Nr:Datum:Temp:Abs-Feuchte:Windchill:Wind:
Aussen-T/F 476 10-11-2019 20:00:00 4.25 C 6.14 g/m*3 4.25 C 0.26667 km/h
477 10-11-2019 21:00:00 4.3 C 6.16 g/m*3 4.3 C 0.26667 km/h
478 10-11-2019 22:00:00 4.275 C 6.15 g/m*3 4.28 C 0 km/h
479 10-11-2019 23:00:00 4.36667 C 6.14 g/m*3 4.37 C 0.53333 km/h
480 11-11-2019 00:00:00 4.25833 C 6.03 g/m*3 4.26 C 0.93333 km/h
481 11-11-2019 01:00:00 3.85 C 5.84 g/m*3 3.85 C 2.53333 km/h
482 11-11-2019 02:00:00 3.58333 C 5.75 g/m*3 3.58 C 0.4 km/h
483 11-11-2019 03:00:00 3.30833 C 5.65 g/m*3 3.31 C 2.4 km/h
484 11-11-2019 04:00:00 3.14167 C 5.58 g/m*3 3.14 C 1.06667 km/h
485 11-11-2019 05:00:00 3.23333 C 5.64 g/m*3 3.23 C 0.4 km/h
486 11-11-2019 06:00:00 3.3 C 5.66 g/m*3 3.3 C 0 km/h
487 11-11-2019 07:00:00 3.39167 C 5.74 g/m*3 3.39 C 0.53333 km/h
488 11-11-2019 08:00:00 4.16667 C 5.97 g/m*3 2.66 C 6.3 km/h
489 11-11-2019 09:00:00 4.98333 C 6.13 g/m*3 3.17 C 7.79167 km/h
490 11-11-2019 10:00:00 5.24167 C 6.15 g/m*3 3.62 C 7.24167 km/h
491 11-11-2019 11:00:00 5.54167 C 6.22 g/m*3 3.97 C 7.25 km/h
492 11-11-2019 12:00:00 6.025 C 6.32 g/m*3 4.57 C 7.11667 km/h
493 11-11-2019 13:00:00 6.425 C 6.42 g/m*3 5.48 C 5.625 km/h
494 11-11-2019 14:00:00 6.11667 C 6.33 g/m*3 4.76 C 6.83333 km/h
495 11-11-2019 15:00:00 5.61667 C 6.28 g/m*3 4.75 C 5.08333 km/h
496 11-11-2019 16:00:00 5.25833 C 6.22 g/m*3 4.1 C 5.75833 km/h
497 11-11-2019 17:00:00 5.09167 C 6.15 g/m*3 3.6 C 6.71667 km/h
498 11-11-2019 18:00:00 4.85833 C 6.1 g/m*3 4.86 C 4.14167 km/h
499 11-11-2019 19:00:00 4.83333 C 6.22 g/m*3 4.83 C 0.8 km/h
500 11-11-2019 20:00:00 4.8 C 6.3 g/m*3 4.8 C 0.13333 km/h
Sensor: Nr:Datum:Temp:Abs-Feuchte:Windchill:Wind:
Aussen-T/F 501 11-11-2019 21:00:00 4.975 C 6.44 g/m*3 4.97 C 1.06667 km/h
502 11-11-2019 22:00:00 5.13333 C 6.51 g/m*3 5.13 C 1.06667 km/h
503 11-11-2019 23:00:00 5.18333 C 6.6 g/m*3 5.18 C 0.13333 km/h
504 12-11-2019 00:00:00 5.05 C 6.53 g/m*3 5.05 C 0.13333 km/h
505 12-11-2019 01:00:00 5.05 C 6.54 g/m*3 4.05 C 5.23333 km/h
506 12-11-2019 02:00:00 5.375 C 6.55 g/m*3 5.38 C 3.21667 km/h
507 12-11-2019 03:00:00 5.475 C 6.47 g/m*3 5.48 C 3.48333 km/h
508 12-11-2019 04:00:00 5.6 C 6.45 g/m*3 5.6 C 2.275 km/h
509 12-11-2019 05:00:00 5.45833 C 6.41 g/m*3 5.46 C 1.06667 km/h
510 12-11-2019 06:00:00 5.375 C 6.4 g/m*3 5.38 C 2.26667 km/h
511 12-11-2019 07:00:00 5.7 C 6.39 g/m*3 5.7 C 2.4 km/h
512 12-11-2019 08:00:00 5.88333 C 6.42 g/m*3 5.88 C 2 km/h
513 12-11-2019 09:00:00 6.58333 C 6.53 g/m*3 6.58 C 2.94167 km/h
514 12-11-2019 10:00:00 7.66667 C 6.68 g/m*3 6.7 C 6.3 km/h
515 12-11-2019 11:00:00 8.03333 C 6.79 g/m*3 6.34 C 9.7 km/h
516 12-11-2019 12:00:00 7.91667 C 6.89 g/m*3 5.25 C 15.7 km/h
517 12-11-2019 13:00:00 7.73333 C 6.67 g/m*3 4.97 C 16.1 km/h
518 12-11-2019 14:00:00 7.76667 C 6.55 g/m*3 5.68 C 11.55833 km/h
519 12-11-2019 15:00:00 7.75833 C 6.52 g/m*3 5.99 C 9.81667 km/h
520 12-11-2019 16:00:00 7.31667 C 6.41 g/m*3 5.6 C 9.14167 km/h
521 12-11-2019 17:00:00 6.60833 C 6.23 g/m*3 5.78 C 5.35833 km/h
522 12-11-2019 18:00:00 5.85 C 6.26 g/m*3 5.85 C 0.53333 km/h
523 12-11-2019 19:00:00 4.65833 C 5.93 g/m*3 4.66 C 0 km/h
524 12-11-2019 20:00:00 3.29167 C 5.55 g/m*3 3.29 C 0.13333 km/h
525 12-11-2019 21:00:00 3.23333 C 5.65 g/m*3 3.23 C 0.4 km/h
Sensor: Nr:Datum:Temp:Abs-Feuchte:Windchill:Wind:
Aussen-T/F 526 12-11-2019 22:00:00 3.85 C 5.94 g/m*3 3.85 C 2.4 km/h
527 12-11-2019 23:00:00 4.66667 C 6.06 g/m*3 4.67 C 3.21667 km/h
528 13-11-2019 00:00:00 4.89167 C 5.98 g/m*3 4.89 C 1.6 km/h
529 13-11-2019 01:00:00 4.65833 C 5.91 g/m*3 4.66 C 0.26667 km/h
530 13-11-2019 02:00:00 3.33333 C 5.52 g/m*3 3.33 C 0.8 km/h
531 13-11-2019 03:00:00 4.14167 C 5.76 g/m*3 4.14 C 2.81667 km/h
532 13-11-2019 04:00:00 4.48333 C 5.82 g/m*3 4.48 C 0.93333 km/h
533 13-11-2019 05:00:00 4.53333 C 5.87 g/m*3 4.53 C 0.66667 km/h
534 13-11-2019 06:00:00 4.50833 C 5.89 g/m*3 4.51 C 0.53333 km/h
535 13-11-2019 07:00:00 4.16667 C 5.82 g/m*3 4.17 C 0 km/h
536 13-11-2019 08:00:00 4.58333 C 5.99 g/m*3 4.58 C 0.4 km/h
537 13-11-2019 09:00:00 5.43333 C 6.19 g/m*3 4 C 6.725 km/h
538 13-11-2019 10:00:00 6.01667 C 6.27 g/m*3 4.97 C 5.75833 km/h
539 13-11-2019 11:00:00 6.30833 C 6.36 g/m*3 4.37 C 9.28333 km/h
540 13-11-2019 12:00:00 6.81667 C 6.46 g/m*3 4.73 C 10.48333 km/h
541 13-11-2019 13:00:00 6.775 C 6.44 g/m*3 5.17 C 8.20833 km/h
542 13-11-2019 14:00:00 6.65 C 6.48 g/m*3 4.69 C 9.68333 km/h
543 13-11-2019 15:00:00 6.69167 C 6.52 g/m*3 5.11 C 8.04167 km/h
544 13-11-2019 16:00:00 6.6 C 6.52 g/m*3 5.68 C 5.625 km/h
545 13-11-2019 17:00:00 6.41667 C 6.49 g/m*3 6.42 C 1.33333 km/h
546 13-11-2019 18:00:00 6.35 C 6.51 g/m*3 6.35 C 0.26667 km/h
547 13-11-2019 19:00:00 6.225 C 6.53 g/m*3 6.23 C 2.53333 km/h
548 13-11-2019 20:00:00 6.26667 C 6.51 g/m*3 6.27 C 4.15 km/h
549 13-11-2019 21:00:00 5.9 C 6.44 g/m*3 5.9 C 0 km/h
550 13-11-2019 22:00:00 5.025 C 6.18 g/m*3 5.03 C 0.53333 km/h
Sensor: Nr:Datum:Temp:Abs-Feuchte:Windchill:Wind:
Aussen-T/F 551 13-11-2019 23:00:00 4.60833 C 6.09 g/m*3 4.61 C 0.26667 km/h
552 14-11-2019 00:00:00 4.95 C 6.32 g/m*3 4.95 C 0.26667 km/h
553 14-11-2019 01:00:00 4.81667 C 6.23 g/m*3 4.82 C 1.06667 km/h
554 14-11-2019 02:00:00 4.8 C 6.32 g/m*3 4.8 C 0.26667 km/h
555 14-11-2019 03:00:00 5.425 C 6.56 g/m*3 5.43 C 1.73333 km/h
556 14-11-2019 04:00:00 5.69167 C 6.56 g/m*3 5.69 C 1.46667 km/h
557 14-11-2019 05:00:00 4.84167 C 6.26 g/m*3 4.84 C 0 km/h
558 14-11-2019 06:00:00 4.70833 C 6.28 g/m*3 4.71 C 0.8 km/h
559 14-11-2019 07:00:00 5.25833 C 6.3 g/m*3 4.34 C 5.09167 km/h
560 14-11-2019 08:00:00 5.28333 C 6.17 g/m*3 5.28 C 3.46667 km/h
561 14-11-2019 09:00:00 5.64167 C 6.2 g/m*3 5.64 C 4 km/h
562 14-11-2019 10:00:00 6.68333 C 6.33 g/m*3 6.68 C 4.55 km/h
563 14-11-2019 11:00:00 7.86667 C 6.26 g/m*3 7.17 C 5.49167 km/h
564 14-11-2019 12:00:00 8.725 C 6.09 g/m*3 7.78 C 6.84167 km/h
565 14-11-2019 13:00:00 8.68333 C 6.07 g/m*3 8.68 C 4.53333 km/h
566 14-11-2019 14:00:00 9.01667 C 5.98 g/m*3 9.02 C 4.825 km/h
567 14-11-2019 15:00:00 8.2 C 6.17 g/m*3 8.2 C 1.2 km/h
568 14-11-2019 16:00:00 6.66667 C 6.05 g/m*3 6.67 C 0 km/h
569 14-11-2019 17:00:00 4.96667 C 5.66 g/m*3 4.97 C 0.53333 km/h
570 14-11-2019 18:00:00 4.48333 C 5.6 g/m*3 4.48 C 0.66667 km/h
571 14-11-2019 19:00:00 3.86667 C 5.46 g/m*3 3.87 C 0 km/h
572 14-11-2019 20:00:00 3.45 C 5.44 g/m*3 3.45 C 0.13333 km/h
573 14-11-2019 21:00:00 2.86667 C 5.32 g/m*3 2.87 C 0 km/h
574 14-11-2019 22:00:00 2.55833 C 5.32 g/m*3 2.56 C 0 km/h
575 14-11-2019 23:00:00 2.725 C 5.44 g/m*3 2.73 C 0 km/h
Sensor: Nr:Datum:Temp:Abs-Feuchte:Windchill:Wind:
Aussen-T/F 576 15-11-2019 00:00:00 2.975 C 5.57 g/m*3 2.98 C 0 km/h
577 15-11-2019 01:00:00 3.43333 C 5.73 g/m*3 3.43 C 0 km/h
578 15-11-2019 02:00:00 3.43333 C 5.69 g/m*3 3.43 C 0.13333 km/h
579 15-11-2019 03:00:00 3.4 C 5.63 g/m*3 3.4 C 0.4 km/h
580 15-11-2019 04:00:00 3.36667 C 5.59 g/m*3 3.37 C 2.4 km/h
581 15-11-2019 05:00:00 3.53333 C 5.56 g/m*3 3.53 C 0.8 km/h
582 15-11-2019 06:00:00 3.89167 C 5.55 g/m*3 3.89 C 4.29167 km/h
583 15-11-2019 07:00:00 3.88333 C 5.52 g/m*3 3.88 C 2.66667 km/h
584 15-11-2019 08:00:00 4.05833 C 5.58 g/m*3 4.06 C 1.88333 km/h
585 15-11-2019 09:00:00 4.275 C 5.67 g/m*3 4.28 C 1.74167 km/h
586 15-11-2019 10:00:00 5.38333 C 5.82 g/m*3 5.38 C 3.2 km/h
587 15-11-2019 11:00:00 5.86667 C 5.88 g/m*3 5.03 C 5.1 km/h
588 15-11-2019 12:00:00 6.55 C 6.08 g/m*3 6.55 C 3.35 km/h
589 15-11-2019 13:00:00 7.05 C 6.26 g/m*3 7.05 C 1.06667 km/h
590 15-11-2019 14:00:00 7.68333 C 6.42 g/m*3 7.68 C 2.13333 km/h
591 15-11-2019 15:00:00 7.875 C 6.45 g/m*3 7.88 C 2.26667 km/h
592 15-11-2019 16:00:00 6.54167 C 6.22 g/m*3 6.54 C 0.13333 km/h
593 15-11-2019 17:00:00 4.75833 C 5.93 g/m*3 4.76 C 0 km/h
594 15-11-2019 18:00:00 4.63333 C 6.01 g/m*3 4.63 C 0.26667 km/h
595 15-11-2019 19:00:00 4.50833 C 6.02 g/m*3 4.51 C 0 km/h
596 15-11-2019 20:00:00 4.2 C 5.93 g/m*3 4.2 C 0 km/h
597 15-11-2019 21:00:00 4.05 C 5.93 g/m*3 4.05 C 0 km/h
598 15-11-2019 22:00:00 3.70833 C 5.81 g/m*3 3.71 C 0 km/h
599 15-11-2019 23:00:00 3.49167 C 5.77 g/m*3 3.49 C 0 km/h
600 16-11-2019 00:00:00 3.30833 C 5.71 g/m*3 3.31 C 0 km/h
Sensor: Nr:Datum:Temp:Abs-Feuchte:Windchill:Wind:
Aussen-T/F 601 16-11-2019 01:00:00 3.225 C 5.73 g/m*3 3.23 C 0.13333 km/h
602 16-11-2019 02:00:00 3.11667 C 5.69 g/m*3 3.12 C 0.13333 km/h
603 16-11-2019 03:00:00 2.63333 C 5.5 g/m*3 2.63 C 0 km/h
604 16-11-2019 04:00:00 1.85 C 5.2 g/m*3 1.85 C 0 km/h
605 16-11-2019 05:00:00 0.85 C 4.88 g/m*3 0.85 C 0 km/h
606 16-11-2019 06:00:00 0.08333 C 4.63 g/m*3 0.08 C 0 km/h
607 16-11-2019 07:00:00 -0.30833 C 4.52 g/m*3 -0.31 C 0.26667 km/h
608 16-11-2019 08:00:00 0.24167 C 4.73 g/m*3 0.24 C 2.13333 km/h
609 16-11-2019 09:00:00 0.31667 C 4.77 g/m*3 0.32 C 4.53333 km/h
610 16-11-2019 10:00:00 0.74167 C 4.95 g/m*3 0.74 C 2.8 km/h
611 16-11-2019 11:00:00 1.425 C 5.18 g/m*3 1.43 C 2.53333 km/h
612 16-11-2019 12:00:00 2.25833 C 5.49 g/m*3 2.26 C 0 km/h
613 16-11-2019 13:00:00 3.375 C 5.91 g/m*3 3.38 C 0 km/h
614 16-11-2019 14:00:00 4.20833 C 6.25 g/m*3 4.21 C 0.13333 km/h
615 16-11-2019 15:00:00 4.66667 C 6.39 g/m*3 4.67 C 0.4 km/h
616 16-11-2019 16:00:00 4.58333 C 6.18 g/m*3 4.58 C 0.26667 km/h
617 16-11-2019 17:00:00 3.94167 C 5.92 g/m*3 3.94 C 0.26667 km/h
618 16-11-2019 18:00:00 3.20833 C 5.7 g/m*3 3.21 C 0.4 km/h
619 16-11-2019 19:00:00 2.55833 C 5.48 g/m*3 2.56 C 0.13333 km/h
620 16-11-2019 20:00:00 1.94167 C 5.29 g/m*3 1.94 C 0 km/h
621 16-11-2019 21:00:00 1.55833 C 5.17 g/m*3 1.56 C 0 km/h
622 16-11-2019 22:00:00 0.79167 C 4.91 g/m*3 0.79 C 0.13333 km/h
623 16-11-2019 23:00:00 0.15833 C 4.7 g/m*3 0.16 C 0 km/h
624 17-11-2019 00:00:00 -0.3 C 4.56 g/m*3 -0.3 C 0 km/h
625 17-11-2019 01:00:00 -0.69167 C 4.44 g/m*3 -0.69 C 0 km/h
Sensor: Nr:Datum:Temp:Abs-Feuchte:Windchill:Wind:
Aussen-T/F 626 17-11-2019 02:00:00 -0.11667 C 4.65 g/m*3 -0.12 C 0 km/h
627 17-11-2019 03:00:00 0.8 C 4.97 g/m*3 0.8 C 0 km/h
628 17-11-2019 04:00:00 1.475 C 5.2 g/m*3 1.48 C 0 km/h
629 17-11-2019 05:00:00 1.65833 C 5.27 g/m*3 1.66 C 0 km/h
630 17-11-2019 06:00:00 1.7 C 5.28 g/m*3 1.7 C 0 km/h
631 17-11-2019 07:00:00 1.825 C 5.33 g/m*3 1.83 C 0 km/h
632 17-11-2019 08:00:00 1.96667 C 5.38 g/m*3 1.97 C 0 km/h
633 17-11-2019 09:00:00 2.475 C 5.58 g/m*3 2.48 C 0 km/h
634 17-11-2019 10:00:00 3.15 C 5.89 g/m*3 3.15 C 0.26667 km/h
635 17-11-2019 11:00:00 3.91667 C 6.2 g/m*3 3.92 C 0.13333 km/h
636 17-11-2019 12:00:00 4.31667 C 6.36 g/m*3 4.32 C 0 km/h
637 17-11-2019 13:00:00 4.90833 C 6.62 g/m*3 4.91 C 0 km/h
638 17-11-2019 14:00:00 5.1 C 6.69 g/m*3 5.1 C 0.93333 km/h
639 17-11-2019 15:00:00 4.88333 C 6.54 g/m*3 4.88 C 1.33333 km/h
640 17-11-2019 16:00:00 4.65 C 6.44 g/m*3 4.65 C 2.66667 km/h
641 17-11-2019 17:00:00 4.43333 C 6.35 g/m*3 4.43 C 2.13333 km/h
642 17-11-2019 18:00:00 4.63333 C 6.43 g/m*3 4.63 C 1.6 km/h
643 17-11-2019 19:00:00 4.7 C 6.46 g/m*3 3.15 C 6.70833 km/h
644 17-11-2019 20:00:00 4.71667 C 6.47 g/m*3 4.72 C 3.74167 km/h
645 17-11-2019 21:00:00 4.7 C 6.46 g/m*3 3.51 C 5.625 km/h
646 17-11-2019 22:00:00 4.7 C 6.46 g/m*3 4.7 C 1.2 km/h
647 17-11-2019 23:00:00 4.625 C 6.43 g/m*3 4.63 C 2.95 km/h
648 18-11-2019 00:00:00 4.375 C 6.32 g/m*3 3.18 C 5.5 km/h
649 18-11-2019 01:00:00 4.2 C 6.25 g/m*3 2.71 C 6.29167 km/h
650 18-11-2019 02:00:00 4.2 C 6.25 g/m*3 4.2 C 4.41667 km/h
Sensor: Nr:Datum:Temp:Abs-Feuchte:Windchill:Wind:
Aussen-T/F 651 18-11-2019 03:00:00 4.2 C 6.25 g/m*3 4.2 C 2.93333 km/h
652 18-11-2019 04:00:00 4.2 C 6.25 g/m*3 4.2 C 4.00833 km/h
653 18-11-2019 05:00:00 4.175 C 6.24 g/m*3 4.18 C 1.73333 km/h
654 18-11-2019 06:00:00 4.1 C 6.21 g/m*3 4.1 C 0.53333 km/h
655 18-11-2019 07:00:00 4.08333 C 6.2 g/m*3 4.08 C 0.4 km/h
656 18-11-2019 08:00:00 4.14167 C 6.23 g/m*3 4.14 C 0 km/h
657 18-11-2019 09:00:00 4.40833 C 6.34 g/m*3 4.41 C 0.13333 km/h
658 18-11-2019 10:00:00 4.86667 C 6.58 g/m*3 4.87 C 0.26667 km/h
659 18-11-2019 11:00:00 5.025 C 6.6 g/m*3 5.03 C 0.93333 km/h
660 18-11-2019 12:00:00 5.30833 C 6.7 g/m*3 5.31 C 3.46667 km/h
661 18-11-2019 13:00:00 5.33333 C 6.67 g/m*3 5.33 C 3.46667 km/h
662 18-11-2019 14:00:00 5.35833 C 6.63 g/m*3 5.36 C 4 km/h
663 18-11-2019 15:00:00 5.19167 C 6.54 g/m*3 5.19 C 3.6 km/h
664 18-11-2019 16:00:00 4.86667 C 6.4 g/m*3 4.87 C 4.29167 km/h
665 18-11-2019 17:00:00 4.78333 C 6.36 g/m*3 4.78 C 4.55 km/h
666 18-11-2019 18:00:00 4.65833 C 6.31 g/m*3 4.66 C 4.01667 km/h
667 18-11-2019 19:00:00 4.08333 C 6.07 g/m*3 2.01 C 8.19167 km/h
668 18-11-2019 20:00:00 3.23333 C 5.74 g/m*3 0.59 C 9.81667 km/h
669 18-11-2019 21:00:00 2.55833 C 5.51 g/m*3 -0.5 C 11.03333 km/h
670 18-11-2019 22:00:00 2.88333 C 5.66 g/m*3 0.08 C 10.23333 km/h
671 18-11-2019 23:00:00 3.25 C 5.8 g/m*3 0.22 C 11.56667 km/h
672 19-11-2019 00:00:00 3.7 C 5.98 g/m*3 1.02 C 10.35833 km/h
673 19-11-2019 01:00:00 4.01667 C 6.11 g/m*3 2.19 C 7.25833 km/h
674 19-11-2019 02:00:00 4.2 C 6.19 g/m*3 2.84 C 5.89167 km/h
675 19-11-2019 03:00:00 4.25833 C 6.21 g/m*3 4.26 C 3.2 km/h
Sensor: Nr:Datum:Temp:Abs-Feuchte:Windchill:Wind:
Aussen-T/F 676 19-11-2019 04:00:00 4.325 C 6.24 g/m*3 2.67 C 6.85833 km/h
677 19-11-2019 05:00:00 3.475 C 5.88 g/m*3 3.48 C 0.8 km/h
678 19-11-2019 06:00:00 2.85 C 5.66 g/m*3 2.85 C 2.66667 km/h
679 19-11-2019 07:00:00 2.93333 C 5.72 g/m*3 2.93 C 0.53333 km/h
680 19-11-2019 08:00:00 3.18333 C 5.84 g/m*3 3.18 C 2.13333 km/h
681 19-11-2019 09:00:00 4.025 C 6.17 g/m*3 2.79 C 5.48333 km/h
682 19-11-2019 10:00:00 4.00833 C 6.14 g/m*3 4.01 C 2 km/h
683 19-11-2019 11:00:00 4.65833 C 6.44 g/m*3 4.66 C 3.89167 km/h
684 19-11-2019 12:00:00 6.175 C 6.72 g/m*3 4.71 C 7.24167 km/h
685 19-11-2019 13:00:00 6.35 C 6.55 g/m*3 5.18 C 6.30833 km/h
686 19-11-2019 14:00:00 6.63333 C 6.58 g/m*3 5.72 C 5.61667 km/h
687 19-11-2019 15:00:00 6.55 C 6.77 g/m*3 6.55 C 0.93333 km/h
688 19-11-2019 16:00:00 5.54167 C 6.53 g/m*3 5.54 C 2.53333 km/h
689 19-11-2019 17:00:00 4.175 C 6.03 g/m*3 4.18 C 1.33333 km/h
690 19-11-2019 18:00:00 3.325 C 5.77 g/m*3 3.33 C 0.26667 km/h
691 19-11-2019 19:00:00 2.74167 C 5.56 g/m*3 2.74 C 0.13333 km/h
692 19-11-2019 20:00:00 2.3 C 5.45 g/m*3 2.3 C 0.4 km/h
693 19-11-2019 21:00:00 2.80833 C 5.67 g/m*3 2.81 C 2.14167 km/h
694 19-11-2019 22:00:00 2.45 C 5.51 g/m*3 2.45 C 0.4 km/h
695 19-11-2019 23:00:00 1.10833 C 5.02 g/m*3 1.11 C 0 km/h
696 20-11-2019 00:00:00 0.60833 C 4.85 g/m*3 0.61 C 0.13333 km/h
697 20-11-2019 01:00:00 0.23333 C 4.73 g/m*3 0.23 C 0 km/h
698 20-11-2019 02:00:00 0.35833 C 4.82 g/m*3 0.36 C 0 km/h
699 20-11-2019 03:00:00 0.55833 C 4.88 g/m*3 0.56 C 2.14167 km/h
700 20-11-2019 04:00:00 0.39167 C 4.83 g/m*3 0.39 C 2.80833 km/h
Sensor: Nr:Datum:Temp:Abs-Feuchte:Windchill:Wind:
Aussen-T/F 701 20-11-2019 05:00:00 0.675 C 4.92 g/m*3 0.68 C 2.66667 km/h
702 20-11-2019 06:00:00 0.75833 C 4.95 g/m*3 0.76 C 0.13333 km/h
703 20-11-2019 07:00:00 1.01667 C 5.04 g/m*3 1.02 C 0.26667 km/h
704 20-11-2019 08:00:00 1.275 C 5.15 g/m*3 1.27 C 0 km/h
705 20-11-2019 09:00:00 1.85 C 5.39 g/m*3 1.85 C 0.26667 km/h
706 20-11-2019 10:00:00 2.61667 C 5.68 g/m*3 2.62 C 0.26667 km/h
707 20-11-2019 11:00:00 3.025 C 5.82 g/m*3 3.03 C 1.46667 km/h
708 20-11-2019 12:00:00 4.16667 C 6.22 g/m*3 4.17 C 4.54167 km/h
709 20-11-2019 13:00:00 4.9 C 6.09 g/m*3 2.97 C 8.19167 km/h
710 20-11-2019 14:00:00 5.275 C 5.97 g/m*3 5.28 C 4.15 km/h
711 20-11-2019 15:00:00 5.225 C 5.87 g/m*3 5.23 C 1.33333 km/h
712 20-11-2019 16:00:00 3.54167 C 5.45 g/m*3 3.54 C 0.26667 km/h
713 20-11-2019 17:00:00 2.34167 C 5.25 g/m*3 2.34 C 0 km/h
714 20-11-2019 18:00:00 1.31667 C 4.96 g/m*3 1.32 C 0.13333 km/h
715 20-11-2019 19:00:00 0.4 C 4.7 g/m*3 0.4 C 0 km/h
716 20-11-2019 20:00:00 -0.19167 C 4.54 g/m*3 -0.19 C 0 km/h
717 20-11-2019 21:00:00 -0.59167 C 4.45 g/m*3 -0.59 C 0 km/h
718 20-11-2019 22:00:00 -0.85 C 4.39 g/m*3 -0.85 C 0.26667 km/h
719 20-11-2019 23:00:00 -0.6 C 4.47 g/m*3 -0.6 C 0 km/h
720 21-11-2019 00:00:00 -0.6 C 4.48 g/m*3 -0.6 C 0 km/h
721 21-11-2019 01:00:00 -1.19167 C 4.28 g/m*3 -1.19 C 0 km/h
722 21-11-2019 02:00:00 -1.4 C 4.22 g/m*3 -1.4 C 0 km/h
723 21-11-2019 03:00:00 -1.23333 C 4.31 g/m*3 -1.23 C 0 km/h
724 21-11-2019 04:00:00 -0.40833 C 4.57 g/m*3 -0.41 C 0 km/h
725 21-11-2019 05:00:00 0.16667 C 4.75 g/m*3 0.17 C 0 km/h
Sensor: Nr:Datum:Temp:Abs-Feuchte:Windchill:Wind:
Aussen-T/F 726 21-11-2019 06:00:00 0.65 C 4.92 g/m*3 0.65 C 0.13333 km/h
727 21-11-2019 07:00:00 0.775 C 4.96 g/m*3 0.78 C 0 km/h
728 21-11-2019 08:00:00 0.85 C 4.98 g/m*3 0.85 C 0.4 km/h
729 21-11-2019 09:00:00 1.225 C 5.11 g/m*3 1.23 C 0.26667 km/h
730 21-11-2019 10:00:00 1.775 C 5.31 g/m*3 1.78 C 0 km/h
731 21-11-2019 11:00:00 2.53333 C 5.59 g/m*3 2.53 C 0.53333 km/h
732 21-11-2019 12:00:00 2.925 C 5.68 g/m*3 2.93 C 1.6 km/h
733 21-11-2019 13:00:00 3.6 C 5.92 g/m*3 3.6 C 1.6 km/h
734 21-11-2019 14:00:00 4.33333 C 6.13 g/m*3 4.33 C 0.53333 km/h
735 21-11-2019 15:00:00 4.78333 C 6.29 g/m*3 4.78 C 0 km/h
736 21-11-2019 16:00:00 4.975 C 6.38 g/m*3 4.97 C 0 km/h
737 21-11-2019 17:00:00 4.48333 C 6.23 g/m*3 4.48 C 0 km/h
738 21-11-2019 18:00:00 4.18333 C 6.12 g/m*3 4.18 C 0 km/h
739 21-11-2019 19:00:00 3.975 C 6.06 g/m*3 3.98 C 0 km/h
740 21-11-2019 20:00:00 3.10833 C 5.7 g/m*3 3.11 C 0.4 km/h
741 21-11-2019 21:00:00 2.35 C 5.46 g/m*3 2.35 C 0.4 km/h
742 21-11-2019 22:00:00 1.89167 C 5.3 g/m*3 1.89 C 0.13333 km/h
743 21-11-2019 23:00:00 2.05 C 5.41 g/m*3 2.05 C 0.13333 km/h
744 22-11-2019 00:00:00 2.24167 C 5.48 g/m*3 2.24 C 0.13333 km/h
745 22-11-2019 01:00:00 2 C 5.39 g/m*3 2 C 0.13333 km/h
746 22-11-2019 02:00:00 1.6 C 5.24 g/m*3 1.6 C 0.26667 km/h
747 22-11-2019 03:00:00 1.725 C 5.29 g/m*3 1.73 C 0.13333 km/h
748 22-11-2019 04:00:00 2.11667 C 5.43 g/m*3 2.12 C 0 km/h
749 22-11-2019 05:00:00 2.69167 C 5.68 g/m*3 2.69 C 0.13333 km/h
750 22-11-2019 06:00:00 3.55833 C 6.05 g/m*3 3.56 C 0 km/h
Sensor: Nr:Datum:Temp:Abs-Feuchte:Windchill:Wind:
Aussen-T/F 751 22-11-2019 07:00:00 3.99167 C 6.23 g/m*3 3.99 C 0.13333 km/h
752 22-11-2019 08:00:00 4.55833 C 6.47 g/m*3 4.56 C 3.06667 km/h
753 22-11-2019 09:00:00 4.65833 C 6.48 g/m*3 4.66 C 3.88333 km/h
754 22-11-2019 10:00:00 4.50833 C 6.39 g/m*3 4.51 C 2.26667 km/h
755 22-11-2019 11:00:00 5.18333 C 6.68 g/m*3 5.18 C 4.93333 km/h
756 22-11-2019 12:00:00 5.7 C 6.86 g/m*3 4.39 C 6.45 km/h
757 22-11-2019 13:00:00 5.88333 C 6.79 g/m*3 4.82 C 5.75 km/h
758 22-11-2019 14:00:00 6.06667 C 6.78 g/m*3 4.41 C 7.91667 km/h
759 22-11-2019 15:00:00 6.16667 C 6.75 g/m*3 6.17 C 4.00833 km/h
760 22-11-2019 16:00:00 5.90833 C 6.66 g/m*3 5.91 C 1.73333 km/h
761 22-11-2019 17:00:00 5.73333 C 6.66 g/m*3 5.73 C 1.46667 km/h
762 22-11-2019 18:00:00 5.63333 C 6.64 g/m*3 5.63 C 1.46667 km/h
763 22-11-2019 19:00:00 5.49167 C 6.55 g/m*3 5.49 C 2.26667 km/h
764 22-11-2019 20:00:00 5.275 C 6.43 g/m*3 5.28 C 3.48333 km/h
765 22-11-2019 21:00:00 5.08333 C 6.35 g/m*3 5.08 C 1.33333 km/h
766 22-11-2019 22:00:00 4.88333 C 6.25 g/m*3 4.88 C 2.26667 km/h
767 22-11-2019 23:00:00 4.725 C 6.16 g/m*3 4.72 C 2.13333 km/h
768 23-11-2019 00:00:00 4.725 C 6.16 g/m*3 4.72 C 2.53333 km/h
769 23-11-2019 01:00:00 4.83333 C 6.15 g/m*3 4.83 C 3.88333 km/h
770 23-11-2019 02:00:00 4.775 C 6.13 g/m*3 4.78 C 1.06667 km/h
771 23-11-2019 03:00:00 4.425 C 6.08 g/m*3 4.43 C 1.86667 km/h
772 23-11-2019 04:00:00 4 C 5.96 g/m*3 4 C 0.26667 km/h
773 23-11-2019 05:00:00 3.69167 C 5.9 g/m*3 3.69 C 0.8 km/h
774 23-11-2019 06:00:00 3.68333 C 5.94 g/m*3 3.68 C 0.4 km/h
775 23-11-2019 07:00:00 3.94167 C 6.08 g/m*3 3.94 C 0.53333 km/h
Sensor: Nr:Datum:Temp:Abs-Feuchte:Windchill:Wind:
Aussen-T/F 776 23-11-2019 08:00:00 4.15 C 6.17 g/m*3 4.15 C 1.60833 km/h
777 23-11-2019 09:00:00 5.00833 C 6.52 g/m*3 5.01 C 1.86667 km/h
778 23-11-2019 10:00:00 6.15833 C 6.75 g/m*3 6.16 C 3.74167 km/h
779 23-11-2019 11:00:00 7.225 C 6.91 g/m*3 7.23 C 4.14167 km/h
780 23-11-2019 12:00:00 7.35833 C 7.14 g/m*3 7.36 C 1.33333 km/h
781 23-11-2019 13:00:00 7.65 C 7.27 g/m*3 7.65 C 2 km/h
782 23-11-2019 14:00:00 7.53333 C 7.39 g/m*3 7.53 C 2.53333 km/h
783 23-11-2019 15:00:00 8.36667 C 7.53 g/m*3 7.83 C 5.225 km/h
784 23-11-2019 16:00:00 7.625 C 7.15 g/m*3 7.63 C 2.275 km/h
785 23-11-2019 17:00:00 6.25833 C 6.81 g/m*3 6.26 C 2.53333 km/h
786 23-11-2019 18:00:00 5.76667 C 6.7 g/m*3 5.77 C 0.8 km/h
787 23-11-2019 19:00:00 5.56667 C 6.69 g/m*3 5.57 C 1.46667 km/h
788 23-11-2019 20:00:00 5.00833 C 6.46 g/m*3 5.01 C 0.26667 km/h
789 23-11-2019 21:00:00 4.41667 C 6.22 g/m*3 4.42 C 0.13333 km/h
790 23-11-2019 22:00:00 3.85833 C 6.04 g/m*3 3.86 C 0.4 km/h
791 23-11-2019 23:00:00 3.28333 C 5.82 g/m*3 3.28 C 0.13333 km/h
792 24-11-2019 00:00:00 2.8 C 5.63 g/m*3 2.8 C 0.13333 km/h
793 24-11-2019 01:00:00 2.38333 C 5.49 g/m*3 2.38 C 0 km/h
794 24-11-2019 02:00:00 2.16667 C 5.45 g/m*3 2.17 C 0 km/h
795 24-11-2019 03:00:00 2.1 C 5.43 g/m*3 2.1 C 0 km/h
796 24-11-2019 04:00:00 1.7 C 5.28 g/m*3 1.7 C 0 km/h
797 24-11-2019 05:00:00 1.825 C 5.33 g/m*3 1.83 C 0.26667 km/h
798 24-11-2019 06:00:00 1.48333 C 5.2 g/m*3 1.48 C 0 km/h
799 24-11-2019 07:00:00 1.14167 C 5.08 g/m*3 1.14 C 0.13333 km/h
800 24-11-2019 08:00:00 1.15 C 5.09 g/m*3 1.15 C 0 km/h
Sensor: Nr:Datum:Temp:Abs-Feuchte:Windchill:Wind:
Aussen-T/F 801 24-11-2019 09:00:00 1.525 C 5.23 g/m*3 1.53 C 0.26667 km/h
802 24-11-2019 10:00:00 2.25833 C 5.54 g/m*3 2.26 C 0.53333 km/h
803 24-11-2019 11:00:00 3.01667 C 5.83 g/m*3 3.02 C 0.13333 km/h
804 24-11-2019 12:00:00 3.81667 C 6.15 g/m*3 3.82 C 0 km/h
805 24-11-2019 13:00:00 4.81667 C 6.58 g/m*3 4.82 C 0 km/h
806 24-11-2019 14:00:00 5.39167 C 6.83 g/m*3 5.39 C 0 km/h
807 24-11-2019 15:00:00 5.39167 C 6.83 g/m*3 5.39 C 0 km/h
808 24-11-2019 16:00:00 4.71667 C 6.47 g/m*3 4.72 C 0 km/h
809 24-11-2019 17:00:00 3.95 C 6.15 g/m*3 3.95 C 0 km/h
810 24-11-2019 18:00:00 3.625 C 6.01 g/m*3 3.63 C 0 km/h
811 24-11-2019 19:00:00 3.55 C 5.98 g/m*3 3.55 C 0 km/h
812 24-11-2019 20:00:00 3.21667 C 5.85 g/m*3 3.22 C 0 km/h
813 24-11-2019 21:00:00 3 C 5.77 g/m*3 3 C 0 km/h
814 24-11-2019 22:00:00 2.48333 C 5.57 g/m*3 2.48 C 0 km/h
815 24-11-2019 23:00:00 2.11667 C 5.44 g/m*3 2.12 C 0 km/h
816 25-11-2019 00:00:00 2.06667 C 5.43 g/m*3 2.07 C 0 km/h
817 25-11-2019 01:00:00 2.41667 C 5.6 g/m*3 2.42 C 0 km/h
818 25-11-2019 02:00:00 2.26667 C 5.54 g/m*3 2.27 C 0 km/h
819 25-11-2019 03:00:00 2.40833 C 5.6 g/m*3 2.41 C 0 km/h
820 25-11-2019 04:00:00 2.7 C 5.71 g/m*3 2.7 C 0 km/h
821 25-11-2019 05:00:00 3.06667 C 5.85 g/m*3 3.07 C 0 km/h
822 25-11-2019 06:00:00 3.31667 C 5.95 g/m*3 3.32 C 0 km/h
823 25-11-2019 07:00:00 3.575 C 6.06 g/m*3 3.58 C 0 km/h
824 25-11-2019 08:00:00 3.80833 C 6.15 g/m*3 3.81 C 0 km/h
825 25-11-2019 09:00:00 4.26667 C 6.34 g/m*3 4.27 C 0 km/h
Sensor: Nr:Datum:Temp:Abs-Feuchte:Windchill:Wind:
Aussen-T/F 826 25-11-2019 10:00:00 4.73333 C 6.54 g/m*3 4.73 C 0 km/h
827 25-11-2019 11:00:00 5.41667 C 6.85 g/m*3 5.42 C 0.13333 km/h
828 25-11-2019 12:00:00 6.05 C 7.13 g/m*3 6.05 C 0.13333 km/h
829 25-11-2019 13:00:00 6.675 C 7.35 g/m*3 6.68 C 0 km/h
830 25-11-2019 14:00:00 7.08333 C 7.48 g/m*3 7.08 C 0.26667 km/h
831 25-11-2019 15:00:00 7.225 C 7.48 g/m*3 7.23 C 0 km/h
832 25-11-2019 16:00:00 7.15833 C 7.49 g/m*3 7.16 C 0 km/h
833 25-11-2019 17:00:00 6.8 C 7.34 g/m*3 6.8 C 0 km/h
834 25-11-2019 18:00:00 6.68333 C 7.29 g/m*3 6.68 C 0 km/h
835 25-11-2019 19:00:00 6.19167 C 7.06 g/m*3 6.19 C 0 km/h
836 25-11-2019 20:00:00 6.125 C 7.1 g/m*3 6.13 C 0.13333 km/h
837 25-11-2019 21:00:00 5.86667 C 6.94 g/m*3 5.87 C 0 km/h
838 25-11-2019 22:00:00 5.21667 C 6.63 g/m*3 5.22 C 0 km/h
839 25-11-2019 23:00:00 4.28333 C 6.22 g/m*3 4.28 C 0 km/h
840 26-11-2019 00:00:00 3.66667 C 6.02 g/m*3 3.67 C 0 km/h
841 26-11-2019 01:00:00 4.225 C 6.26 g/m*3 4.22 C 0 km/h
842 26-11-2019 02:00:00 4.71667 C 6.5 g/m*3 4.72 C 0.13333 km/h
843 26-11-2019 03:00:00 5.25833 C 6.76 g/m*3 5.26 C 0.13333 km/h
844 26-11-2019 04:00:00 5.88333 C 7.06 g/m*3 5.88 C 0 km/h
845 26-11-2019 05:00:00 6.50833 C 7.35 g/m*3 6.51 C 0 km/h
846 26-11-2019 06:00:00 6.75833 C 7.47 g/m*3 6.76 C 0.4 km/h
847 26-11-2019 07:00:00 7.25 C 7.72 g/m*3 7.25 C 0.26667 km/h
848 26-11-2019 08:00:00 7.45833 C 7.82 g/m*3 7.46 C 1.2 km/h
849 26-11-2019 09:00:00 8.05833 C 8.13 g/m*3 8.06 C 2.66667 km/h
850 26-11-2019 10:00:00 9.175 C 8.62 g/m*3 9.18 C 1.73333 km/h
Sensor: Nr:Datum:Temp:Abs-Feuchte:Windchill:Wind:
Aussen-T/F 851 26-11-2019 11:00:00 10.38333 C 8.91 g/m*3 10.38 C 3.61667 km/h
852 26-11-2019 12:00:00 10.98333 C 9.07 g/m*3 10.98 C 1.2 km/h
853 26-11-2019 13:00:00 11.175 C 9.13 g/m*3 11.18 C 1.875 km/h
854 26-11-2019 14:00:00 11.10833 C 9.19 g/m*3 11.11 C 0.66667 km/h
855 26-11-2019 15:00:00 11.24167 C 9.17 g/m*3 11.24 C 1.2 km/h
856 26-11-2019 16:00:00 10.69167 C 8.97 g/m*3 10.69 C 0.53333 km/h
857 26-11-2019 17:00:00 10.01667 C 8.69 g/m*3 10.02 C 0.13333 km/h
858 26-11-2019 18:00:00 9.73333 C 8.67 g/m*3 9.73 C 2 km/h
859 26-11-2019 19:00:00 10.16667 C 8.78 g/m*3 10.17 C 2.93333 km/h
860 26-11-2019 20:00:00 9.75 C 8.48 g/m*3 9.75 C 0.53333 km/h
861 26-11-2019 21:00:00 9.15 C 8.43 g/m*3 9.15 C 0 km/h
862 26-11-2019 22:00:00 9.225 C 8.43 g/m*3 9.23 C 0.4 km/h
863 26-11-2019 23:00:00 8.66667 C 8.19 g/m*3 8.67 C 0.13333 km/h
864 27-11-2019 00:00:00 8.46667 C 8.14 g/m*3 8.47 C 0.53333 km/h
865 27-11-2019 01:00:00 8.38333 C 8.12 g/m*3 8.38 C 0.4 km/h
866 27-11-2019 02:00:00 8.73333 C 8.36 g/m*3 8.73 C 0 km/h
867 27-11-2019 03:00:00 8.21667 C 8.06 g/m*3 8.22 C 0 km/h
868 27-11-2019 04:00:00 8.25833 C 8.15 g/m*3 8.26 C 3.06667 km/h
869 27-11-2019 05:00:00 8.39167 C 8.15 g/m*3 7.82 C 5.34167 km/h
870 27-11-2019 06:00:00 8.64167 C 8.21 g/m*3 8.64 C 1.46667 km/h
871 27-11-2019 07:00:00 8.725 C 8.28 g/m*3 8.73 C 3.74167 km/h
872 27-11-2019 08:00:00 9.13333 C 8.45 g/m*3 9.13 C 2.66667 km/h
873 27-11-2019 09:00:00 9.60833 C 8.71 g/m*3 9.61 C 1.33333 km/h
874 27-11-2019 10:00:00 10.00833 C 8.91 g/m*3 10.01 C 2.40833 km/h
875 27-11-2019 11:00:00 11.66667 C 8.92 g/m*3 11.67 C 6.15833 km/h
Sensor: Nr:Datum:Temp:Abs-Feuchte:Windchill:Wind:
Aussen-T/F 876 27-11-2019 12:00:00 12.65 C 8.78 g/m*3 12.65 C 12.625 km/h
877 27-11-2019 13:00:00 12.775 C 8.66 g/m*3 12.78 C 10.61667 km/h
878 27-11-2019 14:00:00 12.96667 C 8.63 g/m*3 12.97 C 7.375 km/h
879 27-11-2019 15:00:00 12.8 C 8.56 g/m*3 12.8 C 12.21667 km/h
880 27-11-2019 16:00:00 11.73333 C 8.77 g/m*3 11.73 C 4.95 km/h
881 27-11-2019 17:00:00 10.73333 C 8.89 g/m*3 10.73 C 4.275 km/h
882 27-11-2019 18:00:00 10.70833 C 8.97 g/m*3 10.49 C 5.225 km/h
883 27-11-2019 19:00:00 10.75 C 9.05 g/m*3 9.96 C 7.65 km/h
884 27-11-2019 20:00:00 11.26667 C 8.94 g/m*3 11.27 C 8.99167 km/h
885 27-11-2019 21:00:00 10.76667 C 9.02 g/m*3 9.7 C 9.125 km/h
886 27-11-2019 22:00:00 11.29167 C 8.86 g/m*3 11.29 C 16.375 km/h
887 27-11-2019 23:00:00 11.6 C 8.61 g/m*3 11.6 C 17.175 km/h
888 28-11-2019 00:00:00 11.575 C 8.47 g/m*3 11.58 C 19.7 km/h
889 28-11-2019 01:00:00 11.61667 C 8.43 g/m*3 11.62 C 23.46667 km/h
890 28-11-2019 02:00:00 11.20833 C 8.36 g/m*3 11.21 C 21.19167 km/h
891 28-11-2019 03:00:00 11.05 C 8.04 g/m*3 11.05 C 19.70833 km/h
892 28-11-2019 04:00:00 10.96667 C 7.93 g/m*3 8.7 C 18.9 km/h
893 28-11-2019 05:00:00 10.66667 C 7.96 g/m*3 8.31 C 19.04167 km/h
894 28-11-2019 06:00:00 10.66667 C 8.14 g/m*3 8.57 C 16.5 km/h
895 28-11-2019 07:00:00 10.60833 C 7.98 g/m*3 8.38 C 17.56667 km/h
896 28-11-2019 08:00:00 10.58333 C 7.94 g/m*3 8.28 C 18.24167 km/h
897 28-11-2019 09:00:00 11.025 C 8.03 g/m*3 11.03 C 16.23333 km/h
898 28-11-2019 10:00:00 11.58333 C 8.06 g/m*3 11.58 C 17.7 km/h
899 28-11-2019 11:00:00 11.95833 C 8.23 g/m*3 11.96 C 20.76667 km/h
900 28-11-2019 12:00:00 11.49167 C 8.53 g/m*3 11.49 C 19.16667 km/h
Sensor: Nr:Datum:Temp:Abs-Feuchte:Windchill:Wind:
Aussen-T/F 901 28-11-2019 13:00:00 11.7 C 8.66 g/m*3 11.7 C 17.7 km/h
902 28-11-2019 14:00:00 11.45 C 8.57 g/m*3 11.45 C 15.03333 km/h
903 28-11-2019 15:00:00 11.16667 C 8.46 g/m*3 11.17 C 15.03333 km/h
904 28-11-2019 16:00:00 10.83333 C 8.42 g/m*3 8.89 C 15.44167 km/h
905 28-11-2019 17:00:00 10.41667 C 8.55 g/m*3 8.64 C 13.3 km/h
906 28-11-2019 18:00:00 10.43333 C 8.46 g/m*3 8.56 C 14.1 km/h
907 28-11-2019 19:00:00 10.41667 C 8.44 g/m*3 8.92 C 11.29167 km/h
908 28-11-2019 20:00:00 10.31667 C 8.51 g/m*3 8.84 C 11.03333 km/h
909 28-11-2019 21:00:00 10.33333 C 8.49 g/m*3 8.69 C 12.23333 km/h
910 28-11-2019 22:00:00 10.19167 C 8.54 g/m*3 8.63 C 11.425 km/h
911 28-11-2019 23:00:00 10.00833 C 8.53 g/m*3 9.12 C 7.50833 km/h
912 29-11-2019 00:00:00 9.44167 C 8.49 g/m*3 8.86 C 5.89167 km/h
913 29-11-2019 01:00:00 9.05 C 8.36 g/m*3 9.05 C 2.93333 km/h
914 29-11-2019 02:00:00 8.825 C 8.3 g/m*3 8.82 C 0 km/h
915 29-11-2019 03:00:00 8.58333 C 8.23 g/m*3 8.58 C 0.26667 km/h
916 29-11-2019 04:00:00 8.21667 C 8.04 g/m*3 8.22 C 2.15 km/h
917 29-11-2019 05:00:00 7.15 C 7.34 g/m*3 7.15 C 4.55 km/h
918 29-11-2019 06:00:00 6.79167 C 7.26 g/m*3 6.79 C 2.80833 km/h
919 29-11-2019 07:00:00 6.38333 C 7.01 g/m*3 6.38 C 2.00833 km/h
920 29-11-2019 08:00:00 5.95833 C 6.88 g/m*3 5.96 C 0.4 km/h
921 29-11-2019 09:00:00 5.525 C 6.68 g/m*3 5.53 C 1.73333 km/h
922 29-11-2019 10:00:00 5.73333 C 6.69 g/m*3 5.73 C 3.06667 km/h
923 29-11-2019 11:00:00 6.45833 C 6.76 g/m*3 6.46 C 4.00833 km/h
924 29-11-2019 12:00:00 7.34167 C 6.65 g/m*3 5.26 C 11.01667 km/h
925 29-11-2019 13:00:00 6.99167 C 6.45 g/m*3 6 C 6.04167 km/h
Sensor: Nr:Datum:Temp:Abs-Feuchte:Windchill:Wind:
Aussen-T/F 926 29-11-2019 14:00:00 7.49167 C 6.11 g/m*3 6.08 C 7.925 km/h
927 29-11-2019 15:00:00 7.675 C 5.92 g/m*3 5.94 C 9.55 km/h
928 29-11-2019 16:00:00 6.63333 C 5.89 g/m*3 6.63 C 4.00833 km/h
929 29-11-2019 17:00:00 4.95833 C 5.73 g/m*3 4.96 C 3.33333 km/h
930 29-11-2019 18:00:00 4.88333 C 5.86 g/m*3 4.88 C 1.46667 km/h
931 29-11-2019 19:00:00 5.13333 C 5.83 g/m*3 5.13 C 2.53333 km/h
932 29-11-2019 20:00:00 4.80833 C 5.8 g/m*3 4.81 C 3.46667 km/h
933 29-11-2019 21:00:00 4.55833 C 5.8 g/m*3 4.56 C 2.8 km/h
934 29-11-2019 22:00:00 3.55 C 5.55 g/m*3 3.55 C 0.93333 km/h
935 29-11-2019 23:00:00 2.56667 C 5.34 g/m*3 2.57 C 1.2 km/h
936 30-11-2019 00:00:00 2.60833 C 5.44 g/m*3 2.61 C 1.33333 km/h
937 30-11-2019 01:00:00 1.975 C 5.21 g/m*3 1.98 C 0.66667 km/h
938 30-11-2019 02:00:00 1.725 C 5.18 g/m*3 1.73 C 0.4 km/h
939 30-11-2019 03:00:00 1.51667 C 5.11 g/m*3 1.52 C 0.93333 km/h
940 30-11-2019 04:00:00 1.93333 C 5.29 g/m*3 1.93 C 2.93333 km/h
941 30-11-2019 05:00:00 1.35 C 5.05 g/m*3 1.35 C 0.93333 km/h
942 30-11-2019 06:00:00 0.18333 C 4.66 g/m*3 0.18 C 0.13333 km/h
943 30-11-2019 07:00:00 -0.19167 C 4.57 g/m*3 -0.19 C 0.26667 km/h
944 30-11-2019 08:00:00 0.14167 C 4.7 g/m*3 0.14 C 0 km/h
945 30-11-2019 09:00:00 0.18333 C 4.71 g/m*3 0.18 C 0.53333 km/h
946 30-11-2019 10:00:00 0.55 C 4.88 g/m*3 0.55 C 1.6 km/h
947 30-11-2019 11:00:00 0.89167 C 5 g/m*3 0.89 C 2.26667 km/h
948 30-11-2019 12:00:00 1.35 C 5.16 g/m*3 1.35 C 0.66667 km/h
949 30-11-2019 13:00:00 2.11667 C 5.43 g/m*3 2.12 C 0.93333 km/h
950 30-11-2019 14:00:00 2.26667 C 5.49 g/m*3 2.27 C 2.13333 km/h
Sensor: Nr:Datum:Temp:Abs-Feuchte:Windchill:Wind:
Aussen-T/F 951 30-11-2019 15:00:00 2.19167 C 5.46 g/m*3 2.19 C 1.2 km/h
952 30-11-2019 16:00:00 1.99167 C 5.39 g/m*3 1.99 C 0 km/h
953 30-11-2019 17:00:00 1.525 C 5.22 g/m*3 1.53 C 0 km/h
954 30-11-2019 18:00:00 1.05833 C 5.05 g/m*3 1.06 C 0 km/h
955 30-11-2019 19:00:00 0.79167 C 4.96 g/m*3 0.79 C 0 km/h
956 30-11-2019 20:00:00 0.65 C 4.92 g/m*3 0.65 C 0 km/h
957 30-11-2019 21:00:00 0.58333 C 4.89 g/m*3 0.58 C 0.26667 km/h
958 30-11-2019 22:00:00 0.66667 C 4.92 g/m*3 0.67 C 0.53333 km/h
959 30-11-2019 23:00:00 0.63333 C 4.91 g/m*3 0.63 C 1.2 km/h
960 01-12-2019 00:00:00 0.6 C 4.91 g/m*3 0.6 C 0.26667 km/h
961 01-12-2019 01:00:00 0.75833 C 5 g/m*3 0.76 C 0.26667 km/h
962 01-12-2019 02:00:00 0.63333 C 4.95 g/m*3 0.63 C 0.53333 km/h
963 01-12-2019 03:00:00 0.5 C 4.86 g/m*3 0.5 C 0.93333 km/h
964 01-12-2019 04:00:00 0.10833 C 4.76 g/m*3 0.11 C 0 km/h
965 01-12-2019 05:00:00 0.1 C 4.78 g/m*3 0.1 C 0.13333 km/h
966 01-12-2019 06:00:00 -0.025 C 4.71 g/m*3 -0.03 C 0.4 km/h
967 01-12-2019 07:00:00 0.35 C 4.86 g/m*3 0.35 C 2.53333 km/h
968 01-12-2019 08:00:00 0.70833 C 4.99 g/m*3 0.71 C 1.06667 km/h
969 01-12-2019 09:00:00 0.84167 C 5.03 g/m*3 0.84 C 0.26667 km/h
970 01-12-2019 10:00:00 1.275 C 5.18 g/m*3 1.27 C 0.13333 km/h
971 01-12-2019 11:00:00 2.1 C 5.48 g/m*3 2.1 C 3.075 km/h
972 01-12-2019 12:00:00 2.975 C 5.48 g/m*3 1.69 C 5.23333 km/h
973 01-12-2019 13:00:00 3.75833 C 5.24 g/m*3 3.76 C 2.13333 km/h
974 01-12-2019 14:00:00 4.20833 C 5.11 g/m*3 4.21 C 0.93333 km/h
975 01-12-2019 15:00:00 3.98333 C 5.33 g/m*3 3.98 C 0 km/h
Sensor: Nr:Datum:Temp:Abs-Feuchte:Windchill:Wind:
Aussen-T/F 976 01-12-2019 16:00:00 3.16667 C 5.21 g/m*3 3.17 C 0 km/h
977 01-12-2019 17:00:00 2.81667 C 5.2 g/m*3 2.82 C 0 km/h
978 01-12-2019 18:00:00 2.8 C 5.19 g/m*3 2.8 C 0 km/h
979 01-12-2019 19:00:00 2.86667 C 5.2 g/m*3 2.87 C 0 km/h
980 01-12-2019 20:00:00 2.725 C 5.14 g/m*3 2.73 C 0 km/h
981 01-12-2019 21:00:00 2.45 C 5.06 g/m*3 2.45 C 0.13333 km/h
982 01-12-2019 22:00:00 1.99167 C 4.95 g/m*3 1.99 C 0 km/h
983 01-12-2019 23:00:00 1.33333 C 4.8 g/m*3 1.33 C 0.26667 km/h
984 02-12-2019 00:00:00 0.775 C 4.7 g/m*3 0.78 C 0.66667 km/h
985 02-12-2019 01:00:00 0.63333 C 4.71 g/m*3 0.63 C 0.4 km/h
986 02-12-2019 02:00:00 0.09167 C 4.53 g/m*3 0.09 C 1.6 km/h
987 02-12-2019 03:00:00 -0.36667 C 4.41 g/m*3 -0.37 C 2.13333 km/h
988 02-12-2019 04:00:00 -0.44167 C 4.44 g/m*3 -0.44 C 0.53333 km/h
989 02-12-2019 05:00:00 -0.35 C 4.48 g/m*3 -0.35 C 0.26667 km/h
990 02-12-2019 06:00:00 -0.6 C 4.42 g/m*3 -0.6 C 1.06667 km/h
991 02-12-2019 07:00:00 -1.15833 C 4.24 g/m*3 -1.16 C 0.26667 km/h
992 02-12-2019 08:00:00 -0.65 C 4.43 g/m*3 -0.65 C 1.06667 km/h
993 02-12-2019 09:00:00 0.26667 C 4.71 g/m*3 0.27 C 4.26667 km/h
994 02-12-2019 10:00:00 0.85 C 4.84 g/m*3 -0.66 C 5.08333 km/h
995 02-12-2019 11:00:00 1.58333 C 4.99 g/m*3 1.58 C 4.41667 km/h
996 02-12-2019 12:00:00 2.78333 C 5.31 g/m*3 2.78 C 4.69167 km/h
997 02-12-2019 13:00:00 3.95 C 5.54 g/m*3 2.76 C 5.34167 km/h
998 02-12-2019 14:00:00 4.725 C 5.91 g/m*3 4.72 C 4.55 km/h
999 02-12-2019 15:00:00 5.19167 C 6.12 g/m*3 5.19 C 1.2 km/h
1000 02-12-2019 16:00:00 4.675 C 6.12 g/m*3 4.68 C 2.8 km/h
Sensor: Nr:Datum:Temp:Abs-Feuchte:Windchill:Wind:
Aussen-T/F 1001 02-12-2019 17:00:00 4.20833 C 6 g/m*3 4.21 C 1.6 km/h
1002 02-12-2019 18:00:00 3.875 C 5.88 g/m*3 3.88 C 0.53333 km/h
1003 02-12-2019 19:00:00 3.425 C 5.78 g/m*3 3.43 C 0.93333 km/h
1004 02-12-2019 20:00:00 3.7 C 5.92 g/m*3 3.7 C 1.73333 km/h
1005 02-12-2019 21:00:00 3.63333 C 5.89 g/m*3 3.63 C 4.825 km/h
1006 02-12-2019 22:00:00 3.475 C 5.89 g/m*3 3.48 C 4.40833 km/h
1007 02-12-2019 23:00:00 3.4 C 5.86 g/m*3 3.4 C 3.475 km/h
1008 03-12-2019 00:00:00 3.40833 C 5.87 g/m*3 1.52 C 7.11667 km/h
1009 03-12-2019 01:00:00 3.55833 C 5.93 g/m*3 3.56 C 4.80833 km/h
1010 03-12-2019 02:00:00 3.71667 C 5.99 g/m*3 3.72 C 2.00833 km/h
1011 03-12-2019 03:00:00 3.8 C 6.04 g/m*3 2.63 C 5.21667 km/h
1012 03-12-2019 04:00:00 3.89167 C 6.11 g/m*3 2.26 C 6.56667 km/h
1013 03-12-2019 05:00:00 4.01667 C 6.17 g/m*3 4.02 C 4.275 km/h
1014 03-12-2019 06:00:00 4.1 C 6.21 g/m*3 4.1 C 1.73333 km/h
1015 03-12-2019 07:00:00 4.19167 C 6.25 g/m*3 4.19 C 4.00833 km/h
1016 03-12-2019 08:00:00 4.23333 C 6.26 g/m*3 2.97 C 5.625 km/h
1017 03-12-2019 09:00:00 4.35 C 6.31 g/m*3 4.35 C 4.94167 km/h
1018 03-12-2019 10:00:00 4.61667 C 6.43 g/m*3 3.46 C 5.49167 km/h
1019 03-12-2019 11:00:00 5.11667 C 6.64 g/m*3 5.12 C 3.2 km/h
1020 03-12-2019 12:00:00 5.6 C 6.86 g/m*3 5.6 C 3.46667 km/h
1021 03-12-2019 13:00:00 6.06667 C 7 g/m*3 6.07 C 4.26667 km/h
1022 03-12-2019 14:00:00 6.51667 C 7.13 g/m*3 6.52 C 1.06667 km/h
1023 03-12-2019 15:00:00 6.675 C 7.13 g/m*3 6.68 C 0 km/h
1024 03-12-2019 16:00:00 6.46667 C 7.07 g/m*3 6.47 C 0 km/h
1025 03-12-2019 17:00:00 5.98333 C 6.89 g/m*3 5.98 C 0 km/h
Sensor: Nr:Datum:Temp:Abs-Feuchte:Windchill:Wind:
Aussen-T/F 1026 03-12-2019 18:00:00 5.56667 C 6.71 g/m*3 5.57 C 0 km/h
1027 03-12-2019 19:00:00 5.29167 C 6.62 g/m*3 5.29 C 0.66667 km/h
1028 03-12-2019 20:00:00 4.93333 C 6.48 g/m*3 4.93 C 0 km/h
1029 03-12-2019 21:00:00 4.6 C 6.34 g/m*3 4.6 C 0 km/h
1030 03-12-2019 22:00:00 4.00833 C 6.09 g/m*3 4.01 C 2.4 km/h
1031 03-12-2019 23:00:00 3.46667 C 5.87 g/m*3 3.47 C 2.93333 km/h
1032 04-12-2019 00:00:00 2.41667 C 5.43 g/m*3 2.42 C 0.4 km/h
1033 04-12-2019 01:00:00 1.24167 C 5.04 g/m*3 1.24 C 0 km/h
1034 04-12-2019 02:00:00 0.90833 C 4.95 g/m*3 0.91 C 0 km/h
1035 04-12-2019 03:00:00 1.64167 C 5.26 g/m*3 1.64 C 0 km/h
1036 04-12-2019 04:00:00 1.74167 C 5.3 g/m*3 1.74 C 0 km/h
1037 04-12-2019 05:00:00 1.74167 C 5.3 g/m*3 1.74 C 0 km/h
1038 04-12-2019 06:00:00 1.93333 C 5.37 g/m*3 1.93 C 0.26667 km/h
1039 04-12-2019 07:00:00 1.81667 C 5.32 g/m*3 1.82 C 0.26667 km/h
1040 04-12-2019 08:00:00 1.725 C 5.29 g/m*3 1.73 C 0.13333 km/h
1041 04-12-2019 09:00:00 1.8 C 5.32 g/m*3 1.8 C 1.06667 km/h
1042 04-12-2019 10:00:00 1.83333 C 5.33 g/m*3 1.83 C 1.33333 km/h
1043 04-12-2019 11:00:00 1.83333 C 5.32 g/m*3 1.83 C 0 km/h
1044 04-12-2019 12:00:00 2.15 C 5.45 g/m*3 2.15 C 0.4 km/h
1045 04-12-2019 13:00:00 2.51667 C 5.58 g/m*3 2.52 C 1.46667 km/h
1046 04-12-2019 14:00:00 2.825 C 5.68 g/m*3 2.83 C 2.26667 km/h
1047 04-12-2019 15:00:00 2.58333 C 5.55 g/m*3 2.58 C 0 km/h
1048 04-12-2019 16:00:00 2.025 C 5.32 g/m*3 2.03 C 1.06667 km/h
1049 04-12-2019 17:00:00 1.43333 C 5.12 g/m*3 1.43 C 0 km/h
1050 04-12-2019 18:00:00 1.10833 C 5.01 g/m*3 1.11 C 0 km/h
Sensor: Nr:Datum:Temp:Abs-Feuchte:Windchill:Wind:
Aussen-T/F 1051 04-12-2019 19:00:00 0.41667 C 4.77 g/m*3 0.42 C 0 km/h
1052 04-12-2019 20:00:00 -0.08333 C 4.62 g/m*3 -0.08 C 0.4 km/h
1053 04-12-2019 21:00:00 -0.58333 C 4.47 g/m*3 -0.58 C 0.26667 km/h
1054 04-12-2019 22:00:00 -1.23333 C 4.27 g/m*3 -1.23 C 0 km/h
1055 04-12-2019 23:00:00 -1.54167 C 4.18 g/m*3 -1.54 C 0 km/h
1056 05-12-2019 00:00:00 -1.775 C 4.11 g/m*3 -1.78 C 0.13333 km/h
1057 05-12-2019 01:00:00 -1.78333 C 4.13 g/m*3 -1.78 C 0.13333 km/h
1058 05-12-2019 02:00:00 -1.86667 C 4.12 g/m*3 -1.87 C 0 km/h
1059 05-12-2019 03:00:00 -2.225 C 4 g/m*3 -2.23 C 0.66667 km/h
1060 05-12-2019 04:00:00 -1.84167 C 4.13 g/m*3 -1.84 C 1.06667 km/h
1061 05-12-2019 05:00:00 -1.75833 C 4.16 g/m*3 -1.76 C 0.4 km/h
1062 05-12-2019 06:00:00 -1.83333 C 4.14 g/m*3 -1.83 C 0.13333 km/h
1063 05-12-2019 07:00:00 -2.03333 C 4.08 g/m*3 -2.03 C 0.26667 km/h
1064 05-12-2019 08:00:00 -2.075 C 4.07 g/m*3 -2.08 C 0.13333 km/h
1065 05-12-2019 09:00:00 -1.81667 C 4.14 g/m*3 -1.82 C 1.2 km/h
1066 05-12-2019 10:00:00 -1.575 C 4.21 g/m*3 -1.58 C 1.06667 km/h
1067 05-12-2019 11:00:00 -0.94167 C 4.4 g/m*3 -0.94 C 2.13333 km/h
1068 05-12-2019 12:00:00 -0.44167 C 4.56 g/m*3 -0.44 C 1.46667 km/h
1069 05-12-2019 13:00:00 0 C 4.7 g/m*3 0 C 3.06667 km/h
1070 05-12-2019 14:00:00 0.6 C 4.9 g/m*3 0.6 C 2.4 km/h
1071 05-12-2019 15:00:00 0.675 C 4.92 g/m*3 0.68 C 1.6 km/h
1072 05-12-2019 16:00:00 0.29167 C 4.8 g/m*3 0.29 C 0 km/h
1073 05-12-2019 17:00:00 -0.225 C 4.63 g/m*3 -0.23 C 0 km/h
1074 05-12-2019 18:00:00 -0.825 C 4.44 g/m*3 -0.83 C 0.26667 km/h
1075 05-12-2019 19:00:00 -1.25833 C 4.31 g/m*3 -1.26 C 1.46667 km/h
Sensor: Nr:Datum:Temp:Abs-Feuchte:Windchill:Wind:
Aussen-T/F 1076 05-12-2019 20:00:00 -0.65833 C 4.5 g/m*3 -0.66 C 3.75 km/h
1077 05-12-2019 21:00:00 -1.16667 C 4.33 g/m*3 -1.17 C 1.86667 km/h
1078 05-12-2019 22:00:00 -1.39167 C 4.27 g/m*3 -1.39 C 1.73333 km/h
1079 05-12-2019 23:00:00 -1.825 C 4.14 g/m*3 -1.83 C 0.8 km/h
1080 06-12-2019 00:00:00 -2.28333 C 4.01 g/m*3 -2.28 C 0.8 km/h
1081 06-12-2019 01:00:00 -1.125 C 4.36 g/m*3 -1.13 C 2.66667 km/h
1082 06-12-2019 02:00:00 -0.575 C 4.52 g/m*3 -2.41 C 5.35833 km/h
1083 06-12-2019 03:00:00 -0.225 C 4.6 g/m*3 -1.89 C 5.09167 km/h
1084 06-12-2019 04:00:00 -0.10833 C 4.6 g/m*3 -0.11 C 3.75 km/h
1085 06-12-2019 05:00:00 0.13333 C 4.65 g/m*3 0.13 C 3.475 km/h
1086 06-12-2019 06:00:00 0.36667 C 4.7 g/m*3 0.37 C 3.48333 km/h
1087 06-12-2019 07:00:00 0.725 C 4.79 g/m*3 0.73 C 4.41667 km/h
1088 06-12-2019 08:00:00 1.31667 C 4.89 g/m*3 1.32 C 4.3 km/h
1089 06-12-2019 09:00:00 1.89167 C 5.11 g/m*3 0.3 C 5.625 km/h
1090 06-12-2019 10:00:00 2.65 C 5.43 g/m*3 2.65 C 2 km/h
1091 06-12-2019 11:00:00 3.86667 C 5.92 g/m*3 2.55 C 5.63333 km/h
1092 06-12-2019 12:00:00 4.7 C 6.23 g/m*3 3.32 C 6.16667 km/h
1093 06-12-2019 13:00:00 4.95833 C 6.44 g/m*3 3.49 C 6.56667 km/h
1094 06-12-2019 14:00:00 5.25833 C 6.57 g/m*3 5.26 C 2.53333 km/h
1095 06-12-2019 15:00:00 5.44167 C 6.65 g/m*3 4.4 C 5.5 km/h
1096 06-12-2019 16:00:00 5.95833 C 6.77 g/m*3 3.76 C 10.20833 km/h
1097 06-12-2019 17:00:00 6.225 C 6.7 g/m*3 4.59 C 7.925 km/h
1098 06-12-2019 18:00:00 6.65 C 6.82 g/m*3 4.51 C 10.61667 km/h
1099 06-12-2019 19:00:00 6.91667 C 6.95 g/m*3 4.01 C 15.7 km/h
1100 06-12-2019 20:00:00 7.28333 C 7.02 g/m*3 3.97 C 19.84167 km/h
Sensor: Nr:Datum:Temp:Abs-Feuchte:Windchill:Wind:
Aussen-T/F 1101 06-12-2019 21:00:00 7.19167 C 7.02 g/m*3 3.73 C 20.90833 km/h
1102 06-12-2019 22:00:00 7.25 C 7.03 g/m*3 4.03 C 18.91667 km/h
1103 06-12-2019 23:00:00 7.44167 C 7.12 g/m*3 5.18 C 12.23333 km/h
1104 07-12-2019 00:00:00 7.65 C 7.27 g/m*3 4.92 C 15.70833 km/h
1105 07-12-2019 01:00:00 8.09167 C 7.49 g/m*3 6.03 C 11.83333 km/h
1106 07-12-2019 02:00:00 8.14167 C 7.7 g/m*3 6.81 C 8.05833 km/h
1107 07-12-2019 03:00:00 8.68333 C 7.9 g/m*3 6.68 C 12.225 km/h
1108 07-12-2019 04:00:00 8.85833 C 7.8 g/m*3 7.65 C 8.05833 km/h
1109 07-12-2019 05:00:00 8.40833 C 7.74 g/m*3 7.41 C 6.85833 km/h
1110 07-12-2019 06:00:00 8.46667 C 7.51 g/m*3 6.89 C 9.53333 km/h
1111 07-12-2019 07:00:00 7.675 C 7.26 g/m*3 6.6 C 6.69167 km/h
1112 07-12-2019 08:00:00 8.35 C 7.6 g/m*3 7.15 C 7.65833 km/h
1113 07-12-2019 09:00:00 8.70833 C 7.77 g/m*3 8.71 C 3.75 km/h
1114 07-12-2019 10:00:00 9.19167 C 7.85 g/m*3 7.93 C 8.6 km/h
1115 07-12-2019 11:00:00 9.38333 C 8.12 g/m*3 8.95 C 5.35 km/h
1116 07-12-2019 12:00:00 9.5 C 7.87 g/m*3 8.21 C 9.025 km/h
1117 07-12-2019 13:00:00 10.025 C 7.76 g/m*3 8.65 C 10.08333 km/h
1118 07-12-2019 14:00:00 10.15 C 7.79 g/m*3 9.44 C 6.84167 km/h
1119 07-12-2019 15:00:00 10.06667 C 7.83 g/m*3 10.07 C 4.00833 km/h
1120 07-12-2019 16:00:00 9.39167 C 7.74 g/m*3 9.39 C 1.33333 km/h
1121 07-12-2019 17:00:00 8.74167 C 7.68 g/m*3 8.74 C 1.2 km/h
1122 07-12-2019 18:00:00 8.40833 C 7.58 g/m*3 8.41 C 1.46667 km/h
1123 07-12-2019 19:00:00 8.25 C 7.65 g/m*3 8.25 C 1.33333 km/h
1124 07-12-2019 20:00:00 8.01667 C 7.53 g/m*3 8.02 C 0.53333 km/h
1125 07-12-2019 21:00:00 8.26667 C 7.6 g/m*3 8.27 C 4.00833 km/h
Sensor: Nr:Datum:Temp:Abs-Feuchte:Windchill:Wind:
Aussen-T/F 1126 07-12-2019 22:00:00 8.39167 C 7.63 g/m*3 8.39 C 1.34167 km/h
1127 07-12-2019 23:00:00 8.2 C 7.65 g/m*3 8.2 C 2.54167 km/h
1128 08-12-2019 00:00:00 8.9 C 7.51 g/m*3 7.7 C 8.05 km/h
1129 08-12-2019 01:00:00 9.15833 C 7.55 g/m*3 8.35 C 6.575 km/h
1130 08-12-2019 02:00:00 9.44167 C 7.31 g/m*3 8.12 C 9.13333 km/h
1131 08-12-2019 03:00:00 9.55 C 7.36 g/m*3 7.9 C 11.14167 km/h
1132 08-12-2019 04:00:00 9.91667 C 7.7 g/m*3 7.68 C 16.1 km/h
1133 08-12-2019 05:00:00 9.89167 C 7.88 g/m*3 7.67 C 15.96667 km/h
1134 08-12-2019 06:00:00 10.08333 C 8.01 g/m*3 7.37 C 21.18333 km/h
1135 08-12-2019 07:00:00 10.425 C 8.05 g/m*3 8.22 C 16.9 km/h
1136 08-12-2019 08:00:00 10.56667 C 8.15 g/m*3 8 C 21.05 km/h
1137 08-12-2019 09:00:00 10.65 C 8.27 g/m*3 7.65 C 26.69167 km/h
1138 08-12-2019 10:00:00 10.75833 C 8.45 g/m*3 7.76 C 27.06667 km/h
1139 08-12-2019 11:00:00 11.01667 C 8.55 g/m*3 11.02 C 22.39167 km/h
1140 08-12-2019 12:00:00 11.54167 C 8.79 g/m*3 11.54 C 21.975 km/h
1141 08-12-2019 13:00:00 11.70833 C 9.05 g/m*3 11.71 C 18.375 km/h
1142 08-12-2019 14:00:00 11.9 C 9.21 g/m*3 11.9 C 16.23333 km/h
1143 08-12-2019 15:00:00 12.09167 C 9.32 g/m*3 12.09 C 15.03333 km/h
1144 08-12-2019 16:00:00 11.79167 C 9.27 g/m*3 11.79 C 15.16667 km/h
1145 08-12-2019 17:00:00 9.35 C 8.27 g/m*3 8.51 C 6.84167 km/h
1146 08-12-2019 18:00:00 8.775 C 8.05 g/m*3 7.78 C 7.09167 km/h
1147 08-12-2019 19:00:00 8.75 C 7.87 g/m*3 7.88 C 6.575 km/h
1148 08-12-2019 20:00:00 8.48333 C 7.78 g/m*3 7.04 C 8.85833 km/h
1149 08-12-2019 21:00:00 8.83333 C 7.59 g/m*3 7.01 C 11.3 km/h
1150 08-12-2019 22:00:00 8.80833 C 7.59 g/m*3 6.49 C 14.625 km/h
Sensor: Nr:Datum:Temp:Abs-Feuchte:Windchill:Wind:
Aussen-T/F 1151 08-12-2019 23:00:00 9.025 C 7.48 g/m*3 6.51 C 16.63333 km/h
1152 09-12-2019 00:00:00 8.75833 C 7.16 g/m*3 6.23 C 16.23333 km/h
1153 09-12-2019 01:00:00 8.575 C 6.96 g/m*3 5.58 C 19.96667 km/h
1154 09-12-2019 02:00:00 7.975 C 6.84 g/m*3 5.34 C 15.56667 km/h
1155 09-12-2019 03:00:00 7.95833 C 6.8 g/m*3 5.27 C 15.96667 km/h
1156 09-12-2019 04:00:00 8.15 C 6.91 g/m*3 5.06 C 19.85 km/h
1157 09-12-2019 05:00:00 7.85833 C 6.54 g/m*3 4.92 C 17.83333 km/h
1158 09-12-2019 06:00:00 7.99167 C 6.62 g/m*3 5.07 C 17.96667 km/h
1159 09-12-2019 07:00:00 8.04167 C 6.83 g/m*3 5.31 C 16.49167 km/h
1160 09-12-2019 08:00:00 8.26667 C 6.83 g/m*3 5.41 C 17.96667 km/h
1161 09-12-2019 09:00:00 8.20833 C 7 g/m*3 5.34 C 17.96667 km/h
1162 09-12-2019 10:00:00 8.30833 C 7.11 g/m*3 5.86 C 14.76667 km/h
1163 09-12-2019 11:00:00 8.54167 C 7.08 g/m*3 6.2 C 14.36667 km/h
1164 09-12-2019 12:00:00 8.5 C 7.09 g/m*3 6.53 C 11.825 km/h
1165 09-12-2019 13:00:00 8.63333 C 7.17 g/m*3 6.42 C 13.56667 km/h
1166 09-12-2019 14:00:00 8.85 C 7.11 g/m*3 6.95 C 11.83333 km/h
1167 09-12-2019 15:00:00 8.15 C 7.08 g/m*3 6.94 C 7.525 km/h
1168 09-12-2019 16:00:00 7.75833 C 6.76 g/m*3 6.24 C 8.60833 km/h
1169 09-12-2019 17:00:00 7.425 C 6.89 g/m*3 7.43 C 4.80833 km/h
1170 09-12-2019 18:00:00 6.84167 C 6.97 g/m*3 5.91 C 5.76667 km/h
1171 09-12-2019 19:00:00 6.58333 C 6.98 g/m*3 4.76 C 8.99167 km/h
1172 09-12-2019 20:00:00 6.575 C 6.88 g/m*3 3.76 C 14.5 km/h
1173 09-12-2019 21:00:00 6.24167 C 6.67 g/m*3 4.07 C 10.35 km/h
1174 09-12-2019 22:00:00 5.75 C 6.35 g/m*3 3.43 C 10.61667 km/h
1175 09-12-2019 23:00:00 5.39167 C 6.13 g/m*3 3.26 C 9.40833 km/h
Sensor: Nr:Datum:Temp:Abs-Feuchte:Windchill:Wind:
Aussen-T/F 1176 10-12-2019 00:00:00 4.79167 C 5.85 g/m*3 3.43 C 6.16667 km/h
1177 10-12-2019 01:00:00 3.8 C 5.61 g/m*3 3.8 C 3.33333 km/h
1178 10-12-2019 02:00:00 3.38333 C 5.49 g/m*3 3.38 C 3.60833 km/h
1179 10-12-2019 03:00:00 2.64167 C 5.37 g/m*3 2.64 C 2 km/h
1180 10-12-2019 04:00:00 2.025 C 5.21 g/m*3 2.03 C 1.33333 km/h
1181 10-12-2019 05:00:00 2.275 C 5.35 g/m*3 2.28 C 2.8 km/h
1182 10-12-2019 06:00:00 2.05833 C 5.24 g/m*3 2.06 C 2.93333 km/h
1183 10-12-2019 07:00:00 2.075 C 5.28 g/m*3 2.08 C 2.66667 km/h
1184 10-12-2019 08:00:00 1.56667 C 5.1 g/m*3 1.57 C 2.4 km/h
1185 10-12-2019 09:00:00 1.95833 C 5.26 g/m*3 1.96 C 2.66667 km/h
1186 10-12-2019 10:00:00 3.13333 C 5.62 g/m*3 3.13 C 2.40833 km/h
1187 10-12-2019 11:00:00 3.35833 C 5.66 g/m*3 2.02 C 5.49167 km/h
1188 10-12-2019 12:00:00 4.475 C 5.89 g/m*3 1.84 C 10.88333 km/h
1189 10-12-2019 13:00:00 5.21667 C 6.04 g/m*3 3.7 C 6.85833 km/h
1190 10-12-2019 14:00:00 5.00833 C 5.93 g/m*3 5.01 C 3.60833 km/h
1191 10-12-2019 15:00:00 4.13333 C 5.71 g/m*3 4.13 C 3.2 km/h
1192 10-12-2019 16:00:00 3.84167 C 5.58 g/m*3 3.84 C 3.88333 km/h
1193 10-12-2019 17:00:00 3.675 C 5.35 g/m*3 3.68 C 4.95 km/h
1194 10-12-2019 18:00:00 2.98333 C 5.26 g/m*3 2.98 C 0.4 km/h
1195 10-12-2019 19:00:00 2.44167 C 5.23 g/m*3 2.44 C 0.26667 km/h
1196 10-12-2019 20:00:00 3.10833 C 5.41 g/m*3 3.11 C 2.94167 km/h
1197 10-12-2019 21:00:00 3.18333 C 5.42 g/m*3 3.18 C 0.66667 km/h
1198 10-12-2019 22:00:00 3.08333 C 5.46 g/m*3 3.08 C 1.73333 km/h
1199 10-12-2019 23:00:00 3.725 C 5.63 g/m*3 3.73 C 1.06667 km/h
1200 11-12-2019 00:00:00 4.05833 C 5.66 g/m*3 4.06 C 1.2 km/h
Sensor: Nr:Datum:Temp:Abs-Feuchte:Windchill:Wind:
Aussen-T/F 1201 11-12-2019 01:00:00 4.275 C 5.66 g/m*3 4.28 C 0.93333 km/h
1202 11-12-2019 02:00:00 4.08333 C 5.73 g/m*3 4.08 C 1.33333 km/h
1203 11-12-2019 03:00:00 4.08333 C 5.77 g/m*3 4.08 C 1.33333 km/h
1204 11-12-2019 04:00:00 3.81667 C 5.78 g/m*3 3.82 C 0.93333 km/h
1205 11-12-2019 05:00:00 3.69167 C 5.83 g/m*3 3.69 C 0 km/h
1206 11-12-2019 06:00:00 3.425 C 5.81 g/m*3 3.43 C 0 km/h
1207 11-12-2019 07:00:00 3.33333 C 5.78 g/m*3 3.33 C 0 km/h
1208 11-12-2019 08:00:00 3.25833 C 5.79 g/m*3 3.26 C 0 km/h
1209 11-12-2019 09:00:00 3.26667 C 5.81 g/m*3 3.27 C 0 km/h
1210 11-12-2019 10:00:00 3.54167 C 5.92 g/m*3 3.54 C 0 km/h
1211 11-12-2019 11:00:00 3.75833 C 6.01 g/m*3 3.76 C 0 km/h
1212 11-12-2019 12:00:00 3.9 C 6.06 g/m*3 3.9 C 0 km/h
1213 11-12-2019 13:00:00 3.93333 C 6.08 g/m*3 3.93 C 0 km/h
1214 11-12-2019 14:00:00 4.09167 C 6.14 g/m*3 4.09 C 0 km/h
1215 11-12-2019 15:00:00 4.2 C 6.19 g/m*3 4.2 C 0 km/h
1216 11-12-2019 16:00:00 4.11667 C 6.16 g/m*3 4.12 C 0 km/h
1217 11-12-2019 17:00:00 3.91667 C 6.07 g/m*3 3.92 C 0.26667 km/h
1218 11-12-2019 18:00:00 4.13333 C 6.22 g/m*3 4.13 C 0 km/h
1219 11-12-2019 19:00:00 4.35 C 6.31 g/m*3 4.35 C 0 km/h
1220 11-12-2019 20:00:00 4.60833 C 6.42 g/m*3 4.61 C 2.15 km/h
1221 11-12-2019 21:00:00 4.75833 C 6.49 g/m*3 2.41 C 9.81667 km/h
1222 11-12-2019 22:00:00 4.525 C 6.35 g/m*3 2.67 C 7.65 km/h
1223 11-12-2019 23:00:00 4.225 C 6.21 g/m*3 4.22 C 2.93333 km/h
1224 12-12-2019 00:00:00 3.69167 C 6.01 g/m*3 3.69 C 0.8 km/h
1225 12-12-2019 01:00:00 3.36667 C 5.9 g/m*3 3.37 C 1.73333 km/h
Sensor: Nr:Datum:Temp:Abs-Feuchte:Windchill:Wind:
Aussen-T/F 1226 12-12-2019 02:00:00 2.83333 C 5.7 g/m*3 2.83 C 0 km/h
1227 12-12-2019 03:00:00 3.29167 C 5.88 g/m*3 3.29 C 0.8 km/h
1228 12-12-2019 04:00:00 3.69167 C 6.04 g/m*3 3.69 C 0 km/h
1229 12-12-2019 05:00:00 3.175 C 5.84 g/m*3 3.18 C 0 km/h
1230 12-12-2019 06:00:00 2.95 C 5.75 g/m*3 2.95 C 0.53333 km/h
1231 12-12-2019 07:00:00 3.75 C 6.1 g/m*3 3.75 C 0 km/h
1232 12-12-2019 08:00:00 4.025 C 6.21 g/m*3 4.03 C 0 km/h
1233 12-12-2019 09:00:00 4.525 C 6.45 g/m*3 4.53 C 0.8 km/h
1234 12-12-2019 10:00:00 4.80833 C 6.56 g/m*3 3.63 C 5.625 km/h
1235 12-12-2019 11:00:00 4.9 C 6.51 g/m*3 3.47 C 6.43333 km/h
1236 12-12-2019 12:00:00 5.2 C 6.35 g/m*3 3.36 C 8.05 km/h
1237 12-12-2019 13:00:00 5.14167 C 6.05 g/m*3 3.22 C 8.33333 km/h
1238 12-12-2019 14:00:00 5.14167 C 5.87 g/m*3 3.96 C 5.775 km/h
1239 12-12-2019 15:00:00 4.875 C 5.86 g/m*3 3.08 C 7.64167 km/h
1240 12-12-2019 16:00:00 4.38333 C 5.66 g/m*3 4.38 C 1.86667 km/h
1241 12-12-2019 17:00:00 2.875 C 5.28 g/m*3 2.88 C 1.06667 km/h
1242 12-12-2019 18:00:00 2.00833 C 5.2 g/m*3 2.01 C 1.46667 km/h
1243 12-12-2019 19:00:00 1.68333 C 5.13 g/m*3 1.68 C 1.06667 km/h
1244 12-12-2019 20:00:00 1.675 C 5.16 g/m*3 1.68 C 1.6 km/h
1245 12-12-2019 21:00:00 2.31667 C 5.31 g/m*3 2.32 C 3.06667 km/h
1246 12-12-2019 22:00:00 1.85833 C 5.1 g/m*3 1.86 C 1.73333 km/h
1247 12-12-2019 23:00:00 2.4 C 5.21 g/m*3 0.99 C 5.35 km/h
1248 13-12-2019 00:00:00 2.38333 C 5.1 g/m*3 0.96 C 5.35833 km/h
1249 13-12-2019 01:00:00 2.78333 C 5.13 g/m*3 0.12 C 9.53333 km/h
1250 13-12-2019 02:00:00 2.9 C 5.13 g/m*3 0.47 C 8.725 km/h
Sensor: Nr:Datum:Temp:Abs-Feuchte:Windchill:Wind:
Aussen-T/F 1251 13-12-2019 03:00:00 2.725 C 5.13 g/m*3 -0.01 C 9.80833 km/h
1252 13-12-2019 04:00:00 2.525 C 5.19 g/m*3 -0.19 C 9.55 km/h
1253 13-12-2019 05:00:00 2.63333 C 5.28 g/m*3 0.85 C 6.43333 km/h
1254 13-12-2019 06:00:00 2.86667 C 5.38 g/m*3 1.52 C 5.35 km/h
1255 13-12-2019 07:00:00 2.85833 C 5.47 g/m*3 1.06 C 6.56667 km/h
1256 13-12-2019 08:00:00 2.83333 C 5.51 g/m*3 1.08 C 6.44167 km/h
1257 13-12-2019 09:00:00 2.8 C 5.53 g/m*3 2.8 C 4.83333 km/h
1258 13-12-2019 10:00:00 3 C 5.65 g/m*3 3 C 0.53333 km/h
1259 13-12-2019 11:00:00 3.35833 C 5.82 g/m*3 3.36 C 0.53333 km/h
1260 13-12-2019 12:00:00 4.09167 C 6.14 g/m*3 4.09 C 0.53333 km/h
1261 13-12-2019 13:00:00 5.2 C 6.66 g/m*3 5.2 C 2.675 km/h
1262 13-12-2019 14:00:00 6.93333 C 7.16 g/m*3 4.13 C 15.03333 km/h
1263 13-12-2019 15:00:00 6.675 C 6.87 g/m*3 3.97 C 13.96667 km/h
1264 13-12-2019 16:00:00 5.96667 C 6.52 g/m*3 3.41 C 12.1 km/h
1265 13-12-2019 17:00:00 5.23333 C 6.33 g/m*3 2.55 C 11.96667 km/h
1266 13-12-2019 18:00:00 4.73333 C 6.25 g/m*3 2.95 C 7.525 km/h
1267 13-12-2019 19:00:00 4.76667 C 6.29 g/m*3 2.19 C 10.88333 km/h
1268 13-12-2019 20:00:00 5.26667 C 6.44 g/m*3 2.49 C 12.49167 km/h
1269 13-12-2019 21:00:00 5.13333 C 6.39 g/m*3 2.95 C 9.40833 km/h
1270 13-12-2019 22:00:00 5.05833 C 6.29 g/m*3 3.26 C 7.79167 km/h
1271 13-12-2019 23:00:00 5.60833 C 6.44 g/m*3 3.1 C 11.43333 km/h
1272 14-12-2019 00:00:00 5.46667 C 6.37 g/m*3 5.47 C 4.28333 km/h
1273 14-12-2019 01:00:00 5.89167 C 6.33 g/m*3 3.47 C 11.28333 km/h
1274 14-12-2019 02:00:00 5.71667 C 6.3 g/m*3 5.72 C 2.53333 km/h
1275 14-12-2019 03:00:00 5.33333 C 6.37 g/m*3 5.33 C 2.93333 km/h
Sensor: Nr:Datum:Temp:Abs-Feuchte:Windchill:Wind:
Aussen-T/F 1276 14-12-2019 04:00:00 4.89167 C 6.31 g/m*3 4.89 C 1.2 km/h
1277 14-12-2019 05:00:00 4.5 C 6.22 g/m*3 4.5 C 1.2 km/h
1278 14-12-2019 06:00:00 5.18333 C 6.6 g/m*3 3.17 C 8.725 km/h
1279 14-12-2019 07:00:00 6.75 C 7.25 g/m*3 4.43 C 11.69167 km/h
1280 14-12-2019 08:00:00 7.4 C 6.97 g/m*3 3.96 C 21.30833 km/h
1281 14-12-2019 09:00:00 7.2 C 6.4 g/m*3 4 C 18.64167 km/h
1282 14-12-2019 10:00:00 7.09167 C 6.52 g/m*3 4.89 C 11.425 km/h
1283 14-12-2019 11:00:00 7.03333 C 6.55 g/m*3 4.05 C 16.5 km/h
1284 14-12-2019 12:00:00 7.58333 C 6 g/m*3 4.16 C 21.58333 km/h
1285 14-12-2019 13:00:00 8.45 C 6.16 g/m*3 5.42 C 19.96667 km/h
1286 14-12-2019 14:00:00 8.76667 C 6.51 g/m*3 5.96 C 18.63333 km/h
1287 14-12-2019 15:00:00 7.825 C 6.95 g/m*3 5.12 C 15.825 km/h
1288 14-12-2019 16:00:00 7.875 C 6.82 g/m*3 4.97 C 17.56667 km/h
1289 14-12-2019 17:00:00 8.03333 C 6.94 g/m*3 5.35 C 16.1 km/h
1290 14-12-2019 18:00:00 7.95833 C 6.92 g/m*3 5.09 C 17.43333 km/h
1291 14-12-2019 19:00:00 7.04167 C 6.53 g/m*3 5.61 C 7.66667 km/h
1292 14-12-2019 20:00:00 6.88333 C 6.45 g/m*3 5.54 C 7.23333 km/h
1293 14-12-2019 21:00:00 7.375 C 6.7 g/m*3 5.1 C 12.23333 km/h
1294 14-12-2019 22:00:00 7.45833 C 6.77 g/m*3 5.26 C 11.825 km/h
1295 14-12-2019 23:00:00 7.73333 C 6.83 g/m*3 5.88 C 10.21667 km/h
1296 15-12-2019 00:00:00 6.84167 C 6.64 g/m*3 6.84 C 2.40833 km/h
1297 15-12-2019 01:00:00 6.325 C 6.64 g/m*3 6.33 C 2.675 km/h
1298 15-12-2019 02:00:00 6.76667 C 6.97 g/m*3 6.77 C 2.14167 km/h
1299 15-12-2019 03:00:00 6.99167 C 7.3 g/m*3 6.99 C 0.66667 km/h
1300 15-12-2019 04:00:00 8.23333 C 8.05 g/m*3 7.51 C 5.75833 km/h
Sensor: Nr:Datum:Temp:Abs-Feuchte:Windchill:Wind:
Aussen-T/F 1301 15-12-2019 05:00:00 9.40833 C 8.53 g/m*3 7.57 C 12.19167 km/h
1302 15-12-2019 06:00:00 10.84167 C 8.67 g/m*3 8.16 C 23.19167 km/h
1303 15-12-2019 07:00:00 11 C 8.51 g/m*3 8.3 C 24 km/h
1304 15-12-2019 08:00:00 11.075 C 8.66 g/m*3 11.08 C 19.71667 km/h
1305 15-12-2019 09:00:00 9.46667 C 8.37 g/m*3 8.18 C 8.99167 km/h
1306 15-12-2019 10:00:00 8.7 C 8.08 g/m*3 8.7 C 4.81667 km/h
1307 15-12-2019 11:00:00 8.75833 C 7.8 g/m*3 7.21 C 9.68333 km/h
1308 15-12-2019 12:00:00 8.625 C 7.56 g/m*3 7.1 C 9.41667 km/h
1309 15-12-2019 13:00:00 9.15 C 7.41 g/m*3 7.31 C 11.83333 km/h
1310 15-12-2019 14:00:00 9.30833 C 7.19 g/m*3 7.42 C 12.35833 km/h
1311 15-12-2019 15:00:00 9.10833 C 6.98 g/m*3 6.91 C 14.23333 km/h
1312 15-12-2019 16:00:00 8.48333 C 6.65 g/m*3 6.42 C 12.35833 km/h
1313 15-12-2019 17:00:00 7.85833 C 6.6 g/m*3 5.96 C 10.625 km/h
1314 15-12-2019 18:00:00 7.65833 C 6.66 g/m*3 6.44 C 7.25833 km/h
1315 15-12-2019 19:00:00 6.325 C 6.55 g/m*3 6.33 C 1.46667 km/h
1316 15-12-2019 20:00:00 5.675 C 6.47 g/m*3 5.68 C 0 km/h
1317 15-12-2019 21:00:00 4.39167 C 6.05 g/m*3 4.39 C 0 km/h
1318 15-12-2019 22:00:00 4.25833 C 6.14 g/m*3 4.26 C 0 km/h
1319 15-12-2019 23:00:00 4.36667 C 6.21 g/m*3 4.37 C 0 km/h
1320 16-12-2019 00:00:00 5 C 6.52 g/m*3 5 C 0.4 km/h
1321 16-12-2019 01:00:00 5.85 C 6.94 g/m*3 5.85 C 2 km/h
1322 16-12-2019 02:00:00 6.44167 C 7.24 g/m*3 6.44 C 0 km/h
1323 16-12-2019 03:00:00 6.65833 C 7.35 g/m*3 6.66 C 0.13333 km/h
1324 16-12-2019 04:00:00 6.875 C 7.46 g/m*3 6.88 C 0.4 km/h
1325 16-12-2019 05:00:00 7.325 C 7.68 g/m*3 7.33 C 1.6 km/h
Sensor: Nr:Datum:Temp:Abs-Feuchte:Windchill:Wind:
Aussen-T/F 1326 16-12-2019 06:00:00 7.64167 C 7.84 g/m*3 7.64 C 1.06667 km/h
1327 16-12-2019 07:00:00 7.575 C 7.8 g/m*3 7.58 C 0.66667 km/h
1328 16-12-2019 08:00:00 7.8 C 7.92 g/m*3 7.8 C 1.06667 km/h
1329 16-12-2019 09:00:00 8.15833 C 8.12 g/m*3 8.16 C 0 km/h
1330 16-12-2019 10:00:00 8.49167 C 8.31 g/m*3 8.49 C 0 km/h
1331 16-12-2019 11:00:00 9.225 C 8.77 g/m*3 9.23 C 0 km/h
1332 16-12-2019 12:00:00 9.8 C 9.09 g/m*3 9.8 C 0 km/h
1333 16-12-2019 13:00:00 10.26667 C 9.37 g/m*3 10.27 C 0 km/h
1334 16-12-2019 14:00:00 10.41667 C 9.37 g/m*3 10.42 C 0.26667 km/h
1335 16-12-2019 15:00:00 10.09167 C 9.17 g/m*3 10.09 C 0.4 km/h
1336 16-12-2019 16:00:00 9.1 C 8.56 g/m*3 9.1 C 2 km/h
1337 16-12-2019 17:00:00 8.15833 C 8.06 g/m*3 8.16 C 1.73333 km/h
1338 16-12-2019 18:00:00 8.35833 C 8.21 g/m*3 8.36 C 4.01667 km/h
1339 16-12-2019 19:00:00 8.7 C 8.33 g/m*3 8.7 C 4.55833 km/h
1340 16-12-2019 20:00:00 8.66667 C 8.27 g/m*3 8.67 C 3.2 km/h
1341 16-12-2019 21:00:00 8.15833 C 7.96 g/m*3 8.16 C 3.20833 km/h
1342 16-12-2019 22:00:00 8.10833 C 7.97 g/m*3 8.11 C 2.93333 km/h
1343 16-12-2019 23:00:00 8.24167 C 8.04 g/m*3 8.24 C 1.73333 km/h
1344 17-12-2019 00:00:00 8.2 C 8 g/m*3 8.2 C 0.8 km/h
1345 17-12-2019 01:00:00 8.09167 C 7.97 g/m*3 8.09 C 1.33333 km/h
1346 17-12-2019 02:00:00 8.11667 C 7.91 g/m*3 8.12 C 2.53333 km/h
1347 17-12-2019 03:00:00 9.125 C 8.28 g/m*3 9.13 C 3.33333 km/h
1348 17-12-2019 04:00:00 9.44167 C 8.25 g/m*3 9.44 C 0.4 km/h
1349 17-12-2019 05:00:00 9.15 C 8.2 g/m*3 9.15 C 0 km/h
1350 17-12-2019 06:00:00 8.53333 C 7.98 g/m*3 8.53 C 0 km/h
Sensor: Nr:Datum:Temp:Abs-Feuchte:Windchill:Wind:
Aussen-T/F 1351 17-12-2019 07:00:00 8.33333 C 7.94 g/m*3 8.33 C 0 km/h
1352 17-12-2019 08:00:00 7.93333 C 7.72 g/m*3 7.93 C 0 km/h
1353 17-12-2019 09:00:00 7.525 C 7.58 g/m*3 7.53 C 0 km/h
1354 17-12-2019 10:00:00 7.51667 C 7.64 g/m*3 7.52 C 0 km/h
1355 17-12-2019 11:00:00 8.95833 C 8.4 g/m*3 8.96 C 0 km/h
1356 17-12-2019 12:00:00 9.98333 C 8.84 g/m*3 9.98 C 0 km/h
1357 17-12-2019 13:00:00 11.10833 C 9.29 g/m*3 11.11 C 0 km/h
1358 17-12-2019 14:00:00 12.41667 C 9.5 g/m*3 12.42 C 1.33333 km/h
1359 17-12-2019 15:00:00 12.54167 C 9.29 g/m*3 12.54 C 2.675 km/h
1360 17-12-2019 16:00:00 12.93333 C 9.18 g/m*3 12.93 C 2.275 km/h
1361 17-12-2019 17:00:00 13 C 8.88 g/m*3 13 C 6.55833 km/h
1362 17-12-2019 18:00:00 14.08333 C 9.39 g/m*3 14.08 C 7.93333 km/h
1363 17-12-2019 19:00:00 13.34167 C 9.63 g/m*3 13.34 C 7.39167 km/h
1364 17-12-2019 20:00:00 12.59167 C 9.83 g/m*3 12.59 C 3.34167 km/h
1365 17-12-2019 21:00:00 11.76667 C 9.58 g/m*3 11.77 C 5.09167 km/h
1366 17-12-2019 22:00:00 13.26667 C 9.58 g/m*3 13.27 C 15.16667 km/h
1367 17-12-2019 23:00:00 12.375 C 9.55 g/m*3 12.38 C 13.425 km/h
1368 18-12-2019 00:00:00 11.4 C 9.26 g/m*3 11.4 C 11.40833 km/h
1369 18-12-2019 01:00:00 11.31667 C 9.1 g/m*3 11.32 C 10.75 km/h
1370 18-12-2019 02:00:00 11.45833 C 9.26 g/m*3 11.46 C 8.85 km/h
1371 18-12-2019 03:00:00 11.19167 C 9.32 g/m*3 11.19 C 2.13333 km/h
1372 18-12-2019 04:00:00 10.53333 C 8.95 g/m*3 10.53 C 4.95833 km/h
1373 18-12-2019 05:00:00 9.69167 C 8.42 g/m*3 9.69 C 0.4 km/h
1374 18-12-2019 06:00:00 8.7 C 8.03 g/m*3 8.7 C 0.4 km/h
1375 18-12-2019 07:00:00 7.99167 C 7.76 g/m*3 7.99 C 0.13333 km/h
Sensor: Nr:Datum:Temp:Abs-Feuchte:Windchill:Wind:
Aussen-T/F 1376 18-12-2019 08:00:00 7.475 C 7.58 g/m*3 7.48 C 0 km/h
1377 18-12-2019 09:00:00 7.29167 C 7.54 g/m*3 7.29 C 0 km/h
1378 18-12-2019 10:00:00 7.79167 C 7.83 g/m*3 7.79 C 0.13333 km/h
1379 18-12-2019 11:00:00 7.60833 C 7.66 g/m*3 7.61 C 1.06667 km/h
1380 18-12-2019 12:00:00 8.43333 C 7.9 g/m*3 7.82 C 5.5 km/h
1381 18-12-2019 13:00:00 8.66667 C 7.8 g/m*3 8.67 C 2 km/h
1382 18-12-2019 14:00:00 8.175 C 7.7 g/m*3 8.18 C 1.2 km/h
1383 18-12-2019 15:00:00 7.55 C 7.48 g/m*3 7.55 C 2.26667 km/h
1384 18-12-2019 16:00:00 6.88333 C 7.22 g/m*3 6.88 C 3.86667 km/h
1385 18-12-2019 17:00:00 5.93333 C 6.79 g/m*3 5.93 C 1.46667 km/h
1386 18-12-2019 18:00:00 5.4 C 6.66 g/m*3 5.4 C 1.06667 km/h
1387 18-12-2019 19:00:00 5.58333 C 6.78 g/m*3 5.58 C 1.33333 km/h
1388 18-12-2019 20:00:00 5.39167 C 6.69 g/m*3 5.39 C 1.46667 km/h
1389 18-12-2019 21:00:00 4.74167 C 6.41 g/m*3 4.74 C 0 km/h
1390 18-12-2019 22:00:00 3.95833 C 6.09 g/m*3 3.96 C 0.13333 km/h
1391 18-12-2019 23:00:00 3.31667 C 5.84 g/m*3 3.32 C 0 km/h
1392 19-12-2019 00:00:00 3.05833 C 5.77 g/m*3 3.06 C 0.13333 km/h
1393 19-12-2019 01:00:00 2.91667 C 5.73 g/m*3 2.92 C 0.4 km/h
1394 19-12-2019 02:00:00 2.875 C 5.72 g/m*3 2.88 C 0 km/h
1395 19-12-2019 03:00:00 2.675 C 5.64 g/m*3 2.68 C 0.26667 km/h
1396 19-12-2019 04:00:00 2.39167 C 5.54 g/m*3 2.39 C 0 km/h
1397 19-12-2019 05:00:00 2.18333 C 5.46 g/m*3 2.18 C 0 km/h
1398 19-12-2019 06:00:00 1.875 C 5.34 g/m*3 1.88 C 0.4 km/h
1399 19-12-2019 07:00:00 3.075 C 5.83 g/m*3 3.08 C 2.26667 km/h
1400 19-12-2019 08:00:00 5.05833 C 6.68 g/m*3 5.06 C 1.46667 km/h
Sensor: Nr:Datum:Temp:Abs-Feuchte:Windchill:Wind:
Aussen-T/F 1401 19-12-2019 09:00:00 5.24167 C 6.77 g/m*3 5.24 C 1.33333 km/h
1402 19-12-2019 10:00:00 6.75833 C 7.47 g/m*3 6.76 C 4.15 km/h
1403 19-12-2019 11:00:00 7.35 C 7.77 g/m*3 7.35 C 2.13333 km/h
1404 19-12-2019 12:00:00 7.59167 C 7.89 g/m*3 7.59 C 1.875 km/h
1405 19-12-2019 13:00:00 7.88333 C 8.04 g/m*3 7.88 C 2.8 km/h
1406 19-12-2019 14:00:00 7.96667 C 8.03 g/m*3 7.97 C 2.8 km/h
1407 19-12-2019 15:00:00 9.23333 C 8.3 g/m*3 7.98 C 8.59167 km/h
1408 19-12-2019 16:00:00 9.61667 C 7.98 g/m*3 8.51 C 8.20833 km/h
1409 19-12-2019 17:00:00 7.6 C 7.17 g/m*3 7.6 C 0.8 km/h
1410 19-12-2019 18:00:00 6.30833 C 6.98 g/m*3 6.31 C 1.86667 km/h
1411 19-12-2019 19:00:00 6.29167 C 7.01 g/m*3 6.29 C 0.53333 km/h
1412 19-12-2019 20:00:00 6.23333 C 7.03 g/m*3 6.23 C 3.74167 km/h
1413 19-12-2019 21:00:00 6.65833 C 7.21 g/m*3 6.66 C 1.86667 km/h
1414 19-12-2019 22:00:00 6.75833 C 7.27 g/m*3 6.76 C 0.53333 km/h
1415 19-12-2019 23:00:00 6.31667 C 7.08 g/m*3 6.32 C 0.26667 km/h
1416 20-12-2019 00:00:00 5.44167 C 6.65 g/m*3 5.44 C 1.46667 km/h
1417 20-12-2019 01:00:00 4.30833 C 6.21 g/m*3 4.31 C 0.93333 km/h
1418 20-12-2019 02:00:00 4 C 6.12 g/m*3 4 C 2.275 km/h
1419 20-12-2019 03:00:00 5.275 C 6.71 g/m*3 4.12 C 5.75833 km/h
1420 20-12-2019 04:00:00 5.36667 C 6.7 g/m*3 5.37 C 2.4 km/h
1421 20-12-2019 05:00:00 6 C 6.94 g/m*3 5.14 C 5.21667 km/h
1422 20-12-2019 06:00:00 6.7 C 6.94 g/m*3 5.15 C 7.925 km/h
1423 20-12-2019 07:00:00 7.35 C 6.91 g/m*3 6.58 C 5.5 km/h
1424 20-12-2019 08:00:00 7.525 C 7.02 g/m*3 7.53 C 1.06667 km/h
1425 20-12-2019 09:00:00 7.375 C 7.13 g/m*3 7.38 C 1.46667 km/h
Sensor: Nr:Datum:Temp:Abs-Feuchte:Windchill:Wind:
Aussen-T/F 1426 20-12-2019 10:00:00 7.06667 C 7.09 g/m*3 7.07 C 1.2 km/h
1427 20-12-2019 11:00:00 7.275 C 7.46 g/m*3 7.28 C 2.55 km/h
1428 20-12-2019 12:00:00 8.375 C 8.05 g/m*3 7.17 C 7.66667 km/h
1429 20-12-2019 13:00:00 9.20833 C 8.44 g/m*3 7.58 C 10.60833 km/h
1430 20-12-2019 14:00:00 9.38333 C 8.46 g/m*3 8.02 C 9.29167 km/h
1431 20-12-2019 15:00:00 9.2 C 8.41 g/m*3 9.2 C 4.94167 km/h
1432 20-12-2019 16:00:00 9.325 C 8.6 g/m*3 9.32 C 4.66667 km/h
1433 20-12-2019 17:00:00 9.79167 C 8.83 g/m*3 9.79 C 4.55833 km/h
1434 20-12-2019 18:00:00 9.66667 C 8.72 g/m*3 8.78 C 7.24167 km/h
1435 20-12-2019 19:00:00 10.18333 C 8.56 g/m*3 8.58 C 11.7 km/h
1436 20-12-2019 20:00:00 9.76667 C 8.1 g/m*3 8.29 C 10.34167 km/h
1437 20-12-2019 21:00:00 9.10833 C 7.7 g/m*3 7.89 C 8.325 km/h
1438 20-12-2019 22:00:00 9.05 C 7.57 g/m*3 7.51 C 9.91667 km/h
1439 20-12-2019 23:00:00 8.84167 C 7.54 g/m*3 8.33 C 5.35 km/h
1440 21-12-2019 00:00:00 8.34167 C 7.42 g/m*3 8.34 C 2.94167 km/h
1441 21-12-2019 01:00:00 8.075 C 7.5 g/m*3 8.07 C 0.4 km/h
1442 21-12-2019 02:00:00 8.34167 C 7.62 g/m*3 8.34 C 3.35 km/h
1443 21-12-2019 03:00:00 8.225 C 7.55 g/m*3 8.23 C 0.66667 km/h
1444 21-12-2019 04:00:00 7.60833 C 7.36 g/m*3 7.61 C 0.8 km/h
1445 21-12-2019 05:00:00 6.69167 C 7.06 g/m*3 6.69 C 2.13333 km/h
1446 21-12-2019 06:00:00 5.60833 C 6.63 g/m*3 5.61 C 1.6 km/h
1447 21-12-2019 07:00:00 4.74167 C 6.32 g/m*3 4.74 C 0 km/h
1448 21-12-2019 08:00:00 4.725 C 6.39 g/m*3 4.72 C 2.00833 km/h
1449 21-12-2019 09:00:00 5.5 C 6.74 g/m*3 5.5 C 1.33333 km/h
1450 21-12-2019 10:00:00 5.85833 C 6.83 g/m*3 5.86 C 0.93333 km/h
Sensor: Nr:Datum:Temp:Abs-Feuchte:Windchill:Wind:
Aussen-T/F 1451 21-12-2019 11:00:00 6.30833 C 7.04 g/m*3 6.31 C 0.26667 km/h
1452 21-12-2019 12:00:00 6.88333 C 7.27 g/m*3 6.88 C 4.55833 km/h
1453 21-12-2019 13:00:00 8.01667 C 7.43 g/m*3 8.02 C 4.56667 km/h
1454 21-12-2019 14:00:00 9.05833 C 7.54 g/m*3 9.06 C 3.74167 km/h
1455 21-12-2019 15:00:00 9.10833 C 7.45 g/m*3 9.11 C 4.425 km/h
1456 21-12-2019 16:00:00 8.325 C 7.39 g/m*3 8.32 C 1.2 km/h
1457 21-12-2019 17:00:00 8.04167 C 7.38 g/m*3 8.04 C 0.53333 km/h
1458 21-12-2019 18:00:00 8.125 C 7.2 g/m*3 8.13 C 4.29167 km/h
1459 21-12-2019 19:00:00 7.875 C 7.12 g/m*3 7.88 C 1.2 km/h
1460 21-12-2019 20:00:00 7.76667 C 7.04 g/m*3 7.77 C 1.2 km/h
1461 21-12-2019 21:00:00 7.13333 C 6.9 g/m*3 7.13 C 1.46667 km/h
1462 21-12-2019 22:00:00 6.56667 C 6.62 g/m*3 5.78 C 5.21667 km/h
1463 21-12-2019 23:00:00 7.03333 C 6.56 g/m*3 5.78 C 6.99167 km/h
1464 22-12-2019 00:00:00 7.48333 C 6.8 g/m*3 5.67 C 9.79167 km/h
1465 22-12-2019 01:00:00 6.98333 C 7.04 g/m*3 6.98 C 4.275 km/h
1466 22-12-2019 02:00:00 6.75 C 7.09 g/m*3 5.85 C 5.63333 km/h
1467 22-12-2019 03:00:00 6.95 C 7.14 g/m*3 6.95 C 4.68333 km/h
1468 22-12-2019 04:00:00 7.06667 C 7.16 g/m*3 7.07 C 3.475 km/h
1469 22-12-2019 05:00:00 6.89167 C 7.08 g/m*3 6.89 C 3.075 km/h
1470 22-12-2019 06:00:00 6.48333 C 7 g/m*3 6.48 C 3.34167 km/h
1471 22-12-2019 07:00:00 6.83333 C 7.22 g/m*3 6.83 C 1.875 km/h
1472 22-12-2019 08:00:00 6.975 C 7.34 g/m*3 6.98 C 1.06667 km/h
1473 22-12-2019 09:00:00 7.29167 C 7.5 g/m*3 7.29 C 2.275 km/h
1474 22-12-2019 10:00:00 8.56667 C 7.98 g/m*3 8.57 C 4.14167 km/h
1475 22-12-2019 11:00:00 10.06667 C 8.22 g/m*3 9.31 C 6.98333 km/h
Sensor: Nr:Datum:Temp:Abs-Feuchte:Windchill:Wind:
Aussen-T/F 1476 22-12-2019 12:00:00 10.70833 C 8.42 g/m*3 9.88 C 7.80833 km/h
1477 22-12-2019 13:00:00 10.95 C 8.36 g/m*3 9.26 C 13.56667 km/h
1478 22-12-2019 14:00:00 11.06667 C 8.24 g/m*3 11.07 C 12.9 km/h
1479 22-12-2019 15:00:00 10.44167 C 8.12 g/m*3 8.08 C 18.50833 km/h
1480 22-12-2019 16:00:00 9.34167 C 7.58 g/m*3 7.02 C 15.69167 km/h
1481 22-12-2019 17:00:00 8.16667 C 7.4 g/m*3 5.68 C 14.76667 km/h
1482 22-12-2019 18:00:00 7.825 C 7.3 g/m*3 5.78 C 11.425 km/h
1483 22-12-2019 19:00:00 7.88333 C 7.41 g/m*3 5.84 C 11.43333 km/h
1484 22-12-2019 20:00:00 8.4 C 7.18 g/m*3 6.12 C 13.7 km/h
1485 22-12-2019 21:00:00 8.34167 C 7.16 g/m*3 6.31 C 11.96667 km/h
1486 22-12-2019 22:00:00 7.85 C 7.07 g/m*3 6.6 C 7.51667 km/h
1487 22-12-2019 23:00:00 7.09167 C 7.02 g/m*3 7.09 C 1.33333 km/h
1488 23-12-2019 00:00:00 7.14167 C 7.12 g/m*3 7.14 C 2.26667 km/h
1489 23-12-2019 01:00:00 7.325 C 7.1 g/m*3 6.39 C 6.03333 km/h
1490 23-12-2019 02:00:00 7.35833 C 7.05 g/m*3 5.95 C 7.79167 km/h
1491 23-12-2019 03:00:00 7.15 C 7.04 g/m*3 5.61 C 8.19167 km/h
1492 23-12-2019 04:00:00 7.25833 C 7.1 g/m*3 6.52 C 5.35833 km/h
1493 23-12-2019 05:00:00 7.23333 C 7.19 g/m*3 6.28 C 6.03333 km/h
1494 23-12-2019 06:00:00 7.21667 C 7.21 g/m*3 6.52 C 5.225 km/h
1495 23-12-2019 07:00:00 7.56667 C 7.36 g/m*3 6.58 C 6.30833 km/h
1496 23-12-2019 08:00:00 7.85833 C 7.35 g/m*3 6.51 C 7.90833 km/h
1497 23-12-2019 09:00:00 8.15833 C 7.37 g/m*3 6.32 C 10.61667 km/h
1498 23-12-2019 10:00:00 7.89167 C 7.48 g/m*3 6.64 C 7.51667 km/h
1499 23-12-2019 11:00:00 8.425 C 7.57 g/m*3 7.03 C 8.6 km/h
1500 23-12-2019 12:00:00 9.28333 C 7.6 g/m*3 8.04 C 8.60833 km/h
Sensor: Nr:Datum:Temp:Abs-Feuchte:Windchill:Wind:
Aussen-T/F 1501 23-12-2019 13:00:00 9.125 C 7.76 g/m*3 8.18 C 7.1 km/h
1502 23-12-2019 14:00:00 9.33333 C 7.67 g/m*3 7.94 C 9.40833 km/h
1503 23-12-2019 15:00:00 9.30833 C 7.58 g/m*3 7.74 C 10.35 km/h
1504 23-12-2019 16:00:00 8.99167 C 7.43 g/m*3 7.44 C 9.95 km/h
1505 23-12-2019 17:00:00 8.49167 C 7.17 g/m*3 7.32 C 7.64167 km/h
1506 23-12-2019 18:00:00 8.18333 C 7.08 g/m*3 7.11 C 7 km/h
1507 23-12-2019 19:00:00 7.575 C 7.03 g/m*3 6.72 C 5.89167 km/h
1508 23-12-2019 20:00:00 7.21667 C 7.05 g/m*3 7.22 C 2.93333 km/h
1509 23-12-2019 21:00:00 7.30833 C 7.12 g/m*3 6.33 C 6.16667 km/h
1510 23-12-2019 22:00:00 6.64167 C 6.86 g/m*3 6.64 C 4.00833 km/h
1511 23-12-2019 23:00:00 5.88333 C 6.55 g/m*3 5.88 C 4.54167 km/h
1512 24-12-2019 00:00:00 6.04167 C 6.76 g/m*3 6.04 C 3.6 km/h
1513 24-12-2019 01:00:00 6.325 C 6.83 g/m*3 6.33 C 3.35 km/h
1514 24-12-2019 02:00:00 6.39167 C 6.87 g/m*3 6.39 C 1.34167 km/h
1515 24-12-2019 03:00:00 6.55833 C 6.8 g/m*3 5.82 C 5.08333 km/h
1516 24-12-2019 04:00:00 5.90833 C 6.64 g/m*3 5.91 C 1.73333 km/h
1517 24-12-2019 05:00:00 5.76667 C 6.64 g/m*3 5.77 C 2.26667 km/h
1518 24-12-2019 06:00:00 5.28333 C 6.48 g/m*3 5.28 C 0.66667 km/h
1519 24-12-2019 07:00:00 5.61667 C 6.65 g/m*3 5.62 C 0.66667 km/h
1520 24-12-2019 08:00:00 6.53333 C 6.86 g/m*3 6.53 C 1.2 km/h
1521 24-12-2019 09:00:00 7.25 C 6.96 g/m*3 7.25 C 4.69167 km/h
1522 24-12-2019 10:00:00 7.34167 C 7.21 g/m*3 7.34 C 2.675 km/h
1523 24-12-2019 11:00:00 7.85833 C 7.56 g/m*3 6.85 C 6.55833 km/h
1524 24-12-2019 12:00:00 8.5 C 7.61 g/m*3 6.1 C 14.76667 km/h
1525 24-12-2019 13:00:00 9.5 C 7.84 g/m*3 7.9 C 10.75833 km/h
Sensor: Nr:Datum:Temp:Abs-Feuchte:Windchill:Wind:
Aussen-T/F 1526 24-12-2019 14:00:00 9.85833 C 7.94 g/m*3 7.92 C 13.56667 km/h
1527 24-12-2019 15:00:00 10.025 C 7.84 g/m*3 8.45 C 11.3 km/h
1528 24-12-2019 16:00:00 10.275 C 7.63 g/m*3 9.04 C 9.54167 km/h
1529 24-12-2019 17:00:00 9.84167 C 7.43 g/m*3 8.07 C 12.36667 km/h
1530 24-12-2019 18:00:00 9.23333 C 7.62 g/m*3 7.9 C 9 km/h
1531 24-12-2019 19:00:00 7.675 C 7.37 g/m*3 5.89 C 9.80833 km/h
1532 24-12-2019 20:00:00 7.26667 C 7.31 g/m*3 5.78 C 8.05833 km/h
1533 24-12-2019 21:00:00 7.85 C 7.44 g/m*3 6.05 C 10.09167 km/h
1534 24-12-2019 22:00:00 8.68333 C 7.47 g/m*3 6.93 C 10.74167 km/h
1535 24-12-2019 23:00:00 8.73333 C 7.61 g/m*3 6.85 C 11.55833 km/h
1536 25-12-2019 00:00:00 8.8 C 7.7 g/m*3 6.67 C 13.3 km/h
1537 25-12-2019 01:00:00 8.4 C 7.73 g/m*3 7.03 C 8.46667 km/h
1538 25-12-2019 02:00:00 8.28333 C 7.69 g/m*3 6.67 C 9.53333 km/h
1539 25-12-2019 03:00:00 8.60833 C 7.83 g/m*3 7.08 C 9.425 km/h
1540 25-12-2019 04:00:00 8.68333 C 7.98 g/m*3 7.95 C 6.025 km/h
1541 25-12-2019 05:00:00 8.5 C 8 g/m*3 8.5 C 4.81667 km/h
1542 25-12-2019 06:00:00 8.06667 C 7.76 g/m*3 8.07 C 1.875 km/h
1543 25-12-2019 07:00:00 7.91667 C 7.6 g/m*3 7.92 C 3.075 km/h
1544 25-12-2019 08:00:00 7.41667 C 7.2 g/m*3 5.22 C 11.81667 km/h
1545 25-12-2019 09:00:00 7.625 C 7.14 g/m*3 6.54 C 6.7 km/h
1546 25-12-2019 10:00:00 7.925 C 7.1 g/m*3 6.75 C 7.24167 km/h
1547 25-12-2019 11:00:00 8.13333 C 7.19 g/m*3 6.44 C 9.81667 km/h
1548 25-12-2019 12:00:00 8.11667 C 7.3 g/m*3 6.11 C 11.54167 km/h
1549 25-12-2019 13:00:00 7.925 C 7.36 g/m*3 6.41 C 8.74167 km/h
1550 25-12-2019 14:00:00 8.05833 C 7.41 g/m*3 6.43 C 9.4 km/h
Sensor: Nr:Datum:Temp:Abs-Feuchte:Windchill:Wind:
Aussen-T/F 1551 25-12-2019 15:00:00 7.975 C 7.41 g/m*3 6.71 C 7.65 km/h
1552 25-12-2019 16:00:00 7.75833 C 7.28 g/m*3 7.76 C 3.75 km/h
1553 25-12-2019 17:00:00 7.25 C 7.05 g/m*3 7.25 C 1.46667 km/h
1554 25-12-2019 18:00:00 6.8 C 6.96 g/m*3 6.8 C 0.93333 km/h
1555 25-12-2019 19:00:00 6.725 C 6.94 g/m*3 6.73 C 1.46667 km/h
1556 25-12-2019 20:00:00 6.64167 C 6.96 g/m*3 6.64 C 2.26667 km/h
1557 25-12-2019 21:00:00 6.33333 C 6.93 g/m*3 6.33 C 1.33333 km/h
1558 25-12-2019 22:00:00 6.05 C 6.91 g/m*3 6.05 C 0.8 km/h
1559 25-12-2019 23:00:00 5.94167 C 6.87 g/m*3 5.94 C 0.66667 km/h
1560 26-12-2019 00:00:00 4.98333 C 6.46 g/m*3 4.98 C 0.4 km/h
1561 26-12-2019 01:00:00 5.11667 C 6.57 g/m*3 5.12 C 1.06667 km/h
1562 26-12-2019 02:00:00 5.075 C 6.56 g/m*3 5.08 C 1.06667 km/h
1563 26-12-2019 03:00:00 4.94167 C 6.5 g/m*3 4.94 C 0.26667 km/h
1564 26-12-2019 04:00:00 4.4 C 6.27 g/m*3 4.4 C 0.66667 km/h
1565 26-12-2019 05:00:00 4.25833 C 6.26 g/m*3 4.26 C 0.13333 km/h
1566 26-12-2019 06:00:00 4.325 C 6.3 g/m*3 4.33 C 0 km/h
1567 26-12-2019 07:00:00 4.325 C 6.3 g/m*3 4.33 C 0 km/h
1568 26-12-2019 08:00:00 4.23333 C 6.26 g/m*3 4.23 C 0 km/h
1569 26-12-2019 09:00:00 4.35 C 6.31 g/m*3 4.35 C 0 km/h
1570 26-12-2019 10:00:00 4.65833 C 6.44 g/m*3 4.66 C 0 km/h
1571 26-12-2019 11:00:00 5.5 C 6.81 g/m*3 5.5 C 0.13333 km/h
1572 26-12-2019 12:00:00 5.89167 C 6.98 g/m*3 5.89 C 0 km/h
1573 26-12-2019 13:00:00 6.26667 C 7.09 g/m*3 6.27 C 0 km/h
1574 26-12-2019 14:00:00 6.275 C 7.06 g/m*3 6.28 C 0 km/h
1575 26-12-2019 15:00:00 6.00833 C 6.9 g/m*3 6.01 C 0 km/h
Sensor: Nr:Datum:Temp:Abs-Feuchte:Windchill:Wind:
Aussen-T/F 1576 26-12-2019 16:00:00 5.34167 C 6.61 g/m*3 5.34 C 0 km/h
1577 26-12-2019 17:00:00 5.03333 C 6.54 g/m*3 5.03 C 0.26667 km/h
1578 26-12-2019 18:00:00 4.81667 C 6.44 g/m*3 4.82 C 0 km/h
1579 26-12-2019 19:00:00 4.74167 C 6.41 g/m*3 4.74 C 0.13333 km/h
1580 26-12-2019 20:00:00 4.71667 C 6.4 g/m*3 4.72 C 0.26667 km/h
1581 26-12-2019 21:00:00 4.79167 C 6.43 g/m*3 4.79 C 0.53333 km/h
1582 26-12-2019 22:00:00 4.89167 C 6.48 g/m*3 4.89 C 0.13333 km/h
1583 26-12-2019 23:00:00 4.9 C 6.48 g/m*3 4.9 C 0.4 km/h
1584 27-12-2019 00:00:00 4.9 C 6.49 g/m*3 4.9 C 0 km/h
1585 27-12-2019 01:00:00 4.91667 C 6.55 g/m*3 4.92 C 0 km/h
1586 27-12-2019 02:00:00 4.98333 C 6.58 g/m*3 4.98 C 0 km/h
1587 27-12-2019 03:00:00 5.08333 C 6.63 g/m*3 5.08 C 0 km/h
1588 27-12-2019 04:00:00 5.15833 C 6.66 g/m*3 5.16 C 0 km/h
1589 27-12-2019 05:00:00 5.2 C 6.68 g/m*3 5.2 C 0 km/h
1590 27-12-2019 06:00:00 5.29167 C 6.72 g/m*3 5.29 C 0 km/h
1591 27-12-2019 07:00:00 5.3 C 6.72 g/m*3 5.3 C 0 km/h
1592 27-12-2019 08:00:00 5.13333 C 6.65 g/m*3 5.13 C 0.26667 km/h
1593 27-12-2019 09:00:00 5.25833 C 6.7 g/m*3 5.26 C 1.2 km/h
1594 27-12-2019 10:00:00 5.575 C 6.85 g/m*3 5.58 C 0.4 km/h
1595 27-12-2019 11:00:00 5.7 C 6.9 g/m*3 5.7 C 1.33333 km/h
1596 27-12-2019 12:00:00 6.10833 C 6.96 g/m*3 6.11 C 3.33333 km/h
1597 27-12-2019 13:00:00 6.18333 C 6.83 g/m*3 6.18 C 2.8 km/h
1598 27-12-2019 14:00:00 6.275 C 6.68 g/m*3 6.28 C 2.93333 km/h
1599 27-12-2019 15:00:00 6.21667 C 6.53 g/m*3 6.22 C 0.94167 km/h
1600 27-12-2019 16:00:00 5.8 C 6.52 g/m*3 5.8 C 0 km/h
Sensor: Nr:Datum:Temp:Abs-Feuchte:Windchill:Wind:
Aussen-T/F 1601 27-12-2019 17:00:00 5.25833 C 6.41 g/m*3 5.26 C 0 km/h
1602 27-12-2019 18:00:00 5.01667 C 6.33 g/m*3 5.02 C 0.93333 km/h
1603 27-12-2019 19:00:00 4.76667 C 6.22 g/m*3 4.77 C 0.8 km/h
1604 27-12-2019 20:00:00 4.55 C 6.13 g/m*3 4.55 C 0 km/h
1605 27-12-2019 21:00:00 4.525 C 6.13 g/m*3 4.53 C 0 km/h
1606 27-12-2019 22:00:00 3.70833 C 5.72 g/m*3 3.71 C 0 km/h
1607 27-12-2019 23:00:00 2.00833 C 5.15 g/m*3 2.01 C 0.13333 km/h
1608 28-12-2019 00:00:00 1.075 C 4.9 g/m*3 1.08 C 2 km/h
1609 28-12-2019 01:00:00 0.53333 C 4.76 g/m*3 0.53 C 0.4 km/h
1610 28-12-2019 02:00:00 -0.13333 C 4.56 g/m*3 -0.13 C 0 km/h
1611 28-12-2019 03:00:00 -0.58333 C 4.44 g/m*3 -0.58 C 0 km/h
1612 28-12-2019 04:00:00 -0.9 C 4.36 g/m*3 -0.9 C 0 km/h
1613 28-12-2019 05:00:00 -1.18333 C 4.28 g/m*3 -1.18 C 0 km/h
1614 28-12-2019 06:00:00 -1.25833 C 4.26 g/m*3 -1.26 C 0.13333 km/h
1615 28-12-2019 07:00:00 -1.35833 C 4.23 g/m*3 -1.36 C 0 km/h
1616 28-12-2019 08:00:00 -1.61667 C 4.16 g/m*3 -1.62 C 0 km/h
1617 28-12-2019 09:00:00 -1.525 C 4.19 g/m*3 -1.53 C 0.13333 km/h
1618 28-12-2019 10:00:00 -0.63333 C 4.5 g/m*3 -0.63 C 0.93333 km/h
1619 28-12-2019 11:00:00 -0.05833 C 4.68 g/m*3 -0.06 C 0.53333 km/h
1620 28-12-2019 12:00:00 0.53333 C 4.88 g/m*3 0.53 C 0 km/h
1621 28-12-2019 13:00:00 1.175 C 5.1 g/m*3 1.18 C 0.13333 km/h
1622 28-12-2019 14:00:00 1.325 C 5.15 g/m*3 1.33 C 0.26667 km/h
1623 28-12-2019 15:00:00 1.08333 C 5.02 g/m*3 1.08 C 0.26667 km/h
1624 28-12-2019 16:00:00 0.7 C 4.88 g/m*3 0.7 C 0 km/h
1625 28-12-2019 17:00:00 0.19167 C 4.71 g/m*3 0.19 C 0 km/h
Sensor: Nr:Datum:Temp:Abs-Feuchte:Windchill:Wind:
Aussen-T/F 1626 28-12-2019 18:00:00 -0.275 C 4.56 g/m*3 -0.28 C 0 km/h
1627 28-12-2019 19:00:00 -0.525 C 4.49 g/m*3 -0.53 C 0 km/h
1628 28-12-2019 20:00:00 -0.46667 C 4.5 g/m*3 -0.47 C 0.26667 km/h
1629 28-12-2019 21:00:00 -0.45 C 4.51 g/m*3 -0.45 C 0.8 km/h
1630 28-12-2019 22:00:00 -0.975 C 4.35 g/m*3 -0.98 C 0 km/h
1631 28-12-2019 23:00:00 -1.26667 C 4.26 g/m*3 -1.27 C 0 km/h
1632 29-12-2019 00:00:00 -1.58333 C 4.17 g/m*3 -1.58 C 0 km/h
1633 29-12-2019 01:00:00 -1.925 C 4.07 g/m*3 -1.93 C 0 km/h
1634 29-12-2019 02:00:00 -2.25833 C 3.97 g/m*3 -2.26 C 0 km/h
1635 29-12-2019 03:00:00 -2.525 C 3.9 g/m*3 -2.53 C 0 km/h
1636 29-12-2019 04:00:00 -2.65 C 3.87 g/m*3 -2.65 C 0 km/h
1637 29-12-2019 05:00:00 -3 C 3.77 g/m*3 -3 C 0 km/h
1638 29-12-2019 06:00:00 -3.26667 C 3.7 g/m*3 -3.27 C 0 km/h
1639 29-12-2019 07:00:00 -3.54167 C 3.63 g/m*3 -3.54 C 0 km/h
1640 29-12-2019 08:00:00 -3.24167 C 3.72 g/m*3 -3.24 C 0 km/h
1641 29-12-2019 09:00:00 -2.90833 C 3.8 g/m*3 -2.91 C 0 km/h
1642 29-12-2019 10:00:00 -2.51667 C 3.93 g/m*3 -2.52 C 0.13333 km/h
1643 29-12-2019 11:00:00 -1.05833 C 4.37 g/m*3 -1.06 C 0.26667 km/h
1644 29-12-2019 12:00:00 0.38333 C 4.83 g/m*3 0.38 C 0.66667 km/h
1645 29-12-2019 13:00:00 1.36667 C 5.16 g/m*3 1.37 C 0 km/h
1646 29-12-2019 14:00:00 2.05833 C 5.39 g/m*3 2.06 C 0.4 km/h
1647 29-12-2019 15:00:00 2.25 C 5.23 g/m*3 2.25 C 2 km/h
1648 29-12-2019 16:00:00 1.31667 C 4.9 g/m*3 1.32 C 0 km/h
1649 29-12-2019 17:00:00 0.54167 C 4.72 g/m*3 0.54 C 0.26667 km/h
1650 29-12-2019 18:00:00 0.64167 C 4.8 g/m*3 0.64 C 0 km/h
Sensor: Nr:Datum:Temp:Abs-Feuchte:Windchill:Wind:
Aussen-T/F 1651 29-12-2019 19:00:00 0.08333 C 4.58 g/m*3 0.08 C 0 km/h
1652 29-12-2019 20:00:00 -0.24167 C 4.48 g/m*3 -0.24 C 0 km/h
1653 29-12-2019 21:00:00 -0.60833 C 4.37 g/m*3 -0.61 C 0.13333 km/h
1654 29-12-2019 22:00:00 -1.09167 C 4.23 g/m*3 -1.09 C 0 km/h
1655 29-12-2019 23:00:00 -1.33333 C 4.2 g/m*3 -1.33 C 0 km/h
1656 30-12-2019 00:00:00 -1.66667 C 4.1 g/m*3 -1.67 C 0 km/h
1657 30-12-2019 01:00:00 -1.825 C 4.05 g/m*3 -1.83 C 0 km/h
1658 30-12-2019 02:00:00 -1.99167 C 4.03 g/m*3 -1.99 C 0 km/h
1659 30-12-2019 03:00:00 -2.025 C 4.04 g/m*3 -2.03 C 0 km/h
1660 30-12-2019 04:00:00 -2.38333 C 3.94 g/m*3 -2.38 C 0 km/h
1661 30-12-2019 05:00:00 -2.59167 C 3.88 g/m*3 -2.59 C 0 km/h
1662 30-12-2019 06:00:00 -2.675 C 3.86 g/m*3 -2.68 C 0 km/h
1663 30-12-2019 07:00:00 -2.79167 C 3.83 g/m*3 -2.79 C 0 km/h
1664 30-12-2019 08:00:00 -3.06667 C 3.75 g/m*3 -3.07 C 0 km/h
1665 30-12-2019 09:00:00 -2.70833 C 3.85 g/m*3 -2.71 C 0 km/h
1666 30-12-2019 10:00:00 -2.225 C 4 g/m*3 -2.23 C 0 km/h
1667 30-12-2019 11:00:00 -1.61667 C 4.2 g/m*3 -1.62 C 0 km/h
1668 30-12-2019 12:00:00 -0.725 C 4.47 g/m*3 -0.73 C 0.13333 km/h
1669 30-12-2019 13:00:00 0.2 C 4.76 g/m*3 0.2 C 0.13333 km/h
1670 30-12-2019 14:00:00 0.875 C 4.93 g/m*3 0.88 C 1.06667 km/h
1671 30-12-2019 15:00:00 1.50833 C 5.07 g/m*3 1.51 C 1.6 km/h
1672 30-12-2019 16:00:00 2.025 C 5.18 g/m*3 2.03 C 1.73333 km/h
1673 30-12-2019 17:00:00 1.65 C 5.05 g/m*3 1.65 C 0 km/h
1674 30-12-2019 18:00:00 0.90833 C 4.76 g/m*3 0.91 C 0 km/h
1675 30-12-2019 19:00:00 0.28333 C 4.55 g/m*3 0.28 C 1.2 km/h
Sensor: Nr:Datum:Temp:Abs-Feuchte:Windchill:Wind:
Aussen-T/F 1676 30-12-2019 20:00:00 0.18333 C 4.42 g/m*3 0.18 C 1.33333 km/h
1677 30-12-2019 21:00:00 -0.175 C 4.41 g/m*3 -0.18 C 3.06667 km/h
1678 30-12-2019 22:00:00 -0.23333 C 4.32 g/m*3 -0.23 C 1.86667 km/h
1679 30-12-2019 23:00:00 -0.175 C 4.36 g/m*3 -0.18 C 1.73333 km/h
1680 31-12-2019 00:00:00 -0.05 C 4.37 g/m*3 -0.05 C 1.2 km/h
1681 31-12-2019 01:00:00 -0.15833 C 4.39 g/m*3 -0.16 C 1.33333 km/h
1682 31-12-2019 02:00:00 -1.03333 C 4.18 g/m*3 -1.03 C 0.66667 km/h
1683 31-12-2019 03:00:00 -0.9 C 4.28 g/m*3 -0.9 C 0.66667 km/h
1684 31-12-2019 04:00:00 -1.53333 C 4.09 g/m*3 -1.53 C 0.4 km/h
1685 31-12-2019 05:00:00 -1.70833 C 4.08 g/m*3 -1.71 C 0.26667 km/h
1686 31-12-2019 06:00:00 -1.79167 C 4.06 g/m*3 -1.79 C 0.26667 km/h
1687 31-12-2019 07:00:00 -1.70833 C 4.11 g/m*3 -1.71 C 0 km/h
1688 31-12-2019 08:00:00 -0.70833 C 4.43 g/m*3 -0.71 C 1.86667 km/h
1689 31-12-2019 09:00:00 -0.1 C 4.62 g/m*3 -0.1 C 0.53333 km/h
1690 31-12-2019 10:00:00 0.46667 C 4.79 g/m*3 0.47 C 0.26667 km/h
1691 31-12-2019 11:00:00 1.20833 C 4.95 g/m*3 1.21 C 0.13333 km/h
1692 31-12-2019 12:00:00 2.275 C 5.23 g/m*3 2.28 C 1.33333 km/h
1693 31-12-2019 13:00:00 2.84167 C 5.24 g/m*3 2.84 C 0.13333 km/h
1694 31-12-2019 14:00:00 3.26667 C 5.31 g/m*3 3.27 C 0 km/h
1695 31-12-2019 15:00:00 3.48333 C 5.37 g/m*3 3.48 C 0 km/h
1696 31-12-2019 16:00:00 2.26667 C 5.05 g/m*3 2.27 C 0 km/h
1697 31-12-2019 17:00:00 0.65833 C 4.69 g/m*3 0.66 C 0 km/h
1698 31-12-2019 18:00:00 0.31667 C 4.67 g/m*3 0.32 C 0 km/h
1699 31-12-2019 19:00:00 0.875 C 4.89 g/m*3 0.88 C 0 km/h
1700 31-12-2019 20:00:00 1.26667 C 5.03 g/m*3 1.27 C 0 km/h
Sensor: Nr:Datum:Temp:Abs-Feuchte:Windchill:Wind:
Aussen-T/F 1701 31-12-2019 21:00:00 1.23333 C 5.01 g/m*3 1.23 C 0.13333 km/h
1702 31-12-2019 22:00:00 1.18333 C 4.99 g/m*3 1.18 C 0.13333 km/h
1703 31-12-2019 23:00:00 0.90833 C 4.92 g/m*3 0.91 C 0 km/h
1704 01-01-2020 00:00:00 0.98333 C 4.96 g/m*3 0.98 C 0.4 km/h
1705 01-01-2020 01:00:00 0.35 C 4.75 g/m*3 0.35 C 0.4 km/h
1706 01-01-2020 02:00:00 0.50833 C 4.82 g/m*3 0.51 C 0 km/h
1707 01-01-2020 03:00:00 1.06667 C 5.01 g/m*3 1.07 C 0 km/h
1708 01-01-2020 04:00:00 1.15 C 5.03 g/m*3 1.15 C 0.13333 km/h
1709 01-01-2020 05:00:00 1.25 C 5.07 g/m*3 1.25 C 0 km/h
1710 01-01-2020 06:00:00 1.26667 C 5.07 g/m*3 1.27 C 0.53333 km/h
1711 01-01-2020 07:00:00 1.3 C 5.09 g/m*3 1.3 C 0 km/h
1712 01-01-2020 08:00:00 1.425 C 5.13 g/m*3 1.43 C 0 km/h
1713 01-01-2020 09:00:00 1.8 C 5.26 g/m*3 1.8 C 0 km/h
1714 01-01-2020 10:00:00 2.53333 C 5.46 g/m*3 2.53 C 4.4 km/h
1715 01-01-2020 11:00:00 3.125 C 5.5 g/m*3 1.71 C 5.60833 km/h
1716 01-01-2020 12:00:00 3.375 C 5.49 g/m*3 3.38 C 2.53333 km/h
1717 01-01-2020 13:00:00 2.70833 C 5.31 g/m*3 2.71 C 0.53333 km/h
1718 01-01-2020 14:00:00 2.35833 C 5.33 g/m*3 2.36 C 0.13333 km/h
1719 01-01-2020 15:00:00 2.25 C 5.32 g/m*3 2.25 C 0.93333 km/h
1720 01-01-2020 16:00:00 1.33333 C 4.99 g/m*3 1.33 C 0 km/h
1721 01-01-2020 17:00:00 0.21667 C 4.66 g/m*3 0.22 C 0 km/h
1722 01-01-2020 18:00:00 -0.50833 C 4.46 g/m*3 -0.51 C 0 km/h
1723 01-01-2020 19:00:00 -0.88333 C 4.37 g/m*3 -0.88 C 0 km/h
1724 01-01-2020 20:00:00 -1.19167 C 4.28 g/m*3 -1.19 C 0 km/h
1725 01-01-2020 21:00:00 -1.50833 C 4.19 g/m*3 -1.51 C 0 km/h
Sensor: Nr:Datum:Temp:Abs-Feuchte:Windchill:Wind:
Aussen-T/F 1726 01-01-2020 22:00:00 -1.74167 C 4.12 g/m*3 -1.74 C 0 km/h
1727 01-01-2020 23:00:00 -1.66667 C 4.16 g/m*3 -1.67 C 0 km/h
1728 02-01-2020 00:00:00 -1.35 C 4.27 g/m*3 -1.35 C 0 km/h
1729 02-01-2020 01:00:00 -1.11667 C 4.35 g/m*3 -1.12 C 0 km/h
1730 02-01-2020 02:00:00 -0.65833 C 4.49 g/m*3 -0.66 C 0 km/h
1731 02-01-2020 03:00:00 -0.26667 C 4.61 g/m*3 -0.27 C 0 km/h
1732 02-01-2020 04:00:00 0.16667 C 4.75 g/m*3 0.17 C 0.8 km/h
1733 02-01-2020 05:00:00 0.18333 C 4.76 g/m*3 0.18 C 4.28333 km/h
1734 02-01-2020 06:00:00 0.10833 C 4.73 g/m*3 -2.46 C 7.525 km/h
1735 02-01-2020 07:00:00 0.15833 C 4.69 g/m*3 0.16 C 4.95833 km/h
1736 02-01-2020 08:00:00 0.45833 C 4.76 g/m*3 0.46 C 0.8 km/h
1737 02-01-2020 09:00:00 0.925 C 4.91 g/m*3 0.93 C 2 km/h
1738 02-01-2020 10:00:00 1.36667 C 5.06 g/m*3 1.37 C 0 km/h
1739 02-01-2020 11:00:00 2.01667 C 5.22 g/m*3 2.02 C 0.4 km/h
1740 02-01-2020 12:00:00 2.69167 C 5.37 g/m*3 2.69 C 0.93333 km/h
1741 02-01-2020 13:00:00 3.19167 C 5.49 g/m*3 3.19 C 1.2 km/h
1742 02-01-2020 14:00:00 3.6 C 5.68 g/m*3 3.6 C 0.8 km/h
1743 02-01-2020 15:00:00 3.46667 C 5.65 g/m*3 3.47 C 1.6 km/h
1744 02-01-2020 16:00:00 3.16667 C 5.59 g/m*3 3.17 C 0.4 km/h
1745 02-01-2020 17:00:00 3.025 C 5.58 g/m*3 3.03 C 0 km/h
1746 02-01-2020 18:00:00 2.9 C 5.56 g/m*3 2.9 C 0 km/h
1747 02-01-2020 19:00:00 3.075 C 5.68 g/m*3 3.08 C 0 km/h
1748 02-01-2020 20:00:00 3.2 C 5.72 g/m*3 3.2 C 0 km/h
1749 02-01-2020 21:00:00 3.28333 C 5.76 g/m*3 3.28 C 0 km/h
1750 02-01-2020 22:00:00 3.21667 C 5.77 g/m*3 3.22 C 0 km/h
Sensor: Nr:Datum:Temp:Abs-Feuchte:Windchill:Wind:
Aussen-T/F 1751 02-01-2020 23:00:00 3.65833 C 5.97 g/m*3 3.66 C 0 km/h
1752 03-01-2020 00:00:00 3.81667 C 6.03 g/m*3 3.82 C 0 km/h
1753 03-01-2020 01:00:00 4.24167 C 6.2 g/m*3 4.24 C 0 km/h
1754 03-01-2020 02:00:00 4.53333 C 6.32 g/m*3 4.53 C 0 km/h
1755 03-01-2020 03:00:00 4.76667 C 6.48 g/m*3 4.77 C 0 km/h
1756 03-01-2020 04:00:00 4.86667 C 6.53 g/m*3 4.87 C 0.66667 km/h
1757 03-01-2020 05:00:00 5.08333 C 6.62 g/m*3 5.08 C 1.33333 km/h
1758 03-01-2020 06:00:00 5.425 C 6.73 g/m*3 5.43 C 3.075 km/h
1759 03-01-2020 07:00:00 7.875 C 7.54 g/m*3 5.73 C 12.08333 km/h
1760 03-01-2020 08:00:00 8.34167 C 7.45 g/m*3 6.96 C 8.45833 km/h
1761 03-01-2020 09:00:00 8.675 C 7.43 g/m*3 7.01 C 10.23333 km/h
1762 03-01-2020 10:00:00 8.91667 C 7.42 g/m*3 6.41 C 16.36667 km/h
1763 03-01-2020 11:00:00 8.99167 C 7.49 g/m*3 5.86 C 22.51667 km/h
1764 03-01-2020 12:00:00 8.89167 C 7.51 g/m*3 5.91 C 20.64167 km/h
1765 03-01-2020 13:00:00 8.91667 C 7.63 g/m*3 5.99 C 20.23333 km/h
1766 03-01-2020 14:00:00 8.93333 C 7.75 g/m*3 6.72 C 14.1 km/h
1767 03-01-2020 15:00:00 9.29167 C 7.94 g/m*3 7.18 C 13.96667 km/h
1768 03-01-2020 16:00:00 9.38333 C 8.03 g/m*3 7.07 C 15.7 km/h
1769 03-01-2020 17:00:00 9.29167 C 8.08 g/m*3 6.99 C 15.43333 km/h
1770 03-01-2020 18:00:00 9.56667 C 8.23 g/m*3 7.34 C 15.3 km/h
1771 03-01-2020 19:00:00 9.60833 C 8.33 g/m*3 7.91 C 11.56667 km/h
1772 03-01-2020 20:00:00 9.58333 C 8.43 g/m*3 8.26 C 9.29167 km/h
1773 03-01-2020 21:00:00 8.56667 C 7.91 g/m*3 6.04 C 15.83333 km/h
1774 03-01-2020 22:00:00 7.21667 C 7.15 g/m*3 4.71 C 13.425 km/h
1775 03-01-2020 23:00:00 6.68333 C 6.91 g/m*3 5.26 C 7.4 km/h
Sensor: Nr:Datum:Temp:Abs-Feuchte:Windchill:Wind:
Aussen-T/F 1776 04-01-2020 00:00:00 6.34167 C 6.83 g/m*3 6.34 C 4.55 km/h
1777 04-01-2020 01:00:00 5.70833 C 6.52 g/m*3 5.71 C 2.26667 km/h
1778 04-01-2020 02:00:00 4.70833 C 6.13 g/m*3 4.71 C 2.675 km/h
1779 04-01-2020 03:00:00 4.41667 C 6.1 g/m*3 4.42 C 2.13333 km/h
1780 04-01-2020 04:00:00 4.15 C 5.95 g/m*3 4.15 C 2.66667 km/h
1781 04-01-2020 05:00:00 3.30833 C 5.65 g/m*3 3.31 C 2 km/h
1782 04-01-2020 06:00:00 2.90833 C 5.55 g/m*3 1.26 C 6.16667 km/h
1783 04-01-2020 07:00:00 2.93333 C 5.5 g/m*3 2.93 C 4.675 km/h
1784 04-01-2020 08:00:00 2.26667 C 5.3 g/m*3 2.27 C 2.26667 km/h
1785 04-01-2020 09:00:00 2.075 C 5.29 g/m*3 2.08 C 2.13333 km/h
1786 04-01-2020 10:00:00 3.32857 C 5.73 g/m*3 1.73 C 6.2 km/h
1787 04-01-2020 11:00:00 5.73333 C 6.23 g/m*3 3.73 C 9.125 km/h
1788 04-01-2020 12:00:00 6.48333 C 6.39 g/m*3 4.41 C 10.08333 km/h
1789 04-01-2020 13:00:00 7.11667 C 6.55 g/m*3 4.72 C 12.63333 km/h
1790 04-01-2020 14:00:00 7.48333 C 6.58 g/m*3 5.21 C 12.36667 km/h
1791 04-01-2020 15:00:00 7.41667 C 6.6 g/m*3 5.63 C 9.55833 km/h
1792 04-01-2020 16:00:00 7.25833 C 6.54 g/m*3 5.62 C 8.74167 km/h
1793 04-01-2020 17:00:00 7.175 C 6.49 g/m*3 5.32 C 9.675 km/h
1794 04-01-2020 18:00:00 7.08333 C 6.47 g/m*3 5.08 C 10.36667 km/h
1795 04-01-2020 19:00:00 6.96667 C 6.53 g/m*3 5.22 C 8.99167 km/h
1796 04-01-2020 20:00:00 6.54167 C 6.57 g/m*3 5.33 C 6.56667 km/h
1797 04-01-2020 21:00:00 6.475 C 6.78 g/m*3 5.37 C 6.15833 km/h
1798 04-01-2020 22:00:00 6.125 C 6.86 g/m*3 5.24 C 5.34167 km/h
1799 04-01-2020 23:00:00 6.13333 C 6.83 g/m*3 5.25 C 5.34167 km/h
1800 05-01-2020 00:00:00 6.14167 C 6.81 g/m*3 6.14 C 3.6 km/h
Sensor: Nr:Datum:Temp:Abs-Feuchte:Windchill:Wind:
Aussen-T/F 1801 05-01-2020 01:00:00 5.9 C 6.76 g/m*3 5.9 C 3.2 km/h
1802 05-01-2020 02:00:00 5.625 C 6.72 g/m*3 5.63 C 1.86667 km/h
1803 05-01-2020 03:00:00 5.35 C 6.61 g/m*3 5.35 C 0.93333 km/h
1804 05-01-2020 04:00:00 5.26667 C 6.64 g/m*3 5.27 C 0.93333 km/h
1805 05-01-2020 05:00:00 5.31667 C 6.66 g/m*3 5.32 C 0.53333 km/h
1806 05-01-2020 06:00:00 5.4 C 6.7 g/m*3 5.4 C 0.93333 km/h
1807 05-01-2020 07:00:00 5.36667 C 6.68 g/m*3 5.37 C 0.26667 km/h
1808 05-01-2020 08:00:00 5.19 C 6.61 g/m*3 5.19 C 0.64 km/h
1809 05-01-2020 09:00:00 5.33 C 6.67 g/m*3 5.33 C 4.8 km/h
1810 05-01-2020 10:00:00 5.8 C 6.82 g/m*3 4.68 C 5.88333 km/h
1811 05-01-2020 11:00:00 6.25833 C 6.9 g/m*3 5.34 C 5.49167 km/h
1812 05-01-2020 12:00:00 6.6 C 6.96 g/m*3 5.77 C 5.35 km/h
1813 05-01-2020 13:00:00 6.93333 C 7.05 g/m*3 6.2 C 5.20833 km/h
1814 05-01-2020 14:00:00 7.20833 C 7.08 g/m*3 7.21 C 2.8 km/h
1815 05-01-2020 15:00:00 7.20833 C 7.11 g/m*3 7.21 C 0.8 km/h
1816 05-01-2020 16:00:00 6.79167 C 7.02 g/m*3 6.79 C 0 km/h
1817 05-01-2020 17:00:00 6.24167 C 6.77 g/m*3 6.24 C 1.73333 km/h
1818 05-01-2020 18:00:00 6.16667 C 6.63 g/m*3 6.17 C 2.26667 km/h
1819 05-01-2020 19:00:00 6.11667 C 6.56 g/m*3 6.12 C 0.4 km/h
1820 05-01-2020 20:00:00 5.90833 C 6.51 g/m*3 5.91 C 0.4 km/h
1821 05-01-2020 21:00:00 5.8 C 6.51 g/m*3 5.8 C 0 km/h
1822 05-01-2020 22:00:00 5.58333 C 6.5 g/m*3 5.58 C 0 km/h
1823 05-01-2020 23:00:00 5.30833 C 6.43 g/m*3 5.31 C 0 km/h
1824 06-01-2020 00:00:00 5.11667 C 6.3 g/m*3 5.12 C 0 km/h
1825 06-01-2020 01:00:00 4.98333 C 6.2 g/m*3 4.98 C 0 km/h
Sensor: Nr:Datum:Temp:Abs-Feuchte:Windchill:Wind:
Aussen-T/F 1826 06-01-2020 02:00:00 4.84167 C 6.12 g/m*3 4.84 C 0 km/h
1827 06-01-2020 03:00:00 4.71667 C 6.08 g/m*3 4.72 C 0 km/h
1828 06-01-2020 04:00:00 4.61667 C 6.04 g/m*3 4.62 C 0.13333 km/h
1829 06-01-2020 05:00:00 4.4 C 6 g/m*3 4.4 C 0 km/h
1830 06-01-2020 06:00:00 4.15833 C 5.92 g/m*3 4.16 C 0 km/h
1831 06-01-2020 07:00:00 3.76667 C 5.78 g/m*3 3.77 C 0 km/h
1832 06-01-2020 08:00:00 3.36667 C 5.65 g/m*3 3.37 C 0 km/h
1833 06-01-2020 09:00:00 3.475 C 5.69 g/m*3 3.48 C 0 km/h
1834 06-01-2020 10:00:00 3.73333 C 5.7 g/m*3 3.73 C 0 km/h
1835 06-01-2020 11:00:00 2.975 C 5.48 g/m*3 2.98 C 1.06667 km/h
1836 06-01-2020 12:00:00 3.10833 C 5.57 g/m*3 3.11 C 1.2 km/h
1837 06-01-2020 13:00:00 3.2 C 5.65 g/m*3 3.2 C 0.93333 km/h
1838 06-01-2020 14:00:00 3.26667 C 5.69 g/m*3 3.27 C 0.53333 km/h
1839 06-01-2020 15:00:00 3.4 C 5.74 g/m*3 3.4 C 2.53333 km/h
1840 06-01-2020 16:00:00 2.925 C 5.56 g/m*3 2.93 C 1.73333 km/h
1841 06-01-2020 17:00:00 1.85833 C 5.19 g/m*3 1.86 C 0.66667 km/h
1842 06-01-2020 18:00:00 1.01667 C 4.92 g/m*3 1.02 C 0.93333 km/h
1843 06-01-2020 19:00:00 0.39167 C 4.73 g/m*3 0.39 C 1.2 km/h
1844 06-01-2020 20:00:00 -0.125 C 4.58 g/m*3 -0.13 C 0.53333 km/h
1845 06-01-2020 21:00:00 -0.11667 C 4.61 g/m*3 -0.12 C 0 km/h
1846 06-01-2020 22:00:00 0.98333 C 5 g/m*3 0.98 C 2.40833 km/h
1847 06-01-2020 23:00:00 1.59167 C 5.19 g/m*3 1.59 C 1.06667 km/h
1848 07-01-2020 00:00:00 2.34167 C 5.46 g/m*3 2.34 C 4.55 km/h
1849 07-01-2020 01:00:00 3.15 C 5.69 g/m*3 1.95 C 5.09167 km/h
1850 07-01-2020 02:00:00 3.71667 C 5.83 g/m*3 1.65 C 7.925 km/h
Sensor: Nr:Datum:Temp:Abs-Feuchte:Windchill:Wind:
Aussen-T/F 1851 07-01-2020 03:00:00 3.7 C 5.86 g/m*3 1.66 C 7.8 km/h
1852 07-01-2020 04:00:00 3.93333 C 5.96 g/m*3 1.55 C 9.275 km/h
1853 07-01-2020 05:00:00 4.26667 C 6.08 g/m*3 1.76 C 10.08333 km/h
1854 07-01-2020 06:00:00 4.6 C 6.21 g/m*3 2.07 C 10.5 km/h
1855 07-01-2020 07:00:00 5 C 6.32 g/m*3 2.82 C 9.28333 km/h
1856 07-01-2020 08:00:00 4.925 C 6.29 g/m*3 3.25 C 7.25 km/h
1857 07-01-2020 09:00:00 4.725 C 6.31 g/m*3 3.54 C 5.625 km/h
1858 07-01-2020 10:00:00 5.68333 C 6.66 g/m*3 4.18 C 7.10833 km/h
1859 07-01-2020 11:00:00 6.6 C 6.95 g/m*3 4.75 C 9.15 km/h
1860 07-01-2020 12:00:00 7.1 C 6.96 g/m*3 4.67 C 12.76667 km/h
1861 07-01-2020 13:00:00 7.28333 C 6.98 g/m*3 5.35 C 10.20833 km/h
1862 07-01-2020 14:00:00 7.38333 C 6.92 g/m*3 5.83 C 8.46667 km/h
1863 07-01-2020 15:00:00 6.925 C 6.75 g/m*3 6.15 C 5.34167 km/h
1864 07-01-2020 16:00:00 5.84167 C 6.46 g/m*3 5.84 C 2.13333 km/h
1865 07-01-2020 17:00:00 4.54167 C 6.12 g/m*3 4.54 C 3.06667 km/h
1866 07-01-2020 18:00:00 4.025 C 6 g/m*3 4.03 C 2.8 km/h
1867 07-01-2020 19:00:00 3.65833 C 5.9 g/m*3 3.66 C 2.66667 km/h
1868 07-01-2020 20:00:00 4.20833 C 6.16 g/m*3 4.21 C 4.55 km/h
1869 07-01-2020 21:00:00 5.49167 C 6.5 g/m*3 3.66 C 8.2 km/h
1870 07-01-2020 22:00:00 6.20833 C 6.52 g/m*3 5.1 C 6.04167 km/h
1871 07-01-2020 23:00:00 6.56667 C 6.51 g/m*3 6.57 C 4.425 km/h
1872 08-01-2020 00:00:00 6.26667 C 6.38 g/m*3 6.27 C 2.40833 km/h
1873 08-01-2020 01:00:00 6.13333 C 6.3 g/m*3 6.13 C 2.8 km/h
1874 08-01-2020 02:00:00 5.85833 C 6.32 g/m*3 5.86 C 2.53333 km/h
1875 08-01-2020 03:00:00 6.45833 C 6.65 g/m*3 6.46 C 4.81667 km/h
Sensor: Nr:Datum:Temp:Abs-Feuchte:Windchill:Wind:
Aussen-T/F 1876 08-01-2020 04:00:00 6.575 C 6.74 g/m*3 6.58 C 1.86667 km/h
1877 08-01-2020 05:00:00 6.44167 C 6.82 g/m*3 6.44 C 0.13333 km/h
1878 08-01-2020 06:00:00 6.7 C 7.05 g/m*3 6.7 C 2.13333 km/h
1879 08-01-2020 07:00:00 7.04167 C 7.33 g/m*3 7.04 C 1.46667 km/h
1880 08-01-2020 08:00:00 7.175 C 7.46 g/m*3 7.18 C 4.29167 km/h
1881 08-01-2020 09:00:00 7.475 C 7.67 g/m*3 6.86 C 5.1 km/h
1882 08-01-2020 10:00:00 7.85833 C 7.82 g/m*3 6.01 C 10.35833 km/h
1883 08-01-2020 11:00:00 8.24167 C 7.9 g/m*3 6.9 C 8.20833 km/h
1884 08-01-2020 12:00:00 8.375 C 7.96 g/m*3 8.38 C 2.26667 km/h
1885 08-01-2020 13:00:00 9.05833 C 8.27 g/m*3 9.06 C 4.68333 km/h
1886 08-01-2020 14:00:00 9.36667 C 8.39 g/m*3 9.37 C 3.075 km/h
1887 08-01-2020 15:00:00 9.73333 C 8.51 g/m*3 8.68 C 8.05833 km/h
1888 08-01-2020 16:00:00 9.78333 C 8.57 g/m*3 9.78 C 4.55 km/h
1889 08-01-2020 17:00:00 9.8 C 8.63 g/m*3 8.88 C 7.51667 km/h
1890 08-01-2020 18:00:00 9.71667 C 8.64 g/m*3 9.1 C 6.18333 km/h
1891 08-01-2020 19:00:00 9.95833 C 8.81 g/m*3 9.56 C 5.49167 km/h
1892 08-01-2020 20:00:00 10.175 C 8.93 g/m*3 9.6 C 6.3 km/h
1893 08-01-2020 21:00:00 10.3 C 9 g/m*3 9.78 C 6.15833 km/h
1894 08-01-2020 22:00:00 10.20833 C 8.99 g/m*3 10.21 C 4.41667 km/h
1895 08-01-2020 23:00:00 10.1 C 8.98 g/m*3 10.1 C 1.6 km/h
1896 09-01-2020 00:00:00 9.89167 C 8.88 g/m*3 9.89 C 0 km/h
1897 09-01-2020 01:00:00 9.78333 C 8.9 g/m*3 9.78 C 0 km/h
1898 09-01-2020 02:00:00 9.59167 C 8.79 g/m*3 9.59 C 1.46667 km/h
1899 09-01-2020 03:00:00 9.425 C 8.7 g/m*3 9.43 C 1.6 km/h
1900 09-01-2020 04:00:00 9.23333 C 8.62 g/m*3 9.23 C 0.13333 km/h
Sensor: Nr:Datum:Temp:Abs-Feuchte:Windchill:Wind:
Aussen-T/F 1901 09-01-2020 05:00:00 9.25 C 8.69 g/m*3 9.25 C 0.26667 km/h
1902 09-01-2020 06:00:00 9.21667 C 8.67 g/m*3 9.22 C 0.26667 km/h
1903 09-01-2020 07:00:00 9.48333 C 8.82 g/m*3 9.48 C 1.2 km/h
1904 09-01-2020 08:00:00 9.79167 C 9.04 g/m*3 9.79 C 1.475 km/h
1905 09-01-2020 09:00:00 10.53333 C 9.49 g/m*3 10.53 C 4.28333 km/h
1906 09-01-2020 10:00:00 11.11667 C 9.71 g/m*3 11.12 C 5.61667 km/h
1907 09-01-2020 11:00:00 12.125 C 9.98 g/m*3 12.13 C 10.48333 km/h
1908 09-01-2020 12:00:00 12.95833 C 10.08 g/m*3 12.96 C 13.83333 km/h
1909 09-01-2020 13:00:00 13.325 C 10.1 g/m*3 13.33 C 15.43333 km/h
1910 09-01-2020 14:00:00 13.11667 C 10.03 g/m*3 13.12 C 9.95 km/h
1911 09-01-2020 15:00:00 12.925 C 9.96 g/m*3 12.93 C 9.81667 km/h
1912 09-01-2020 16:00:00 12.79167 C 9.85 g/m*3 12.79 C 6.43333 km/h
1913 09-01-2020 17:00:00 12.59167 C 9.67 g/m*3 12.59 C 5.08333 km/h
1914 09-01-2020 18:00:00 12.05833 C 9.47 g/m*3 12.06 C 4.68333 km/h
1915 09-01-2020 19:00:00 11.73333 C 9.24 g/m*3 11.73 C 4.01667 km/h
1916 09-01-2020 20:00:00 10.9 C 9.07 g/m*3 10.9 C 3.61667 km/h
1917 09-01-2020 21:00:00 10.21667 C 8.83 g/m*3 10.22 C 2.94167 km/h
1918 09-01-2020 22:00:00 9.875 C 8.72 g/m*3 9.88 C 1.2 km/h
1919 09-01-2020 23:00:00 10.275 C 8.6 g/m*3 9.82 C 5.89167 km/h
1920 10-01-2020 00:00:00 10.5 C 8.57 g/m*3 10.5 C 3.625 km/h
1921 10-01-2020 01:00:00 10.28333 C 8.51 g/m*3 10.28 C 3.875 km/h
1922 10-01-2020 02:00:00 10.23333 C 8.46 g/m*3 9.32 C 7.79167 km/h
1923 10-01-2020 03:00:00 10.29167 C 8.36 g/m*3 9.4 C 7.775 km/h
1924 10-01-2020 04:00:00 10.325 C 8.01 g/m*3 8.88 C 10.89167 km/h
1925 10-01-2020 05:00:00 10.025 C 7.85 g/m*3 9.22 C 7.13333 km/h
Sensor: Nr:Datum:Temp:Abs-Feuchte:Windchill:Wind:
Aussen-T/F 1926 10-01-2020 06:00:00 9.55 C 8.02 g/m*3 9.55 C 2 km/h
1927 10-01-2020 07:00:00 8.71667 C 8.05 g/m*3 8.72 C 0.26667 km/h
1928 10-01-2020 08:00:00 8.43333 C 7.98 g/m*3 8.43 C 0.26667 km/h
1929 10-01-2020 09:00:00 8.99167 C 8.03 g/m*3 8.99 C 2.81667 km/h
1930 10-01-2020 10:00:00 9.675 C 8.11 g/m*3 9.68 C 2.94167 km/h
1931 10-01-2020 11:00:00 10.39167 C 8.28 g/m*3 9.09 C 10.075 km/h
1932 10-01-2020 12:00:00 10.70833 C 8.47 g/m*3 8.82 C 14.76667 km/h
1933 10-01-2020 13:00:00 9.41667 C 8.18 g/m*3 9.42 C 4.28333 km/h
1934 10-01-2020 14:00:00 9.1 C 7.86 g/m*3 7.91 C 8.19167 km/h
1935 10-01-2020 15:00:00 9.15833 C 7.53 g/m*3 7.79 C 9.13333 km/h
1936 10-01-2020 16:00:00 8.51667 C 7.51 g/m*3 6.68 C 11.01667 km/h
1937 10-01-2020 17:00:00 7.75 C 7.23 g/m*3 5.95 C 9.95833 km/h
1938 10-01-2020 18:00:00 7.7 C 7.16 g/m*3 6.32 C 7.91667 km/h
1939 10-01-2020 19:00:00 7.225 C 7.1 g/m*3 5.61 C 8.59167 km/h
1940 10-01-2020 20:00:00 6.9 C 6.92 g/m*3 5.98 C 5.75833 km/h
1941 10-01-2020 21:00:00 6.66667 C 6.72 g/m*3 6.67 C 2.675 km/h
1942 10-01-2020 22:00:00 6.66667 C 6.65 g/m*3 6.67 C 4.68333 km/h
1943 10-01-2020 23:00:00 6.775 C 6.63 g/m*3 5.84 C 5.75 km/h
1944 11-01-2020 00:00:00 6.20833 C 6.41 g/m*3 6.21 C 3.2 km/h
1945 11-01-2020 01:00:00 4.93333 C 6.14 g/m*3 4.93 C 0.26667 km/h
1946 11-01-2020 02:00:00 4.4 C 5.99 g/m*3 4.4 C 0.66667 km/h
1947 11-01-2020 03:00:00 3.59167 C 5.79 g/m*3 3.59 C 1.06667 km/h
1948 11-01-2020 04:00:00 3.80833 C 5.96 g/m*3 3.81 C 0.8 km/h
1949 11-01-2020 05:00:00 3.725 C 5.91 g/m*3 3.73 C 1.46667 km/h
1950 11-01-2020 06:00:00 3.59167 C 5.88 g/m*3 3.59 C 3.34167 km/h
Sensor: Nr:Datum:Temp:Abs-Feuchte:Windchill:Wind:
Aussen-T/F 1951 11-01-2020 07:00:00 3.31667 C 5.73 g/m*3 3.32 C 2.66667 km/h
1952 11-01-2020 08:00:00 1.94167 C 5.21 g/m*3 1.94 C 1.74167 km/h
1953 11-01-2020 09:00:00 2.15833 C 5.36 g/m*3 0.77 C 5.20833 km/h
1954 11-01-2020 10:00:00 2.85 C 5.59 g/m*3 2.85 C 4.55833 km/h
1955 11-01-2020 11:00:00 3.94167 C 5.95 g/m*3 3.94 C 0.8 km/h
1956 11-01-2020 12:00:00 5.89167 C 6.19 g/m*3 5.89 C 3.2 km/h
1957 11-01-2020 13:00:00 7.15833 C 5.92 g/m*3 5.3 C 9.66667 km/h
1958 11-01-2020 14:00:00 7.075 C 5.87 g/m*3 5.62 C 7.78333 km/h
1959 11-01-2020 15:00:00 6.925 C 5.93 g/m*3 6.93 C 3.60833 km/h
1960 11-01-2020 16:00:00 6.76667 C 5.93 g/m*3 5.91 C 5.5 km/h
1961 11-01-2020 17:00:00 6.26667 C 5.82 g/m*3 6.27 C 3.88333 km/h
1962 11-01-2020 18:00:00 5.44167 C 5.75 g/m*3 5.44 C 1.33333 km/h
1963 11-01-2020 19:00:00 3.95 C 5.57 g/m*3 3.95 C 2.26667 km/h
1964 11-01-2020 20:00:00 3.19167 C 5.42 g/m*3 3.19 C 2.53333 km/h
1965 11-01-2020 21:00:00 2.675 C 5.3 g/m*3 2.68 C 2.13333 km/h
1966 11-01-2020 22:00:00 2.29167 C 5.23 g/m*3 2.29 C 0.8 km/h
1967 11-01-2020 23:00:00 2.11667 C 5.18 g/m*3 2.12 C 1.34167 km/h
1968 12-01-2020 00:00:00 1.95 C 5.15 g/m*3 1.95 C 2.93333 km/h
1969 12-01-2020 01:00:00 1.99167 C 5.17 g/m*3 1.99 C 2.26667 km/h
1970 12-01-2020 02:00:00 2.46667 C 5.31 g/m*3 2.47 C 2.4 km/h
1971 12-01-2020 03:00:00 2.48333 C 5.28 g/m*3 2.48 C 2.53333 km/h
1972 12-01-2020 04:00:00 2.59167 C 5.38 g/m*3 2.59 C 0.66667 km/h
1973 12-01-2020 05:00:00 3.73333 C 5.63 g/m*3 3.73 C 2.80833 km/h
1974 12-01-2020 06:00:00 4.275 C 5.65 g/m*3 2.34 C 7.78333 km/h
1975 12-01-2020 07:00:00 4.325 C 5.64 g/m*3 1.55 C 11.425 km/h
Sensor: Nr:Datum:Temp:Abs-Feuchte:Windchill:Wind:
Aussen-T/F 1976 12-01-2020 08:00:00 4.425 C 5.61 g/m*3 1.47 C 12.49167 km/h
1977 12-01-2020 09:00:00 4.825 C 5.69 g/m*3 1.55 C 14.9 km/h
1978 12-01-2020 10:00:00 5.325 C 5.8 g/m*3 2.42 C 13.3 km/h
1979 12-01-2020 11:00:00 5.7 C 5.87 g/m*3 2.95 C 12.88333 km/h
1980 12-01-2020 12:00:00 6.26667 C 6.03 g/m*3 3.19 C 15.83333 km/h
1981 12-01-2020 13:00:00 6.75833 C 6.24 g/m*3 4.19 C 13.16667 km/h
1982 12-01-2020 14:00:00 7.18333 C 6.45 g/m*3 4.49 C 14.63333 km/h
1983 12-01-2020 15:00:00 7.18333 C 6.57 g/m*3 4.07 C 17.84167 km/h
1984 12-01-2020 16:00:00 6.88333 C 6.56 g/m*3 3.48 C 19.7 km/h
1985 12-01-2020 17:00:00 6.525 C 6.57 g/m*3 2.92 C 20.63333 km/h
1986 12-01-2020 18:00:00 6.15833 C 6.51 g/m*3 3.35 C 13.83333 km/h
1987 12-01-2020 19:00:00 6.16667 C 6.6 g/m*3 4.52 C 7.93333 km/h
1988 12-01-2020 20:00:00 6.4 C 6.73 g/m*3 4.15 C 10.9 km/h
1989 12-01-2020 21:00:00 6.65 C 6.89 g/m*3 4.36 C 11.41667 km/h
1990 12-01-2020 22:00:00 6.80833 C 6.94 g/m*3 4.97 C 9.26667 km/h
1991 12-01-2020 23:00:00 6.35 C 6.79 g/m*3 5.07 C 6.69167 km/h
1992 13-01-2020 00:00:00 6.81667 C 6.97 g/m*3 4.78 C 10.225 km/h
1993 13-01-2020 01:00:00 6.775 C 7.04 g/m*3 6.78 C 3.88333 km/h
1994 13-01-2020 02:00:00 6.56667 C 7.07 g/m*3 6.57 C 3.73333 km/h
1995 13-01-2020 03:00:00 6.03333 C 6.8 g/m*3 6.03 C 0.8 km/h
1996 13-01-2020 04:00:00 4.80833 C 6.32 g/m*3 4.81 C 2.53333 km/h
1997 13-01-2020 05:00:00 5.08333 C 6.54 g/m*3 5.08 C 1.33333 km/h
1998 13-01-2020 06:00:00 5.28333 C 6.61 g/m*3 5.28 C 0.94167 km/h
1999 13-01-2020 07:00:00 4.76667 C 6.36 g/m*3 4.77 C 2.675 km/h
2000 13-01-2020 08:00:00 4.88333 C 6.43 g/m*3 4.88 C 1.2 km/h
Sensor: Nr:Datum:Temp:Abs-Feuchte:Windchill:Wind:
Aussen-T/F 2001 13-01-2020 09:00:00 5.65833 C 6.74 g/m*3 5.66 C 3.06667 km/h
2002 13-01-2020 10:00:00 6.63333 C 7.03 g/m*3 6.63 C 4.95 km/h
2003 13-01-2020 11:00:00 7.65 C 7.27 g/m*3 7.06 C 5.075 km/h
2004 13-01-2020 12:00:00 8.25833 C 7.38 g/m*3 8.26 C 2.66667 km/h
2005 13-01-2020 13:00:00 8.15833 C 7.4 g/m*3 8.16 C 3.74167 km/h
2006 13-01-2020 14:00:00 7.875 C 7.44 g/m*3 7.88 C 1.06667 km/h
2007 13-01-2020 15:00:00 7.95833 C 7.2 g/m*3 7.96 C 2 km/h
2008 13-01-2020 16:00:00 7.81667 C 7.04 g/m*3 7.82 C 1.33333 km/h
2009 13-01-2020 17:00:00 7.14167 C 6.84 g/m*3 7.14 C 0.4 km/h
2010 13-01-2020 18:00:00 6.35833 C 6.7 g/m*3 6.36 C 1.06667 km/h
2011 13-01-2020 19:00:00 6.525 C 6.79 g/m*3 6.53 C 1.06667 km/h
2012 13-01-2020 20:00:00 6.39167 C 6.79 g/m*3 6.39 C 0 km/h
2013 13-01-2020 21:00:00 6.3 C 6.81 g/m*3 6.3 C 0 km/h
2014 13-01-2020 22:00:00 6.425 C 6.94 g/m*3 6.43 C 0.66667 km/h
2015 13-01-2020 23:00:00 6.84167 C 7.12 g/m*3 6.84 C 1.34167 km/h
2016 14-01-2020 00:00:00 7.15833 C 7.28 g/m*3 7.16 C 1.33333 km/h
2017 14-01-2020 01:00:00 6.76667 C 7.07 g/m*3 6.77 C 0.66667 km/h
2018 14-01-2020 02:00:00 6.925 C 7.07 g/m*3 6.93 C 2.13333 km/h
2019 14-01-2020 03:00:00 7.25 C 7.04 g/m*3 7.25 C 1.2 km/h
2020 14-01-2020 04:00:00 7.53333 C 7.07 g/m*3 7.53 C 2.8 km/h
2021 14-01-2020 05:00:00 8.18333 C 7.12 g/m*3 7.58 C 5.35 km/h
2022 14-01-2020 06:00:00 8.175 C 6.97 g/m*3 8.18 C 4.425 km/h
2023 14-01-2020 07:00:00 8.01667 C 6.85 g/m*3 8.02 C 4.68333 km/h
2024 14-01-2020 08:00:00 8.46667 C 6.84 g/m*3 6.81 C 9.95833 km/h
2025 14-01-2020 09:00:00 8.89167 C 7.05 g/m*3 7.22 C 10.49167 km/h
Sensor: Nr:Datum:Temp:Abs-Feuchte:Windchill:Wind:
Aussen-T/F 2026 14-01-2020 10:00:00 9.48333 C 7.21 g/m*3 7.93 C 10.475 km/h
2027 14-01-2020 11:00:00 9.84167 C 7.1 g/m*3 9.05 C 6.96667 km/h
2028 14-01-2020 12:00:00 10.20833 C 6.98 g/m*3 9.44 C 7.10833 km/h
2029 14-01-2020 13:00:00 10.7 C 7.21 g/m*3 10.7 C 3.88333 km/h
2030 14-01-2020 14:00:00 11.95833 C 7.17 g/m*3 11.96 C 8.2 km/h
2031 14-01-2020 15:00:00 12.11667 C 7.08 g/m*3 12.12 C 8.30833 km/h
2032 14-01-2020 16:00:00 11.425 C 6.85 g/m*3 11.43 C 6.58333 km/h
2033 14-01-2020 17:00:00 11.23333 C 6.84 g/m*3 11.23 C 10.075 km/h
2034 14-01-2020 18:00:00 11.31667 C 7.23 g/m*3 11.32 C 9.25833 km/h
2035 14-01-2020 19:00:00 11.46667 C 7.76 g/m*3 11.47 C 13.025 km/h
2036 14-01-2020 20:00:00 11.475 C 7.61 g/m*3 11.48 C 13.96667 km/h
2037 14-01-2020 21:00:00 11.95833 C 7.4 g/m*3 11.96 C 13.69167 km/h
2038 14-01-2020 22:00:00 11.96667 C 7.52 g/m*3 11.97 C 6.96667 km/h
2039 14-01-2020 23:00:00 12 C 7.74 g/m*3 12 C 8.875 km/h
2040 15-01-2020 00:00:00 11.875 C 7.51 g/m*3 11.88 C 8.2 km/h
2041 15-01-2020 01:00:00 11.54167 C 7.46 g/m*3 11.54 C 6.7 km/h
2042 15-01-2020 02:00:00 10.95 C 7.65 g/m*3 10.73 C 5.35833 km/h
2043 15-01-2020 03:00:00 10.48333 C 7.83 g/m*3 10.48 C 2.675 km/h
2044 15-01-2020 04:00:00 9.68333 C 7.74 g/m*3 9.68 C 1.2 km/h
2045 15-01-2020 05:00:00 9.69167 C 7.58 g/m*3 9.69 C 4.28333 km/h
2046 15-01-2020 06:00:00 10.225 C 7.35 g/m*3 9.98 C 5.09167 km/h
2047 15-01-2020 07:00:00 8.39167 C 6.9 g/m*3 8.39 C 1.2 km/h
2048 15-01-2020 08:00:00 6.98333 C 6.68 g/m*3 6.98 C 0.66667 km/h
2049 15-01-2020 09:00:00 7.49167 C 6.89 g/m*3 7.49 C 1.73333 km/h
2050 15-01-2020 10:00:00 8.01667 C 7.12 g/m*3 8.02 C 1.73333 km/h
Sensor: Nr:Datum:Temp:Abs-Feuchte:Windchill:Wind:
Aussen-T/F 2051 15-01-2020 11:00:00 9.96667 C 7.39 g/m*3 9.97 C 3.475 km/h
2052 15-01-2020 12:00:00 11.725 C 7.43 g/m*3 11.73 C 4.95833 km/h
2053 15-01-2020 13:00:00 12.575 C 7.48 g/m*3 12.58 C 7.25 km/h
2054 15-01-2020 14:00:00 12.3 C 7.57 g/m*3 12.3 C 5.625 km/h
2055 15-01-2020 15:00:00 13.20833 C 7.5 g/m*3 13.21 C 13.55 km/h
2056 15-01-2020 16:00:00 13.09167 C 7.58 g/m*3 13.09 C 5.63333 km/h
2057 15-01-2020 17:00:00 12.38333 C 7.69 g/m*3 12.38 C 3.20833 km/h
2058 15-01-2020 18:00:00 12 C 7.67 g/m*3 12 C 3.075 km/h
2059 15-01-2020 19:00:00 12.68333 C 7.77 g/m*3 12.68 C 7.375 km/h
2060 15-01-2020 20:00:00 12.91667 C 7.95 g/m*3 12.92 C 13.16667 km/h
2061 15-01-2020 21:00:00 12.66667 C 8.21 g/m*3 12.67 C 12.48333 km/h
2062 15-01-2020 22:00:00 10.80833 C 8.69 g/m*3 10.81 C 2.8 km/h
2063 15-01-2020 23:00:00 9.71667 C 8.46 g/m*3 9.72 C 4.26667 km/h
2064 16-01-2020 00:00:00 9.25833 C 8.23 g/m*3 9.26 C 2.95833 km/h
2065 16-01-2020 01:00:00 9.5 C 8.47 g/m*3 9.5 C 1.2 km/h
2066 16-01-2020 02:00:00 9.35833 C 8.42 g/m*3 9.36 C 0.26667 km/h
2067 16-01-2020 03:00:00 9.4 C 8.56 g/m*3 9.4 C 0.8 km/h
2068 16-01-2020 04:00:00 9.275 C 8.52 g/m*3 9.28 C 0 km/h
2069 16-01-2020 05:00:00 8.83333 C 8.32 g/m*3 8.83 C 0.26667 km/h
2070 16-01-2020 06:00:00 8.20833 C 8.02 g/m*3 8.21 C 0.13333 km/h
2071 16-01-2020 07:00:00 7.375 C 7.59 g/m*3 7.38 C 0 km/h
2072 16-01-2020 08:00:00 7.00833 C 7.44 g/m*3 7.01 C 0 km/h
2073 16-01-2020 09:00:00 6.24167 C 7.09 g/m*3 6.24 C 0 km/h
2074 16-01-2020 10:00:00 7.1 C 7.57 g/m*3 7.1 C 0 km/h
2075 16-01-2020 11:00:00 7.475 C 7.75 g/m*3 7.48 C 0 km/h
Sensor: Nr:Datum:Temp:Abs-Feuchte:Windchill:Wind:
Aussen-T/F 2076 16-01-2020 12:00:00 7.28333 C 7.66 g/m*3 7.28 C 1.2 km/h
2077 16-01-2020 13:00:00 8.19167 C 8.15 g/m*3 8.19 C 3.34167 km/h
2078 16-01-2020 14:00:00 8.74167 C 8.41 g/m*3 8.74 C 2 km/h
2079 16-01-2020 15:00:00 8.80833 C 8.32 g/m*3 8.81 C 2.8 km/h
2080 16-01-2020 16:00:00 8.375 C 8.01 g/m*3 8.38 C 0.66667 km/h
2081 16-01-2020 17:00:00 7.64167 C 7.67 g/m*3 7.64 C 3.73333 km/h
2082 16-01-2020 18:00:00 7.09167 C 7.41 g/m*3 7.09 C 2.26667 km/h
2083 16-01-2020 19:00:00 6.65 C 7.26 g/m*3 6.65 C 1.46667 km/h
2084 16-01-2020 20:00:00 6.53333 C 7.22 g/m*3 6.53 C 2.26667 km/h
2085 16-01-2020 21:00:00 6.23333 C 7.08 g/m*3 6.23 C 1.06667 km/h
2086 16-01-2020 22:00:00 6.10833 C 7.02 g/m*3 6.11 C 2.4 km/h
2087 16-01-2020 23:00:00 6.79167 C 7.26 g/m*3 6.79 C 4.675 km/h
2088 17-01-2020 00:00:00 6.4 C 6.97 g/m*3 6.4 C 2.4 km/h
2089 17-01-2020 01:00:00 5.7 C 6.71 g/m*3 5.7 C 1.06667 km/h
2090 17-01-2020 02:00:00 5.41667 C 6.6 g/m*3 5.42 C 3.08333 km/h
2091 17-01-2020 03:00:00 4.675 C 6.32 g/m*3 4.68 C 1.46667 km/h
2092 17-01-2020 04:00:00 4.58333 C 6.35 g/m*3 4.58 C 1.06667 km/h
2093 17-01-2020 05:00:00 3.86667 C 6.05 g/m*3 3.87 C 0 km/h
2094 17-01-2020 06:00:00 3.10833 C 5.75 g/m*3 3.11 C 0 km/h
2095 17-01-2020 07:00:00 2.54167 C 5.53 g/m*3 2.54 C 0 km/h
2096 17-01-2020 08:00:00 2.84167 C 5.71 g/m*3 2.84 C 1.2 km/h
2097 17-01-2020 09:00:00 3.20833 C 5.85 g/m*3 3.21 C 0.4 km/h
2098 17-01-2020 10:00:00 4.05 C 6.19 g/m*3 4.05 C 0.26667 km/h
2099 17-01-2020 11:00:00 5.11667 C 6.65 g/m*3 5.12 C 0.13333 km/h
2100 17-01-2020 12:00:00 6.56667 C 7.29 g/m*3 6.57 C 0.66667 km/h
Sensor: Nr:Datum:Temp:Abs-Feuchte:Windchill:Wind:
Aussen-T/F 2101 17-01-2020 13:00:00 8.19167 C 7.92 g/m*3 8.19 C 3.20833 km/h
2102 17-01-2020 14:00:00 9.74167 C 8.27 g/m*3 9.2 C 5.9 km/h
2103 17-01-2020 15:00:00 9.31667 C 8.24 g/m*3 9.32 C 4.14167 km/h
2104 17-01-2020 16:00:00 8.85 C 8.1 g/m*3 8.85 C 3.875 km/h
2105 17-01-2020 17:00:00 8.84167 C 8.09 g/m*3 7.55 C 8.45833 km/h
2106 17-01-2020 18:00:00 8.825 C 7.94 g/m*3 7.5 C 8.59167 km/h
2107 17-01-2020 19:00:00 7.48333 C 7.34 g/m*3 7.48 C 3.75 km/h
2108 17-01-2020 20:00:00 7.275 C 7.35 g/m*3 7.28 C 4.29167 km/h
2109 17-01-2020 21:00:00 7.61667 C 7.02 g/m*3 6.11 C 8.45 km/h
2110 17-01-2020 22:00:00 6.05833 C 6.36 g/m*3 6.06 C 1.73333 km/h
2111 17-01-2020 23:00:00 4.65 C 6.05 g/m*3 4.65 C 0.66667 km/h
2112 18-01-2020 00:00:00 4.04167 C 5.94 g/m*3 4.04 C 1.35 km/h
2113 18-01-2020 01:00:00 4.55833 C 6.16 g/m*3 4.56 C 1.86667 km/h
2114 18-01-2020 02:00:00 4.475 C 6.1 g/m*3 4.47 C 2.275 km/h
2115 18-01-2020 03:00:00 4.925 C 6.09 g/m*3 3.03 C 8.05833 km/h
2116 18-01-2020 04:00:00 4.68333 C 5.94 g/m*3 2.78 C 7.91667 km/h
2117 18-01-2020 05:00:00 4.3 C 5.77 g/m*3 2.6 C 6.975 km/h
2118 18-01-2020 06:00:00 4.04167 C 5.67 g/m*3 1.92 C 8.325 km/h
2119 18-01-2020 07:00:00 4.05 C 5.67 g/m*3 4.05 C 4.94167 km/h
2120 18-01-2020 08:00:00 4.34167 C 5.76 g/m*3 2.73 C 6.70833 km/h
2121 18-01-2020 09:00:00 4.66667 C 5.84 g/m*3 1.99 C 11.29167 km/h
2122 18-01-2020 10:00:00 5.24167 C 5.97 g/m*3 3.3 C 8.475 km/h
2123 18-01-2020 11:00:00 5.8 C 6.08 g/m*3 3.31 C 11.55833 km/h
2124 18-01-2020 12:00:00 6.2 C 6.13 g/m*3 4.02 C 10.34167 km/h
2125 18-01-2020 13:00:00 6.30833 C 6.12 g/m*3 4.37 C 9.28333 km/h
Sensor: Nr:Datum:Temp:Abs-Feuchte:Windchill:Wind:
Aussen-T/F 2126 18-01-2020 14:00:00 6.375 C 6.07 g/m*3 4.64 C 8.45 km/h
2127 18-01-2020 15:00:00 6.69167 C 6.06 g/m*3 4.92 C 8.86667 km/h
2128 18-01-2020 16:00:00 5.825 C 5.91 g/m*3 4.75 C 5.75833 km/h
2129 18-01-2020 17:00:00 4.88333 C 5.75 g/m*3 4.88 C 3.86667 km/h
2130 18-01-2020 18:00:00 3.55833 C 5.47 g/m*3 3.56 C 3.20833 km/h
2131 18-01-2020 19:00:00 2.825 C 5.25 g/m*3 2.83 C 0.93333 km/h
2132 18-01-2020 20:00:00 1.65 C 4.98 g/m*3 1.65 C 0.93333 km/h
2133 18-01-2020 21:00:00 1.725 C 5.11 g/m*3 1.73 C 1.33333 km/h
2134 18-01-2020 22:00:00 2.23333 C 5.25 g/m*3 2.23 C 2.80833 km/h
2135 18-01-2020 23:00:00 3.175 C 5.53 g/m*3 3.18 C 4.00833 km/h
2136 19-01-2020 00:00:00 3.325 C 5.62 g/m*3 3.33 C 2.54167 km/h
2137 19-01-2020 01:00:00 3.18333 C 5.61 g/m*3 3.18 C 2.41667 km/h
2138 19-01-2020 02:00:00 2.83333 C 5.54 g/m*3 2.83 C 0.93333 km/h
2139 19-01-2020 03:00:00 2.84167 C 5.59 g/m*3 2.84 C 0.8 km/h
2140 19-01-2020 04:00:00 3.025 C 5.7 g/m*3 3.03 C 0.53333 km/h
2141 19-01-2020 05:00:00 3.00833 C 5.71 g/m*3 3.01 C 0.53333 km/h
2142 19-01-2020 06:00:00 3.1 C 5.75 g/m*3 3.1 C 0 km/h
2143 19-01-2020 07:00:00 3.18333 C 5.78 g/m*3 3.18 C 0.8 km/h
2144 19-01-2020 08:00:00 3.24167 C 5.8 g/m*3 3.24 C 1.46667 km/h
2145 19-01-2020 09:00:00 3.39167 C 5.85 g/m*3 3.39 C 2.675 km/h
2146 19-01-2020 10:00:00 3.64167 C 5.87 g/m*3 3.64 C 4.675 km/h
2147 19-01-2020 11:00:00 4 C 5.93 g/m*3 4 C 4.14167 km/h
2148 19-01-2020 12:00:00 4.29167 C 6.02 g/m*3 4.29 C 1.46667 km/h
2149 19-01-2020 13:00:00 4.5 C 6.05 g/m*3 4.5 C 3.74167 km/h
2150 19-01-2020 14:00:00 4.86667 C 6.12 g/m*3 4.87 C 4.15 km/h
Sensor: Nr:Datum:Temp:Abs-Feuchte:Windchill:Wind:
Aussen-T/F 2151 19-01-2020 15:00:00 5.00833 C 6.08 g/m*3 3.91 C 5.48333 km/h
2152 19-01-2020 16:00:00 4.975 C 6.1 g/m*3 4.97 C 3.475 km/h
2153 19-01-2020 17:00:00 4.48333 C 6.1 g/m*3 4.48 C 0.66667 km/h
2154 19-01-2020 18:00:00 4.23333 C 6.12 g/m*3 4.23 C 1.06667 km/h
2155 19-01-2020 19:00:00 4.2 C 6.15 g/m*3 4.2 C 1.06667 km/h
2156 19-01-2020 20:00:00 4.10833 C 6.13 g/m*3 4.11 C 0 km/h
2157 19-01-2020 21:00:00 3.99167 C 6.1 g/m*3 3.99 C 0 km/h
2158 19-01-2020 22:00:00 3.95 C 6.08 g/m*3 3.95 C 0 km/h
2159 19-01-2020 23:00:00 3.45833 C 5.88 g/m*3 3.46 C 0.8 km/h
2160 20-01-2020 00:00:00 3.08333 C 5.74 g/m*3 3.08 C 0.4 km/h
2161 20-01-2020 01:00:00 3.21667 C 5.79 g/m*3 3.22 C 0 km/h
2162 20-01-2020 02:00:00 2.8 C 5.64 g/m*3 2.8 C 0.26667 km/h
2163 20-01-2020 03:00:00 2.425 C 5.5 g/m*3 2.42 C 1.2 km/h
2164 20-01-2020 04:00:00 2.3 C 5.49 g/m*3 2.3 C 0.26667 km/h
2165 20-01-2020 05:00:00 2.35833 C 5.51 g/m*3 2.36 C 0 km/h
2166 20-01-2020 06:00:00 2.15833 C 5.45 g/m*3 2.16 C 0 km/h
2167 20-01-2020 07:00:00 1.98333 C 5.38 g/m*3 1.98 C 0 km/h
2168 20-01-2020 08:00:00 1.39167 C 5.16 g/m*3 1.39 C 0.13333 km/h
2169 20-01-2020 09:00:00 2.36667 C 5.53 g/m*3 2.37 C 0 km/h
2170 20-01-2020 10:00:00 3.39167 C 5.93 g/m*3 3.39 C 0 km/h
2171 20-01-2020 11:00:00 3.89167 C 6.08 g/m*3 3.89 C 0.26667 km/h
2172 20-01-2020 12:00:00 4.875 C 5.81 g/m*3 4.88 C 4.7 km/h
2173 20-01-2020 13:00:00 5.61667 C 5.4 g/m*3 4.06 C 7.24167 km/h
2174 20-01-2020 14:00:00 5.78333 C 5.33 g/m*3 5.78 C 4.68333 km/h
2175 20-01-2020 15:00:00 5.575 C 5.35 g/m*3 5.58 C 1.2 km/h
Sensor: Nr:Datum:Temp:Abs-Feuchte:Windchill:Wind:
Aussen-T/F 2176 20-01-2020 16:00:00 4.71667 C 5.5 g/m*3 4.72 C 0.66667 km/h
2177 20-01-2020 17:00:00 2.59167 C 5.02 g/m*3 2.59 C 3.2 km/h
2178 20-01-2020 18:00:00 1.23333 C 4.76 g/m*3 1.23 C 0.26667 km/h
2179 20-01-2020 19:00:00 0.35 C 4.58 g/m*3 0.35 C 0 km/h
2180 20-01-2020 20:00:00 -0.275 C 4.46 g/m*3 -0.28 C 0 km/h
2181 20-01-2020 21:00:00 -0.9 C 4.28 g/m*3 -0.9 C 0 km/h
2182 20-01-2020 22:00:00 -1.21667 C 4.22 g/m*3 -1.22 C 0 km/h
2183 20-01-2020 23:00:00 -1.53333 C 4.14 g/m*3 -1.53 C 0 km/h
2184 21-01-2020 00:00:00 -1.75833 C 4.07 g/m*3 -1.76 C 0 km/h
2185 21-01-2020 01:00:00 -1.925 C 4.04 g/m*3 -1.93 C 0 km/h
2186 21-01-2020 02:00:00 -2.36667 C 3.91 g/m*3 -2.37 C 0 km/h
2187 21-01-2020 03:00:00 -2.6 C 3.87 g/m*3 -2.6 C 0 km/h
2188 21-01-2020 04:00:00 -2.98333 C 3.76 g/m*3 -2.98 C 0.26667 km/h
2189 21-01-2020 05:00:00 -3.175 C 3.71 g/m*3 -3.18 C 0 km/h
2190 21-01-2020 06:00:00 -2.8 C 3.82 g/m*3 -2.8 C 0 km/h
2191 21-01-2020 07:00:00 -2.55833 C 3.89 g/m*3 -2.56 C 0.4 km/h
2192 21-01-2020 08:00:00 -2.74167 C 3.84 g/m*3 -2.74 C 0.93333 km/h
2193 21-01-2020 09:00:00 -2.975 C 3.78 g/m*3 -2.98 C 1.73333 km/h
2194 21-01-2020 10:00:00 -2.76667 C 3.83 g/m*3 -2.77 C 0.4 km/h
2195 21-01-2020 11:00:00 -2.18333 C 4.03 g/m*3 -2.18 C 0 km/h
2196 21-01-2020 12:00:00 -1.21667 C 4.32 g/m*3 -1.22 C 2.4 km/h
2197 21-01-2020 13:00:00 -0.6 C 4.51 g/m*3 -0.6 C 3.73333 km/h
2198 21-01-2020 14:00:00 -0.175 C 4.64 g/m*3 -0.18 C 1.46667 km/h
2199 21-01-2020 15:00:00 0.03333 C 4.71 g/m*3 0.03 C 1.86667 km/h
2200 21-01-2020 16:00:00 -0.175 C 4.64 g/m*3 -0.18 C 0.13333 km/h
Sensor: Nr:Datum:Temp:Abs-Feuchte:Windchill:Wind:
Aussen-T/F 2201 21-01-2020 17:00:00 -0.58333 C 4.51 g/m*3 -0.58 C 0 km/h
2202 21-01-2020 18:00:00 -1.04167 C 4.37 g/m*3 -1.04 C 0 km/h
2203 21-01-2020 19:00:00 -1.3 C 4.29 g/m*3 -1.3 C 0.13333 km/h
2204 21-01-2020 20:00:00 -1.45 C 4.25 g/m*3 -1.45 C 0 km/h
2205 21-01-2020 21:00:00 -1.80833 C 4.14 g/m*3 -1.81 C 0 km/h
2206 21-01-2020 22:00:00 -1.89167 C 4.12 g/m*3 -1.89 C 0 km/h
2207 21-01-2020 23:00:00 -2.21667 C 4.03 g/m*3 -2.22 C 0 km/h
2208 22-01-2020 00:00:00 -2.40833 C 3.97 g/m*3 -2.41 C 0.53333 km/h
2209 22-01-2020 01:00:00 -2.63333 C 3.91 g/m*3 -2.63 C 0.4 km/h
2210 22-01-2020 02:00:00 -2.775 C 3.86 g/m*3 -2.78 C 0.8 km/h
2211 22-01-2020 03:00:00 -2.99167 C 3.77 g/m*3 -2.99 C 1.2 km/h
2212 22-01-2020 04:00:00 -2.91667 C 3.79 g/m*3 -2.92 C 0.8 km/h
2213 22-01-2020 05:00:00 -2.975 C 3.78 g/m*3 -2.98 C 0.93333 km/h
2214 22-01-2020 06:00:00 -2.93333 C 3.79 g/m*3 -2.93 C 1.73333 km/h
2215 22-01-2020 07:00:00 -2.71667 C 3.87 g/m*3 -2.72 C 0.4 km/h
2216 22-01-2020 08:00:00 -2.41667 C 3.95 g/m*3 -2.42 C 3.075 km/h
2217 22-01-2020 09:00:00 -2.29167 C 4.01 g/m*3 -2.29 C 1.46667 km/h
2218 22-01-2020 10:00:00 -2.31667 C 4 g/m*3 -2.32 C 3.20833 km/h
2219 22-01-2020 11:00:00 -1.75 C 4.16 g/m*3 -1.75 C 1.33333 km/h
2220 22-01-2020 12:00:00 -0.925 C 4.41 g/m*3 -0.93 C 1.73333 km/h
2221 22-01-2020 13:00:00 -0.43333 C 4.58 g/m*3 -0.43 C 0.8 km/h
2222 22-01-2020 14:00:00 -0.16667 C 4.66 g/m*3 -0.17 C 0.13333 km/h
2223 22-01-2020 15:00:00 0.09167 C 4.75 g/m*3 0.09 C 0 km/h
2224 22-01-2020 16:00:00 0.28333 C 4.81 g/m*3 0.28 C 0 km/h
2225 22-01-2020 17:00:00 0.3 C 4.85 g/m*3 0.3 C 0 km/h
Sensor: Nr:Datum:Temp:Abs-Feuchte:Windchill:Wind:
Aussen-T/F 2226 22-01-2020 18:00:00 0.25833 C 4.82 g/m*3 0.26 C 0 km/h
2227 22-01-2020 19:00:00 0.35 C 4.86 g/m*3 0.35 C 0 km/h
2228 22-01-2020 20:00:00 0.55833 C 4.93 g/m*3 0.56 C 0 km/h
2229 22-01-2020 21:00:00 0.66667 C 4.97 g/m*3 0.67 C 0 km/h
2230 22-01-2020 22:00:00 0.725 C 4.99 g/m*3 0.73 C 0 km/h
2231 22-01-2020 23:00:00 0.8 C 5.02 g/m*3 0.8 C 0 km/h
2232 23-01-2020 00:00:00 0.85833 C 5.04 g/m*3 0.86 C 0 km/h
2233 23-01-2020 01:00:00 0.9 C 5.05 g/m*3 0.9 C 0 km/h
2234 23-01-2020 02:00:00 1 C 5.09 g/m*3 1 C 0 km/h
2235 23-01-2020 03:00:00 1.1 C 5.12 g/m*3 1.1 C 0 km/h
2236 23-01-2020 04:00:00 1.10833 C 5.12 g/m*3 1.11 C 0 km/h
2237 23-01-2020 05:00:00 1.2 C 5.16 g/m*3 1.2 C 0 km/h
2238 23-01-2020 06:00:00 1.25 C 5.17 g/m*3 1.25 C 0 km/h
2239 23-01-2020 07:00:00 1.34167 C 5.21 g/m*3 1.34 C 0 km/h
2240 23-01-2020 08:00:00 1.5 C 5.26 g/m*3 1.5 C 0 km/h
2241 23-01-2020 09:00:00 1.70833 C 5.34 g/m*3 1.71 C 1.33333 km/h
2242 23-01-2020 10:00:00 1.85833 C 5.39 g/m*3 1.86 C 1.33333 km/h
2243 23-01-2020 11:00:00 2.09167 C 5.48 g/m*3 2.09 C 1.33333 km/h
2244 23-01-2020 12:00:00 2.20833 C 5.52 g/m*3 2.21 C 2.66667 km/h
2245 23-01-2020 13:00:00 2.40833 C 5.56 g/m*3 2.41 C 0.4 km/h
2246 23-01-2020 14:00:00 2.575 C 5.58 g/m*3 2.58 C 1.46667 km/h
2247 23-01-2020 15:00:00 2.65833 C 5.56 g/m*3 2.66 C 0.26667 km/h
2248 23-01-2020 16:00:00 2.6 C 5.5 g/m*3 2.6 C 1.61667 km/h
2249 23-01-2020 17:00:00 2.16667 C 5.33 g/m*3 2.17 C 0.26667 km/h
2250 23-01-2020 18:00:00 0.575 C 4.77 g/m*3 0.57 C 0 km/h
Sensor: Nr:Datum:Temp:Abs-Feuchte:Windchill:Wind:
Aussen-T/F 2251 23-01-2020 19:00:00 -0.09167 C 4.6 g/m*3 -0.09 C 0 km/h
2252 23-01-2020 20:00:00 -0.59167 C 4.46 g/m*3 -0.59 C 0 km/h
2253 23-01-2020 21:00:00 -0.09167 C 4.67 g/m*3 -0.09 C 0 km/h
2254 23-01-2020 22:00:00 0.36667 C 4.82 g/m*3 0.37 C 0 km/h
2255 23-01-2020 23:00:00 0.68333 C 4.93 g/m*3 0.68 C 0 km/h
2256 24-01-2020 00:00:00 0.79167 C 4.96 g/m*3 0.79 C 0.66667 km/h
2257 24-01-2020 01:00:00 0.70833 C 4.89 g/m*3 0.71 C 3.20833 km/h
2258 24-01-2020 02:00:00 0.69167 C 4.82 g/m*3 0.69 C 0.8 km/h
2259 24-01-2020 03:00:00 0.75833 C 4.78 g/m*3 0.76 C 1.33333 km/h
2260 24-01-2020 04:00:00 0.8 C 4.77 g/m*3 0.8 C 1.74167 km/h
2261 24-01-2020 05:00:00 0.725 C 4.74 g/m*3 0.73 C 1.06667 km/h
2262 24-01-2020 06:00:00 0.7 C 4.73 g/m*3 0.7 C 1.86667 km/h
2263 24-01-2020 07:00:00 0.61667 C 4.7 g/m*3 0.62 C 1.6 km/h
2264 24-01-2020 08:00:00 0.58333 C 4.64 g/m*3 0.58 C 2.13333 km/h
2265 24-01-2020 09:00:00 0.625 C 4.65 g/m*3 0.63 C 1.33333 km/h
2266 24-01-2020 10:00:00 0.9 C 4.7 g/m*3 0.9 C 2.93333 km/h
2267 24-01-2020 11:00:00 1.26667 C 4.78 g/m*3 1.27 C 3.2 km/h
2268 24-01-2020 12:00:00 1.78333 C 4.86 g/m*3 0.39 C 5.1 km/h
2269 24-01-2020 13:00:00 2.24167 C 4.92 g/m*3 2.24 C 4.94167 km/h
2270 24-01-2020 14:00:00 2.54167 C 4.98 g/m*3 2.54 C 4.80833 km/h
2271 24-01-2020 15:00:00 2.625 C 5.04 g/m*3 2.63 C 2.93333 km/h
2272 24-01-2020 16:00:00 2.59167 C 5.07 g/m*3 2.59 C 0.66667 km/h
2273 24-01-2020 17:00:00 2.39167 C 5.06 g/m*3 2.39 C 0.13333 km/h
2274 24-01-2020 18:00:00 2.11667 C 5.06 g/m*3 2.12 C 0 km/h
2275 24-01-2020 19:00:00 2.00833 C 5.08 g/m*3 2.01 C 0.66667 km/h
Sensor: Nr:Datum:Temp:Abs-Feuchte:Windchill:Wind:
Aussen-T/F 2276 24-01-2020 20:00:00 2.10833 C 5.15 g/m*3 2.11 C 0.53333 km/h
2277 24-01-2020 21:00:00 1.99091 C 5.11 g/m*3 1.99 C 0.14545 km/h
2278 24-01-2020 22:00:00 1.5 C 4.94 g/m*3 1.5 C 0.26667 km/h
2279 24-01-2020 23:00:00 1.4 C 4.92 g/m*3 1.4 C 0.4 km/h
2280 25-01-2020 00:00:00 1.4 C 4.96 g/m*3 1.4 C 0 km/h
2281 25-01-2020 01:00:00 1.5 C 4.99 g/m*3 1.5 C 0.68571 km/h
2282 25-01-2020 02:00:00 1.39167 C 4.98 g/m*3 1.39 C 0.26667 km/h
2283 25-01-2020 03:00:00 1.31667 C 4.94 g/m*3 1.32 C 0.93333 km/h
2284 25-01-2020 04:00:00 1.225 C 4.93 g/m*3 1.23 C 0.53333 km/h
2285 25-01-2020 05:00:00 1.19167 C 4.89 g/m*3 1.19 C 0.66667 km/h
2286 25-01-2020 06:00:00 1.11667 C 4.87 g/m*3 1.12 C 0 km/h
2287 25-01-2020 07:00:00 1.23333 C 4.93 g/m*3 1.23 C 0 km/h
2288 25-01-2020 08:00:00 1.30833 C 4.98 g/m*3 1.31 C 0 km/h
2289 25-01-2020 09:00:00 1.575 C 5.11 g/m*3 1.58 C 0 km/h
2290 25-01-2020 10:00:00 2 C 5.29 g/m*3 2 C 0 km/h
2291 25-01-2020 11:00:00 2.51667 C 5.52 g/m*3 2.52 C 0 km/h
2292 25-01-2020 12:00:00 3.25 C 5.77 g/m*3 3.25 C 1.46667 km/h
2293 25-01-2020 13:00:00 3.76667 C 5.89 g/m*3 3.77 C 2.26667 km/h
2294 25-01-2020 14:00:00 4.2 C 6.06 g/m*3 4.2 C 0.13333 km/h
2295 25-01-2020 15:00:00 4.51667 C 6.12 g/m*3 4.52 C 0 km/h
2296 25-01-2020 16:00:00 4.54167 C 6.13 g/m*3 4.54 C 0 km/h
2297 25-01-2020 17:00:00 4.35833 C 6.08 g/m*3 4.36 C 1.33333 km/h
2298 25-01-2020 18:00:00 4.16667 C 6.04 g/m*3 4.17 C 0 km/h
2299 25-01-2020 19:00:00 3.91667 C 5.94 g/m*3 3.92 C 0.53333 km/h
2300 25-01-2020 20:00:00 3.79167 C 5.95 g/m*3 3.79 C 0.26667 km/h
Sensor: Nr:Datum:Temp:Abs-Feuchte:Windchill:Wind:
Aussen-T/F 2301 25-01-2020 21:00:00 3.21667 C 5.7 g/m*3 3.22 C 1.33333 km/h
2302 25-01-2020 22:00:00 2.54167 C 5.46 g/m*3 2.54 C 3.2 km/h
2303 25-01-2020 23:00:00 2.06667 C 5.3 g/m*3 2.07 C 2.13333 km/h
2304 26-01-2020 00:00:00 1.8 C 5.21 g/m*3 1.8 C 0 km/h
2305 26-01-2020 01:00:00 1.58333 C 5.18 g/m*3 1.58 C 0 km/h
2306 26-01-2020 02:00:00 1.5 C 5.16 g/m*3 1.5 C 0 km/h
2307 26-01-2020 03:00:00 1.41667 C 5.13 g/m*3 1.42 C 0.4 km/h
2308 26-01-2020 04:00:00 1.3 C 5.09 g/m*3 1.3 C 0 km/h
2309 26-01-2020 05:00:00 1.3 C 5.09 g/m*3 1.3 C 0 km/h
2310 26-01-2020 06:00:00 1.3 C 5.09 g/m*3 1.3 C 0 km/h
2311 26-01-2020 07:00:00 1.4 C 5.12 g/m*3 1.4 C 0 km/h
2312 26-01-2020 08:00:00 1.4 C 5.12 g/m*3 1.4 C 0 km/h
2313 26-01-2020 09:00:00 1.49167 C 5.15 g/m*3 1.49 C 0 km/h
2314 26-01-2020 10:00:00 1.725 C 5.23 g/m*3 1.73 C 0 km/h
2315 26-01-2020 11:00:00 2.625 C 5.52 g/m*3 2.63 C 0 km/h
2316 26-01-2020 12:00:00 3.93333 C 5.99 g/m*3 3.93 C 0.26667 km/h
2317 26-01-2020 13:00:00 4.73333 C 6.28 g/m*3 4.73 C 0 km/h
2318 26-01-2020 14:00:00 5.29167 C 6.52 g/m*3 5.29 C 0.26667 km/h
2319 26-01-2020 15:00:00 6.24167 C 6.83 g/m*3 6.24 C 2.4 km/h
2320 26-01-2020 16:00:00 5.14167 C 6.32 g/m*3 5.14 C 1.33333 km/h
2321 26-01-2020 17:00:00 4.325 C 6.07 g/m*3 4.33 C 4.8 km/h
2322 26-01-2020 18:00:00 4.4 C 6.13 g/m*3 4.4 C 3.86667 km/h
2323 26-01-2020 19:00:00 4.025 C 5.96 g/m*3 4.03 C 1.33333 km/h
2324 26-01-2020 20:00:00 3.74167 C 5.88 g/m*3 3.74 C 0 km/h
2325 26-01-2020 21:00:00 3.125 C 5.68 g/m*3 3.13 C 0 km/h
Sensor: Nr:Datum:Temp:Abs-Feuchte:Windchill:Wind:
Aussen-T/F 2326 26-01-2020 22:00:00 1.95833 C 5.26 g/m*3 1.96 C 0.13333 km/h
2327 26-01-2020 23:00:00 1.68333 C 5.21 g/m*3 1.68 C 0.4 km/h
2328 27-01-2020 00:00:00 2.59167 C 5.6 g/m*3 2.59 C 0 km/h
2329 27-01-2020 01:00:00 2.24167 C 5.43 g/m*3 2.24 C 0 km/h
2330 27-01-2020 02:00:00 2.29167 C 5.48 g/m*3 2.29 C 0 km/h
2331 27-01-2020 03:00:00 3.15 C 5.83 g/m*3 3.15 C 0.26667 km/h
2332 27-01-2020 04:00:00 3.975 C 6.18 g/m*3 3.98 C 0.66667 km/h
2333 27-01-2020 05:00:00 4.6 C 6.45 g/m*3 4.6 C 0 km/h
2334 27-01-2020 06:00:00 5.66667 C 6.95 g/m*3 5.67 C 3.08333 km/h
2335 27-01-2020 07:00:00 6.66667 C 7.41 g/m*3 6.67 C 2.54167 km/h
2336 27-01-2020 08:00:00 6.5 C 7.27 g/m*3 6.5 C 2.4 km/h
2337 27-01-2020 09:00:00 7.21667 C 7.54 g/m*3 7.22 C 3.49167 km/h
2338 27-01-2020 10:00:00 8.36667 C 7.63 g/m*3 8.37 C 4 km/h
2339 27-01-2020 11:00:00 8.65 C 7.67 g/m*3 8.65 C 3.88333 km/h
2340 27-01-2020 12:00:00 9.1 C 7.76 g/m*3 8.18 C 6.99167 km/h
2341 27-01-2020 13:00:00 8.975 C 7.66 g/m*3 7.52 C 9.39167 km/h
2342 27-01-2020 14:00:00 8.08333 C 7.63 g/m*3 8.08 C 3.34167 km/h
2343 27-01-2020 15:00:00 7.75833 C 7.52 g/m*3 7.76 C 4.69167 km/h
2344 27-01-2020 16:00:00 7.45 C 7.41 g/m*3 7.45 C 2 km/h
2345 27-01-2020 17:00:00 7.25 C 7.33 g/m*3 7.25 C 2.66667 km/h
2346 27-01-2020 18:00:00 7.24167 C 7.27 g/m*3 7.24 C 2.275 km/h
2347 27-01-2020 19:00:00 7.28333 C 7.29 g/m*3 7.28 C 1.33333 km/h
2348 27-01-2020 20:00:00 6.78333 C 7.18 g/m*3 6.78 C 1.46667 km/h
2349 27-01-2020 21:00:00 6.33333 C 7.04 g/m*3 6.33 C 1.34167 km/h
2350 27-01-2020 22:00:00 6.25833 C 7.01 g/m*3 6.26 C 3.475 km/h
Sensor: Nr:Datum:Temp:Abs-Feuchte:Windchill:Wind:
Aussen-T/F 2351 27-01-2020 23:00:00 6.53333 C 7.12 g/m*3 6.53 C 4.41667 km/h
2352 28-01-2020 00:00:00 6.9 C 7.15 g/m*3 5.63 C 6.96667 km/h
2353 28-01-2020 01:00:00 7.61667 C 7.3 g/m*3 5.53 C 11.40833 km/h
2354 28-01-2020 02:00:00 7.79167 C 7.34 g/m*3 5.44 C 13.29167 km/h
2355 28-01-2020 03:00:00 8.03333 C 7.33 g/m*3 5.43 C 15.43333 km/h
2356 28-01-2020 04:00:00 6.81667 C 7.02 g/m*3 5.26 C 8.04167 km/h
2357 28-01-2020 05:00:00 6.63333 C 6.99 g/m*3 5.55 C 6.15833 km/h
2358 28-01-2020 06:00:00 6.425 C 6.87 g/m*3 3.74 C 13.43333 km/h
2359 28-01-2020 07:00:00 5.25 C 6.47 g/m*3 3.03 C 9.65833 km/h
2360 28-01-2020 08:00:00 5.01667 C 6.38 g/m*3 2.81 C 9.41667 km/h
2361 28-01-2020 09:00:00 4.94167 C 6.33 g/m*3 1.98 C 13.14167 km/h
2362 28-01-2020 10:00:00 4.8 C 6.2 g/m*3 2.1 C 11.56667 km/h
2363 28-01-2020 11:00:00 5.45833 C 6.3 g/m*3 1.99 C 17.3 km/h
2364 28-01-2020 12:00:00 6.2 C 6.09 g/m*3 2.84 C 17.83333 km/h
2365 28-01-2020 13:00:00 6.64167 C 5.88 g/m*3 3.43 C 17.56667 km/h
2366 28-01-2020 14:00:00 6.33333 C 5.71 g/m*3 2.71 C 20.375 km/h
2367 28-01-2020 15:00:00 6.35833 C 5.64 g/m*3 2.94 C 18.64167 km/h
2368 28-01-2020 16:00:00 5.35833 C 5.42 g/m*3 2.31 C 14.225 km/h
2369 28-01-2020 17:00:00 4.65 C 5.17 g/m*3 1.72 C 12.63333 km/h
2370 28-01-2020 18:00:00 4.21667 C 5.18 g/m*3 1.45 C 11.275 km/h
2371 28-01-2020 19:00:00 4.34167 C 5.19 g/m*3 1 C 14.63333 km/h
2372 28-01-2020 20:00:00 4.34167 C 5.31 g/m*3 0.5 C 17.96667 km/h
2373 28-01-2020 21:00:00 4.14167 C 5.33 g/m*3 1.07 C 12.76667 km/h
2374 28-01-2020 22:00:00 4.05833 C 5.41 g/m*3 1.9 C 8.46667 km/h
2375 28-01-2020 23:00:00 4.375 C 5.57 g/m*3 2.42 C 7.91667 km/h
Sensor: Nr:Datum:Temp:Abs-Feuchte:Windchill:Wind:
Aussen-T/F 2376 29-01-2020 00:00:00 4.45833 C 5.62 g/m*3 1.66 C 11.7 km/h
2377 29-01-2020 01:00:00 4 C 5.67 g/m*3 1.48 C 9.94167 km/h
2378 29-01-2020 02:00:00 3.91667 C 5.71 g/m*3 0.92 C 12.1 km/h
2379 29-01-2020 03:00:00 3.59167 C 5.69 g/m*3 2.23 C 5.64167 km/h
2380 29-01-2020 04:00:00 3.475 C 5.64 g/m*3 3.48 C 4.425 km/h
2381 29-01-2020 05:00:00 4.05833 C 5.65 g/m*3 1.67 C 9.40833 km/h
2382 29-01-2020 06:00:00 3.975 C 5.59 g/m*3 1.95 C 7.93333 km/h
2383 29-01-2020 07:00:00 4.18333 C 5.61 g/m*3 1.72 C 9.825 km/h
2384 29-01-2020 08:00:00 4.425 C 5.6 g/m*3 1.81 C 10.75 km/h
2385 29-01-2020 09:00:00 4.725 C 5.67 g/m*3 1.67 C 13.43333 km/h
2386 29-01-2020 10:00:00 4.80833 C 5.79 g/m*3 2.11 C 11.56667 km/h
2387 29-01-2020 11:00:00 5.45833 C 5.95 g/m*3 2.63 C 13.03333 km/h
2388 29-01-2020 12:00:00 6.59167 C 5.99 g/m*3 3.75 C 14.76667 km/h
2389 29-01-2020 13:00:00 7.16667 C 5.47 g/m*3 3.97 C 18.5 km/h
2390 29-01-2020 14:00:00 7.5 C 5.2 g/m*3 4.44 C 18.1 km/h
2391 29-01-2020 15:00:00 7.25833 C 5.05 g/m*3 4.05 C 18.775 km/h
2392 29-01-2020 16:00:00 7.275 C 5.1 g/m*3 4.66 C 14.23333 km/h
2393 29-01-2020 17:00:00 6.14167 C 5.17 g/m*3 4.43 C 8.18333 km/h
2394 29-01-2020 18:00:00 4.31667 C 5.1 g/m*3 4.32 C 4.66667 km/h
2395 29-01-2020 19:00:00 3.375 C 5.11 g/m*3 3.38 C 4 km/h
2396 29-01-2020 20:00:00 2.86667 C 5.14 g/m*3 2.87 C 2.66667 km/h
2397 29-01-2020 21:00:00 3.11667 C 5.37 g/m*3 3.12 C 4.275 km/h
2398 29-01-2020 22:00:00 3.475 C 5.6 g/m*3 3.48 C 4.55 km/h
2399 29-01-2020 23:00:00 5.05 C 6.08 g/m*3 3.6 C 6.55833 km/h
2400 30-01-2020 00:00:00 5.8 C 6.19 g/m*3 3.89 C 8.75 km/h
Sensor: Nr:Datum:Temp:Abs-Feuchte:Windchill:Wind:
Aussen-T/F 2401 30-01-2020 01:00:00 6.19167 C 6.27 g/m*3 3.85 C 11.15833 km/h
2402 30-01-2020 02:00:00 6.25833 C 6.3 g/m*3 5.21 C 5.88333 km/h
2403 30-01-2020 03:00:00 6.2 C 6.37 g/m*3 4.53 C 8.05 km/h
2404 30-01-2020 04:00:00 6.15 C 6.31 g/m*3 3.75 C 11.425 km/h
2405 30-01-2020 05:00:00 5.425 C 6.19 g/m*3 3.03 C 10.63333 km/h
2406 30-01-2020 06:00:00 5.35 C 6.17 g/m*3 2.86 C 11.03333 km/h
2407 30-01-2020 07:00:00 5.475 C 6.14 g/m*3 3.18 C 10.21667 km/h
2408 30-01-2020 08:00:00 5.23333 C 6.15 g/m*3 5.23 C 2.55 km/h
2409 30-01-2020 09:00:00 6.05 C 6.42 g/m*3 6.05 C 4.01667 km/h
2410 30-01-2020 10:00:00 7 C 6.65 g/m*3 4.96 C 10.475 km/h
2411 30-01-2020 11:00:00 7.78333 C 6.98 g/m*3 5.77 C 11.15833 km/h
2412 30-01-2020 12:00:00 8.53333 C 7.16 g/m*3 5.97 C 16.1 km/h
2413 30-01-2020 13:00:00 9.58333 C 7.24 g/m*3 7.8 C 12.09167 km/h
2414 30-01-2020 14:00:00 10.39167 C 7.19 g/m*3 10.39 C 2.80833 km/h
2415 30-01-2020 15:00:00 10.75833 C 7.12 g/m*3 10.76 C 2.53333 km/h
2416 30-01-2020 16:00:00 10.04167 C 7.03 g/m*3 10.04 C 3.06667 km/h
2417 30-01-2020 17:00:00 9.40833 C 7.22 g/m*3 9.41 C 4.81667 km/h
2418 30-01-2020 18:00:00 9.56667 C 7.51 g/m*3 8.57 C 7.65 km/h
2419 30-01-2020 19:00:00 9.3 C 7.92 g/m*3 8.14 C 8.19167 km/h
2420 30-01-2020 20:00:00 9.725 C 8.13 g/m*3 7.71 C 13.96667 km/h
2421 30-01-2020 21:00:00 10.15833 C 8.38 g/m*3 8.12 C 14.9 km/h
2422 30-01-2020 22:00:00 10.575 C 8.69 g/m*3 8.18 C 19.16667 km/h
2423 30-01-2020 23:00:00 11.00833 C 9.04 g/m*3 11.01 C 13.43333 km/h
2424 31-01-2020 00:00:00 11.85 C 9.48 g/m*3 11.85 C 14.63333 km/h
2425 31-01-2020 01:00:00 12.7 C 9.9 g/m*3 12.7 C 19.175 km/h
Sensor: Nr:Datum:Temp:Abs-Feuchte:Windchill:Wind:
Aussen-T/F 2426 31-01-2020 02:00:00 13.225 C 10.05 g/m*3 13.23 C 22.24167 km/h
2427 31-01-2020 03:00:00 13.23333 C 10.04 g/m*3 13.23 C 12.75833 km/h
2428 31-01-2020 04:00:00 13.11667 C 10.05 g/m*3 13.12 C 11.825 km/h
2429 31-01-2020 05:00:00 12.94167 C 9.95 g/m*3 12.94 C 9.00833 km/h
2430 31-01-2020 06:00:00 12.85833 C 9.85 g/m*3 12.86 C 7.10833 km/h
2431 31-01-2020 07:00:00 12.49167 C 9.68 g/m*3 12.49 C 5.49167 km/h
2432 31-01-2020 08:00:00 12.66667 C 9.7 g/m*3 12.67 C 7.65833 km/h
2433 31-01-2020 09:00:00 13.075 C 9.7 g/m*3 13.08 C 11.56667 km/h
2434 31-01-2020 10:00:00 13.46667 C 9.69 g/m*3 13.47 C 12.76667 km/h
2435 31-01-2020 11:00:00 13.73333 C 9.58 g/m*3 13.73 C 15.43333 km/h
2436 31-01-2020 12:00:00 13.775 C 9.4 g/m*3 13.78 C 17.3 km/h
2437 31-01-2020 13:00:00 14.40833 C 9.55 g/m*3 14.41 C 19.175 km/h
2438 31-01-2020 14:00:00 14.30833 C 9.62 g/m*3 14.31 C 15.16667 km/h
2439 31-01-2020 15:00:00 13.79167 C 9.43 g/m*3 13.79 C 18.90833 km/h
2440 31-01-2020 16:00:00 13 C 9.18 g/m*3 13 C 15.16667 km/h
2441 31-01-2020 17:00:00 12.5 C 8.98 g/m*3 12.5 C 16.9 km/h
2442 31-01-2020 18:00:00 12.3 C 9.08 g/m*3 12.3 C 15.3 km/h
2443 31-01-2020 19:00:00 12.70833 C 9.27 g/m*3 12.71 C 14.1 km/h
2444 31-01-2020 20:00:00 12.61667 C 9.33 g/m*3 12.62 C 13.95833 km/h
2445 31-01-2020 21:00:00 12.55833 C 9.39 g/m*3 12.56 C 18.50833 km/h
2446 31-01-2020 22:00:00 12.78333 C 9.32 g/m*3 12.78 C 21.3 km/h
2447 31-01-2020 23:00:00 12.8 C 9.37 g/m*3 12.8 C 15.55833 km/h
2448 01-02-2020 00:00:00 12.76667 C 9.39 g/m*3 12.77 C 14.76667 km/h
2449 01-02-2020 01:00:00 12.54167 C 9.28 g/m*3 12.54 C 10.48333 km/h
2450 01-02-2020 02:00:00 12.15833 C 8.93 g/m*3 12.16 C 11.69167 km/h
Sensor: Nr:Datum:Temp:Abs-Feuchte:Windchill:Wind:
Aussen-T/F 2451 01-02-2020 03:00:00 12.21667 C 9 g/m*3 12.22 C 14.89167 km/h
2452 01-02-2020 04:00:00 12.25833 C 9.07 g/m*3 12.26 C 11.81667 km/h
2453 01-02-2020 05:00:00 12.05833 C 9.13 g/m*3 12.06 C 8.05 km/h
2454 01-02-2020 06:00:00 12.14167 C 9.3 g/m*3 12.14 C 8.46667 km/h
2455 01-02-2020 07:00:00 12.325 C 9.47 g/m*3 12.33 C 10.75 km/h
2456 01-02-2020 08:00:00 12.025 C 9.69 g/m*3 12.03 C 7.25 km/h
2457 01-02-2020 09:00:00 12.05833 C 9.86 g/m*3 12.06 C 7.79167 km/h
2458 01-02-2020 10:00:00 12.63333 C 10.13 g/m*3 12.63 C 12.35833 km/h
2459 01-02-2020 11:00:00 12.66667 C 10.22 g/m*3 12.67 C 13.3 km/h
2460 01-02-2020 12:00:00 12.6 C 10.24 g/m*3 12.6 C 13.96667 km/h
2461 01-02-2020 13:00:00 12.53333 C 10.26 g/m*3 12.53 C 12.23333 km/h
2462 01-02-2020 14:00:00 11.93333 C 10.03 g/m*3 11.93 C 8.725 km/h
2463 01-02-2020 15:00:00 11.1 C 9.49 g/m*3 11.1 C 4.275 km/h
2464 01-02-2020 16:00:00 11.06667 C 9.36 g/m*3 11.07 C 5.48333 km/h
2465 01-02-2020 17:00:00 11.16667 C 9.22 g/m*3 11.17 C 8.875 km/h
2466 01-02-2020 18:00:00 11.41667 C 8.94 g/m*3 11.42 C 9.14167 km/h
2467 01-02-2020 19:00:00 11.20833 C 9.04 g/m*3 11.21 C 11.53333 km/h
2468 01-02-2020 20:00:00 10.55 C 8.72 g/m*3 9.44 C 9.13333 km/h
2469 01-02-2020 21:00:00 10 C 7.63 g/m*3 7.96 C 14.63333 km/h
2470 01-02-2020 22:00:00 9.39167 C 7.16 g/m*3 7.54 C 12.23333 km/h
2471 01-02-2020 23:00:00 8.58333 C 6.79 g/m*3 7.13 C 8.99167 km/h
2472 02-02-2020 00:00:00 8.15 C 6.69 g/m*3 6.56 C 9.26667 km/h
2473 02-02-2020 01:00:00 8.18333 C 6.73 g/m*3 6.52 C 9.66667 km/h
2474 02-02-2020 02:00:00 8.15 C 6.78 g/m*3 6.23 C 11.03333 km/h
2475 02-02-2020 03:00:00 8.18333 C 6.71 g/m*3 5.91 C 13.3 km/h
Sensor: Nr:Datum:Temp:Abs-Feuchte:Windchill:Wind:
Aussen-T/F 2476 02-02-2020 04:00:00 7.83333 C 6.6 g/m*3 5.86 C 11.01667 km/h
2477 02-02-2020 05:00:00 7.325 C 6.54 g/m*3 5.55 C 9.40833 km/h
2478 02-02-2020 06:00:00 7.2 C 6.67 g/m*3 7.2 C 4.28333 km/h
2479 02-02-2020 07:00:00 7.10833 C 7.07 g/m*3 7.11 C 0.66667 km/h
2480 02-02-2020 08:00:00 7.1 C 7.32 g/m*3 7.1 C 0.13333 km/h
2481 02-02-2020 09:00:00 7.01667 C 7.37 g/m*3 7.02 C 0.13333 km/h
2482 02-02-2020 10:00:00 7.44167 C 7.66 g/m*3 7.44 C 0 km/h
2483 02-02-2020 11:00:00 8.03333 C 7.96 g/m*3 8.03 C 1.475 km/h
2484 02-02-2020 12:00:00 10.01667 C 9.16 g/m*3 9.1 C 7.65 km/h
2485 02-02-2020 13:00:00 12.39167 C 10.24 g/m*3 12.39 C 18.63333 km/h
2486 02-02-2020 14:00:00 13.28333 C 10.48 g/m*3 13.28 C 17.43333 km/h
2487 02-02-2020 15:00:00 13.625 C 10.55 g/m*3 13.63 C 9.4 km/h
2488 02-02-2020 16:00:00 14.01667 C 9.84 g/m*3 14.02 C 16.76667 km/h
2489 02-02-2020 17:00:00 13.90833 C 9.11 g/m*3 13.91 C 16.63333 km/h
2490 02-02-2020 18:00:00 13.26667 C 8.93 g/m*3 13.27 C 14.63333 km/h
2491 02-02-2020 19:00:00 13.09167 C 8.49 g/m*3 13.09 C 19.725 km/h
2492 02-02-2020 20:00:00 12.63333 C 8.54 g/m*3 12.63 C 13.15833 km/h
2493 02-02-2020 21:00:00 12.34167 C 8.38 g/m*3 12.34 C 14.5 km/h
2494 02-02-2020 22:00:00 12.21667 C 8.31 g/m*3 12.22 C 12.5 km/h
2495 02-02-2020 23:00:00 11.95 C 8.27 g/m*3 11.95 C 8.875 km/h
2496 03-02-2020 00:00:00 11.3 C 8.02 g/m*3 11.3 C 12.48333 km/h
2497 03-02-2020 01:00:00 10.14167 C 8.02 g/m*3 8.79 C 10.09167 km/h
2498 03-02-2020 02:00:00 10.475 C 8.04 g/m*3 8.05 C 19.18333 km/h
2499 03-02-2020 03:00:00 10.70833 C 8.19 g/m*3 8.32 C 19.45 km/h
2500 03-02-2020 04:00:00 10.35833 C 8.35 g/m*3 8.48 C 13.96667 km/h
Sensor: Nr:Datum:Temp:Abs-Feuchte:Windchill:Wind:
Aussen-T/F 2501 03-02-2020 05:00:00 10.45 C 8.41 g/m*3 9.45 C 8.45 km/h
2502 03-02-2020 06:00:00 10.56667 C 8.34 g/m*3 9.06 C 11.56667 km/h
2503 03-02-2020 07:00:00 10.625 C 8.24 g/m*3 9.19 C 11.16667 km/h
2504 03-02-2020 08:00:00 10.36667 C 8.13 g/m*3 8.8 C 11.7 km/h
2505 03-02-2020 09:00:00 10.49167 C 8.17 g/m*3 8.96 C 11.68333 km/h
2506 03-02-2020 10:00:00 10.95 C 8.24 g/m*3 9.38 C 12.625 km/h
2507 03-02-2020 11:00:00 12.05833 C 7.85 g/m*3 12.06 C 17.56667 km/h
2508 03-02-2020 12:00:00 12.29167 C 7.73 g/m*3 12.29 C 17.16667 km/h
2509 03-02-2020 13:00:00 12.26667 C 7.83 g/m*3 12.27 C 14.9 km/h
2510 03-02-2020 14:00:00 12.175 C 8.06 g/m*3 12.18 C 15.83333 km/h
2511 03-02-2020 15:00:00 12.1 C 7.97 g/m*3 12.1 C 13.43333 km/h
2512 03-02-2020 16:00:00 11.99167 C 7.57 g/m*3 11.99 C 13.7 km/h
2513 03-02-2020 17:00:00 11.45 C 7.67 g/m*3 11.45 C 8.31667 km/h
2514 03-02-2020 18:00:00 10.95 C 7.69 g/m*3 10.01 C 8.58333 km/h
2515 03-02-2020 19:00:00 9.875 C 7.94 g/m*3 9.12 C 6.85 km/h
2516 03-02-2020 20:00:00 8.83333 C 8.06 g/m*3 8.83 C 0.8 km/h
2517 03-02-2020 21:00:00 8.56667 C 8.07 g/m*3 8.57 C 0.26667 km/h
2518 03-02-2020 22:00:00 8.09167 C 7.89 g/m*3 8.09 C 0.93333 km/h
2519 03-02-2020 23:00:00 7.41667 C 7.56 g/m*3 7.42 C 4.29167 km/h
2520 04-02-2020 00:00:00 6.43333 C 7.06 g/m*3 5.63 C 5.23333 km/h
2521 04-02-2020 01:00:00 5.775 C 6.7 g/m*3 3.57 C 10.05833 km/h
2522 04-02-2020 02:00:00 4.95833 C 6.27 g/m*3 1.61 C 15.56667 km/h
2523 04-02-2020 03:00:00 4.80833 C 6.22 g/m*3 2.06 C 11.825 km/h
2524 04-02-2020 04:00:00 4.8 C 6.15 g/m*3 2 C 12.08333 km/h
2525 04-02-2020 05:00:00 4.56667 C 6.05 g/m*3 2.61 C 8.04167 km/h
Sensor: Nr:Datum:Temp:Abs-Feuchte:Windchill:Wind:
Aussen-T/F 2526 04-02-2020 06:00:00 4.99167 C 5.95 g/m*3 3.14 C 7.94167 km/h
2527 04-02-2020 07:00:00 4.81667 C 5.87 g/m*3 2.22 C 11.03333 km/h
2528 04-02-2020 08:00:00 4.34167 C 5.79 g/m*3 1.24 C 13.16667 km/h
2529 04-02-2020 09:00:00 4.4 C 5.85 g/m*3 1.7 C 11.15833 km/h
2530 04-02-2020 10:00:00 4.50833 C 6.02 g/m*3 3.44 C 5.21667 km/h
2531 04-02-2020 11:00:00 5.20833 C 6.16 g/m*3 2.47 C 12.23333 km/h
2532 04-02-2020 12:00:00 4.675 C 6.02 g/m*3 1.95 C 11.525 km/h
2533 04-02-2020 13:00:00 5.15 C 6.03 g/m*3 2.14 C 13.69167 km/h
2534 04-02-2020 14:00:00 6.19167 C 5.82 g/m*3 3.27 C 14.63333 km/h
2535 04-02-2020 15:00:00 5.85 C 5.92 g/m*3 2.93 C 14.1 km/h
2536 04-02-2020 16:00:00 5.29167 C 6.02 g/m*3 2.72 C 11.43333 km/h
2537 04-02-2020 17:00:00 5.1 C 6.06 g/m*3 3.24 C 8.05833 km/h
2538 04-02-2020 18:00:00 4.98333 C 6.04 g/m*3 2.8 C 9.275 km/h
2539 04-02-2020 19:00:00 5.05833 C 6.07 g/m*3 5.06 C 3.60833 km/h
2540 04-02-2020 20:00:00 4.75833 C 6.09 g/m*3 4.76 C 3.2 km/h
2541 04-02-2020 21:00:00 4.7 C 6.12 g/m*3 4.7 C 1.33333 km/h
2542 04-02-2020 22:00:00 4.675 C 6.16 g/m*3 4.68 C 2.4 km/h
2543 04-02-2020 23:00:00 4.675 C 6.1 g/m*3 4.68 C 2.13333 km/h
2544 05-02-2020 00:00:00 4.79167 C 6.08 g/m*3 4.79 C 2.68333 km/h
2545 05-02-2020 01:00:00 5.2 C 6.01 g/m*3 3.32 C 8.19167 km/h
2546 05-02-2020 02:00:00 5.44167 C 6.04 g/m*3 3.71 C 7.775 km/h
2547 05-02-2020 03:00:00 5.3 C 6.2 g/m*3 3.81 C 6.83333 km/h
2548 05-02-2020 04:00:00 4.625 C 5.98 g/m*3 2.98 C 6.99167 km/h
2549 05-02-2020 05:00:00 4.15833 C 5.83 g/m*3 4.16 C 4.675 km/h
2550 05-02-2020 06:00:00 4.45833 C 5.99 g/m*3 4.46 C 4.95833 km/h
Sensor: Nr:Datum:Temp:Abs-Feuchte:Windchill:Wind:
Aussen-T/F 2551 05-02-2020 07:00:00 4.04167 C 5.73 g/m*3 4.04 C 4.425 km/h
2552 05-02-2020 08:00:00 3.1 C 5.48 g/m*3 3.1 C 0.93333 km/h
2553 05-02-2020 09:00:00 2.83333 C 5.48 g/m*3 2.83 C 1.73333 km/h
2554 05-02-2020 10:00:00 4.36667 C 5.82 g/m*3 2.98 C 6.05 km/h
2555 05-02-2020 11:00:00 5.425 C 5.7 g/m*3 3.45 C 8.75 km/h
2556 05-02-2020 12:00:00 5.85833 C 5.67 g/m*3 4 C 8.6 km/h
2557 05-02-2020 13:00:00 6.09167 C 5.58 g/m*3 4.73 C 6.84167 km/h
2558 05-02-2020 14:00:00 6.35833 C 5.64 g/m*3 6.36 C 4.41667 km/h
2559 05-02-2020 15:00:00 5.56667 C 5.71 g/m*3 5.57 C 2.93333 km/h
2560 05-02-2020 16:00:00 4.86667 C 5.69 g/m*3 4.87 C 3.86667 km/h
2561 05-02-2020 17:00:00 3.675 C 5.46 g/m*3 2.45 C 5.33333 km/h
2562 05-02-2020 18:00:00 2.45833 C 5.13 g/m*3 2.46 C 2.8 km/h
2563 05-02-2020 19:00:00 1.30833 C 4.87 g/m*3 1.31 C 0.26667 km/h
2564 05-02-2020 20:00:00 0.525 C 4.68 g/m*3 0.53 C 0 km/h
2565 05-02-2020 21:00:00 0.21667 C 4.62 g/m*3 0.22 C 0.13333 km/h
2566 05-02-2020 22:00:00 -0.16667 C 4.53 g/m*3 -0.17 C 0 km/h
2567 05-02-2020 23:00:00 -0.16667 C 4.55 g/m*3 -0.17 C 0.8 km/h
2568 06-02-2020 00:00:00 -0.35 C 4.49 g/m*3 -0.35 C 0.8 km/h
2569 06-02-2020 01:00:00 -0.125 C 4.59 g/m*3 -0.13 C 0.4 km/h
2570 06-02-2020 02:00:00 -0.15833 C 4.56 g/m*3 -0.16 C 0.66667 km/h
2571 06-02-2020 03:00:00 -0.64167 C 4.4 g/m*3 -0.64 C 0.13333 km/h
2572 06-02-2020 04:00:00 -0.73333 C 4.41 g/m*3 -0.73 C 0 km/h
2573 06-02-2020 05:00:00 -0.85 C 4.39 g/m*3 -0.85 C 0 km/h
2574 06-02-2020 06:00:00 -1.04167 C 4.33 g/m*3 -1.04 C 0.26667 km/h
2575 06-02-2020 07:00:00 -1.275 C 4.26 g/m*3 -1.27 C 0.4 km/h
Sensor: Nr:Datum:Temp:Abs-Feuchte:Windchill:Wind:
Aussen-T/F 2576 06-02-2020 08:00:00 -0.93333 C 4.36 g/m*3 -0.93 C 0.26667 km/h
2577 06-02-2020 09:00:00 -0.5 C 4.5 g/m*3 -0.5 C 1.73333 km/h
2578 06-02-2020 10:00:00 -0.10833 C 4.65 g/m*3 -0.11 C 3.06667 km/h
2579 06-02-2020 11:00:00 0.425 C 4.84 g/m*3 0.43 C 3.74167 km/h
2580 06-02-2020 12:00:00 1.63333 C 5.26 g/m*3 1.63 C 1.2 km/h
2581 06-02-2020 13:00:00 2.98333 C 5.63 g/m*3 2.98 C 1.33333 km/h
2582 06-02-2020 14:00:00 4.50833 C 5.94 g/m*3 4.51 C 0.66667 km/h
2583 06-02-2020 15:00:00 5.35833 C 5.98 g/m*3 5.36 C 0.4 km/h
2584 06-02-2020 16:00:00 5.75833 C 5.72 g/m*3 5.76 C 0 km/h
2585 06-02-2020 17:00:00 4.125 C 5.44 g/m*3 4.13 C 2.93333 km/h
2586 06-02-2020 18:00:00 2.14167 C 5.03 g/m*3 2.14 C 3.33333 km/h
2587 06-02-2020 19:00:00 1.01667 C 4.77 g/m*3 1.02 C 0.13333 km/h
2588 06-02-2020 20:00:00 0.09167 C 4.56 g/m*3 0.09 C 0 km/h
2589 06-02-2020 21:00:00 -0.45833 C 4.42 g/m*3 -0.46 C 0 km/h
2590 06-02-2020 22:00:00 -0.84167 C 4.34 g/m*3 -0.84 C 0 km/h
2591 06-02-2020 23:00:00 -1.2 C 4.24 g/m*3 -1.2 C 0 km/h
2592 07-02-2020 00:00:00 -1.51667 C 4.15 g/m*3 -1.52 C 0 km/h
2593 07-02-2020 01:00:00 -1.69167 C 4.1 g/m*3 -1.69 C 0 km/h
2594 07-02-2020 02:00:00 -1.49167 C 4.19 g/m*3 -1.49 C 0 km/h
2595 07-02-2020 03:00:00 -1.2 C 4.28 g/m*3 -1.2 C 0.26667 km/h
2596 07-02-2020 04:00:00 -1.19167 C 4.28 g/m*3 -1.19 C 0.26667 km/h
2597 07-02-2020 05:00:00 -1.35 C 4.24 g/m*3 -1.35 C 0.13333 km/h
2598 07-02-2020 06:00:00 -1.50833 C 4.21 g/m*3 -1.51 C 1.06667 km/h
2599 07-02-2020 07:00:00 -1.625 C 4.17 g/m*3 -1.63 C 0 km/h
2600 07-02-2020 08:00:00 -1.63333 C 4.19 g/m*3 -1.63 C 0.26667 km/h
Sensor: Nr:Datum:Temp:Abs-Feuchte:Windchill:Wind:
Aussen-T/F 2601 07-02-2020 09:00:00 -1.41667 C 4.26 g/m*3 -1.42 C 0 km/h
2602 07-02-2020 10:00:00 -1.08333 C 4.36 g/m*3 -1.08 C 0 km/h
2603 07-02-2020 11:00:00 -0.5 C 4.54 g/m*3 -0.5 C 0 km/h
2604 07-02-2020 12:00:00 0.725 C 4.94 g/m*3 0.73 C 2.93333 km/h
2605 07-02-2020 13:00:00 1.83333 C 5.36 g/m*3 1.83 C 4.66667 km/h
2606 07-02-2020 14:00:00 3.05 C 5.83 g/m*3 3.05 C 3.6 km/h
2607 07-02-2020 15:00:00 3.83333 C 5.99 g/m*3 3.83 C 4.68333 km/h
2608 07-02-2020 16:00:00 3.96667 C 5.73 g/m*3 3.97 C 4.26667 km/h
2609 07-02-2020 17:00:00 3 C 5.39 g/m*3 3 C 4.93333 km/h
2610 07-02-2020 18:00:00 2 C 5.07 g/m*3 2 C 2.8 km/h
2611 07-02-2020 19:00:00 1.41667 C 4.93 g/m*3 1.42 C 3.86667 km/h
2612 07-02-2020 20:00:00 1.08333 C 4.85 g/m*3 1.08 C 3.33333 km/h
2613 07-02-2020 21:00:00 0.85833 C 4.8 g/m*3 0.86 C 2.66667 km/h
2614 07-02-2020 22:00:00 0.5 C 4.7 g/m*3 0.5 C 2.4 km/h
2615 07-02-2020 23:00:00 0.08333 C 4.59 g/m*3 0.08 C 0.93333 km/h
2616 08-02-2020 00:00:00 -0.28333 C 4.49 g/m*3 -0.28 C 0.4 km/h
2617 08-02-2020 01:00:00 -0.76667 C 4.36 g/m*3 -0.77 C 0.13333 km/h
2618 08-02-2020 02:00:00 -1.08333 C 4.27 g/m*3 -1.08 C 0.4 km/h
2619 08-02-2020 03:00:00 -1.30833 C 4.21 g/m*3 -1.31 C 0 km/h
2620 08-02-2020 04:00:00 -1.29167 C 4.24 g/m*3 -1.29 C 0.13333 km/h
2621 08-02-2020 05:00:00 -1.4 C 4.22 g/m*3 -1.4 C 0.53333 km/h
2622 08-02-2020 06:00:00 -1.34167 C 4.24 g/m*3 -1.34 C 0 km/h
2623 08-02-2020 07:00:00 -1.15 C 4.29 g/m*3 -1.15 C 0.13333 km/h
2624 08-02-2020 08:00:00 -0.775 C 4.41 g/m*3 -0.78 C 0.26667 km/h
2625 08-02-2020 09:00:00 0.06667 C 4.72 g/m*3 0.07 C 0 km/h
Sensor: Nr:Datum:Temp:Abs-Feuchte:Windchill:Wind:
Aussen-T/F 2626 08-02-2020 10:00:00 1.06667 C 5.04 g/m*3 1.07 C 0.13333 km/h
2627 08-02-2020 11:00:00 1.94167 C 5.31 g/m*3 1.94 C 0 km/h
2628 08-02-2020 12:00:00 2.64167 C 5.54 g/m*3 2.64 C 0.26667 km/h
2629 08-02-2020 13:00:00 3.3 C 5.68 g/m*3 3.3 C 0 km/h
2630 08-02-2020 14:00:00 4.3 C 5.92 g/m*3 4.3 C 0 km/h
2631 08-02-2020 15:00:00 5.19167 C 6.14 g/m*3 5.19 C 0 km/h
2632 08-02-2020 16:00:00 5.36667 C 6.2 g/m*3 5.37 C 0 km/h
2633 08-02-2020 17:00:00 4.94167 C 6.16 g/m*3 4.94 C 0 km/h
2634 08-02-2020 18:00:00 4.63333 C 6.15 g/m*3 4.63 C 0 km/h
2635 08-02-2020 19:00:00 4.40833 C 6.1 g/m*3 4.41 C 0 km/h
2636 08-02-2020 20:00:00 4.25833 C 6.07 g/m*3 4.26 C 0 km/h
2637 08-02-2020 21:00:00 3.73333 C 5.87 g/m*3 3.73 C 0 km/h
2638 08-02-2020 22:00:00 3.01667 C 5.63 g/m*3 3.02 C 0 km/h
2639 08-02-2020 23:00:00 3.18333 C 5.72 g/m*3 3.18 C 0 km/h
2640 09-02-2020 00:00:00 3.375 C 5.85 g/m*3 3.38 C 0 km/h
2641 09-02-2020 01:00:00 3.2 C 5.75 g/m*3 3.2 C 0 km/h
2642 09-02-2020 02:00:00 2.975 C 5.69 g/m*3 2.98 C 1.2 km/h
2643 09-02-2020 03:00:00 2.48333 C 5.48 g/m*3 2.48 C 0 km/h
2644 09-02-2020 04:00:00 2.525 C 5.55 g/m*3 2.53 C 0 km/h
2645 09-02-2020 05:00:00 3.29167 C 5.87 g/m*3 3.29 C 0.93333 km/h
2646 09-02-2020 06:00:00 3.09167 C 5.76 g/m*3 3.09 C 0.13333 km/h
2647 09-02-2020 07:00:00 4.30833 C 6.31 g/m*3 4.31 C 4.29167 km/h
2648 09-02-2020 08:00:00 7.7 C 7.57 g/m*3 6.09 C 8.99167 km/h
2649 09-02-2020 09:00:00 10.23333 C 7.84 g/m*3 8.06 C 16.23333 km/h
2650 09-02-2020 10:00:00 10.71667 C 7.75 g/m*3 8.26 C 20.24167 km/h
Sensor: Nr:Datum:Temp:Abs-Feuchte:Windchill:Wind:
Aussen-T/F 2651 09-02-2020 11:00:00 11.60833 C 7.63 g/m*3 11.61 C 17.3 km/h
2652 09-02-2020 12:00:00 11.65 C 7.44 g/m*3 11.65 C 17.43333 km/h
2653 09-02-2020 13:00:00 11.29167 C 7.18 g/m*3 11.29 C 10.74167 km/h
2654 09-02-2020 14:00:00 11.95 C 7.3 g/m*3 11.95 C 14.35833 km/h
2655 09-02-2020 15:00:00 12.36667 C 7.31 g/m*3 12.37 C 17.575 km/h
2656 09-02-2020 16:00:00 12.475 C 7.51 g/m*3 12.48 C 16.375 km/h
2657 09-02-2020 17:00:00 12.9 C 7.65 g/m*3 12.9 C 21.325 km/h
2658 09-02-2020 18:00:00 12.75 C 7.84 g/m*3 12.75 C 19.44167 km/h
2659 09-02-2020 19:00:00 12.51667 C 8.12 g/m*3 12.52 C 26.41667 km/h
2660 09-02-2020 20:00:00 12.775 C 8.21 g/m*3 12.78 C 22.925 km/h
2661 09-02-2020 21:00:00 12.26667 C 8.72 g/m*3 12.27 C 23.325 km/h
2662 09-02-2020 22:00:00 11.80833 C 8.99 g/m*3 11.81 C 23.73333 km/h
2663 09-02-2020 23:00:00 11.59167 C 9.18 g/m*3 11.59 C 25.05833 km/h
2664 10-02-2020 00:00:00 11.75 C 9.29 g/m*3 11.75 C 29.76667 km/h
2665 10-02-2020 01:00:00 11.43333 C 9.46 g/m*3 11.43 C 23.575 km/h
2666 10-02-2020 02:00:00 9.24167 C 8.26 g/m*3 6.24 C 21.84167 km/h
2667 10-02-2020 03:00:00 8.85 C 7.9 g/m*3 6.46 C 15.3 km/h
2668 10-02-2020 04:00:00 9.79167 C 7.86 g/m*3 7.41 C 17.16667 km/h
2669 10-02-2020 05:00:00 9.975 C 7.67 g/m*3 7.53 C 18.11667 km/h
2670 10-02-2020 06:00:00 9.23333 C 7.53 g/m*3 6.11 C 23.20833 km/h
2671 10-02-2020 07:00:00 9.125 C 6.94 g/m*3 5.52 C 28.825 km/h
2672 10-02-2020 08:00:00 8.49167 C 6.85 g/m*3 4.35 C 33.65 km/h
2673 10-02-2020 09:00:00 7.76667 C 6.16 g/m*3 3.37 C 34.05833 km/h
2674 10-02-2020 10:00:00 8.05 C 6.12 g/m*3 4.27 C 26.95 km/h
2675 10-02-2020 11:00:00 9.125 C 5.92 g/m*3 5.52 C 28.85 km/h
Sensor: Nr:Datum:Temp:Abs-Feuchte:Windchill:Wind:
Aussen-T/F 2676 10-02-2020 12:00:00 7.16667 C 6.31 g/m*3 3.5 C 22.94167 km/h
2677 10-02-2020 13:00:00 8.66667 C 6.13 g/m*3 4.76 C 31.1 km/h
2678 10-02-2020 14:00:00 8.375 C 6.35 g/m*3 4.78 C 25.875 km/h
2679 10-02-2020 15:00:00 8.49167 C 6.29 g/m*3 4.82 C 27.21667 km/h
2680 10-02-2020 16:00:00 7.99167 C 6.36 g/m*3 4.6 C 22.375 km/h
2681 10-02-2020 17:00:00 7.225 C 6.45 g/m*3 3.88 C 19.975 km/h
2682 10-02-2020 18:00:00 6.21667 C 6.61 g/m*3 4.04 C 10.35 km/h
2683 10-02-2020 19:00:00 6.15833 C 6.7 g/m*3 4.14 C 9.54167 km/h
2684 10-02-2020 20:00:00 5.51667 C 6.56 g/m*3 5.52 C 1.86667 km/h
2685 10-02-2020 21:00:00 5.375 C 6.58 g/m*3 3.85 C 6.975 km/h
2686 10-02-2020 22:00:00 7.26667 C 6.84 g/m*3 3.77 C 21.44167 km/h
2687 10-02-2020 23:00:00 7.78333 C 6.26 g/m*3 4.17 C 24.125 km/h
2688 11-02-2020 00:00:00 6.85833 C 5.99 g/m*3 2.57 C 28.84167 km/h
2689 11-02-2020 01:00:00 5.08333 C 5.65 g/m*3 1.57 C 16.9 km/h
2690 11-02-2020 02:00:00 5.60833 C 5.26 g/m*3 1.17 C 26.28333 km/h
2691 11-02-2020 03:00:00 5.71667 C 5.15 g/m*3 1.48 C 24.53333 km/h
2692 11-02-2020 04:00:00 6.03333 C 4.91 g/m*3 1.76 C 25.875 km/h
2693 11-02-2020 05:00:00 5.475 C 5.38 g/m*3 1.57 C 20.78333 km/h
2694 11-02-2020 06:00:00 5.14167 C 5.18 g/m*3 1.66 C 16.76667 km/h
2695 11-02-2020 07:00:00 4.76667 C 5.3 g/m*3 1.48 C 14.9 km/h
2696 11-02-2020 08:00:00 4.98333 C 5.31 g/m*3 1.3 C 17.975 km/h
2697 11-02-2020 09:00:00 5.05 C 5.53 g/m*3 1.48 C 17.3 km/h
2698 11-02-2020 10:00:00 6.025 C 5.34 g/m*3 1.9 C 24.26667 km/h
2699 11-02-2020 11:00:00 6.73333 C 5.15 g/m*3 2.86 C 23.73333 km/h
2700 11-02-2020 12:00:00 7.10833 C 5.09 g/m*3 3.29 C 24.26667 km/h
Sensor: Nr:Datum:Temp:Abs-Feuchte:Windchill:Wind:
Aussen-T/F 2701 11-02-2020 13:00:00 6.76667 C 5.07 g/m*3 3.18 C 21.04167 km/h
2702 11-02-2020 14:00:00 5.90833 C 5.5 g/m*3 2.2 C 20.10833 km/h
2703 11-02-2020 15:00:00 6.23333 C 5.36 g/m*3 2.74 C 19.04167 km/h
2704 11-02-2020 16:00:00 7 C 5.38 g/m*3 3.29 C 22.90833 km/h
2705 11-02-2020 17:00:00 6.25833 C 5.32 g/m*3 2.97 C 17.43333 km/h
2706 11-02-2020 18:00:00 5.975 C 5.14 g/m*3 2.74 C 16.50833 km/h
2707 11-02-2020 19:00:00 5.36667 C 5.24 g/m*3 1.96 C 16.63333 km/h
2708 11-02-2020 20:00:00 5.575 C 4.88 g/m*3 1.94 C 18.76667 km/h
2709 11-02-2020 21:00:00 5.225 C 4.71 g/m*3 1.39 C 19.7 km/h
2710 11-02-2020 22:00:00 4.9 C 4.78 g/m*3 1.64 C 14.9 km/h
2711 11-02-2020 23:00:00 4.81667 C 4.81 g/m*3 1.97 C 12.36667 km/h
2712 12-02-2020 00:00:00 5.25 C 4.88 g/m*3 2.69 C 11.29167 km/h
2713 12-02-2020 01:00:00 5.11667 C 5.14 g/m*3 2.19 C 13.16667 km/h
2714 12-02-2020 02:00:00 4.99167 C 5.11 g/m*3 2.43 C 11.025 km/h
2715 12-02-2020 03:00:00 4.73333 C 5.08 g/m*3 2.32 C 10.08333 km/h
2716 12-02-2020 04:00:00 4.78333 C 5.15 g/m*3 2.19 C 11.01667 km/h
2717 12-02-2020 05:00:00 5.00833 C 5.26 g/m*3 1.99 C 13.56667 km/h
2718 12-02-2020 06:00:00 5.00833 C 5.33 g/m*3 2.06 C 13.16667 km/h
2719 12-02-2020 07:00:00 4.19167 C 5.5 g/m*3 1.02 C 13.41667 km/h
2720 12-02-2020 08:00:00 3.85 C 5.51 g/m*3 1.14 C 10.63333 km/h
2721 12-02-2020 09:00:00 4.34167 C 5.51 g/m*3 1.44 C 12.1 km/h
2722 12-02-2020 10:00:00 4.9 C 5.83 g/m*3 2.55 C 9.94167 km/h
2723 12-02-2020 11:00:00 5.58333 C 5.9 g/m*3 2.05 C 17.975 km/h
2724 12-02-2020 12:00:00 5.35 C 5.84 g/m*3 2.39 C 13.69167 km/h
2725 12-02-2020 13:00:00 6.41667 C 5.89 g/m*3 3.32 C 16.25 km/h
Sensor: Nr:Datum:Temp:Abs-Feuchte:Windchill:Wind:
Aussen-T/F 2726 12-02-2020 14:00:00 6.83333 C 5.63 g/m*3 3.99 C 15.16667 km/h
2727 12-02-2020 15:00:00 7.1 C 5.69 g/m*3 4.24 C 15.7 km/h
2728 12-02-2020 16:00:00 6.64167 C 5.7 g/m*3 4.21 C 12.225 km/h
2729 12-02-2020 17:00:00 5.825 C 5.45 g/m*3 3.29 C 11.81667 km/h
2730 12-02-2020 18:00:00 4.54167 C 5.48 g/m*3 2.06 C 10.225 km/h
2731 12-02-2020 19:00:00 4.21667 C 5.45 g/m*3 1.79 C 9.68333 km/h
2732 12-02-2020 20:00:00 3.21667 C 5.33 g/m*3 1.66 C 6.03333 km/h
2733 12-02-2020 21:00:00 2.78333 C 5.32 g/m*3 1.21 C 5.9 km/h
2734 12-02-2020 22:00:00 2.56667 C 5.27 g/m*3 2.57 C 4.53333 km/h
2735 12-02-2020 23:00:00 2.4 C 5.3 g/m*3 2.4 C 3.875 km/h
2736 13-02-2020 00:00:00 2.45833 C 5.33 g/m*3 2.46 C 2.8 km/h
2737 13-02-2020 01:00:00 2.39167 C 5.31 g/m*3 2.39 C 0.4 km/h
2738 13-02-2020 02:00:00 1.65 C 5.05 g/m*3 1.65 C 1.46667 km/h
2739 13-02-2020 03:00:00 0.975 C 4.86 g/m*3 0.98 C 1.2 km/h
2740 13-02-2020 04:00:00 0.6 C 4.76 g/m*3 0.6 C 0 km/h
2741 13-02-2020 05:00:00 0.15833 C 4.65 g/m*3 0.16 C 0 km/h
2742 13-02-2020 06:00:00 0.56667 C 4.82 g/m*3 0.57 C 0.26667 km/h
2743 13-02-2020 07:00:00 0.85 C 4.93 g/m*3 0.85 C 0.8 km/h
2744 13-02-2020 08:00:00 2 C 5.33 g/m*3 2 C 1.73333 km/h
2745 13-02-2020 09:00:00 3.28333 C 5.74 g/m*3 3.28 C 4.95 km/h
2746 13-02-2020 10:00:00 4.61667 C 5.82 g/m*3 2.67 C 8.05833 km/h
2747 13-02-2020 11:00:00 6 C 5.81 g/m*3 4.1 C 8.85833 km/h
2748 13-02-2020 12:00:00 6.29167 C 6.05 g/m*3 3.9 C 11.55833 km/h
2749 13-02-2020 13:00:00 5.4 C 6.29 g/m*3 5.4 C 4.40833 km/h
2750 13-02-2020 14:00:00 5.35833 C 6.44 g/m*3 5.36 C 3.2 km/h
Sensor: Nr:Datum:Temp:Abs-Feuchte:Windchill:Wind:
Aussen-T/F 2751 13-02-2020 15:00:00 5.80833 C 6.76 g/m*3 5.81 C 1.2 km/h
2752 13-02-2020 16:00:00 6.59167 C 7.11 g/m*3 6.59 C 1.06667 km/h
2753 13-02-2020 17:00:00 6.31667 C 6.97 g/m*3 6.32 C 0.53333 km/h
2754 13-02-2020 18:00:00 5.41667 C 6.61 g/m*3 5.42 C 1.33333 km/h
2755 13-02-2020 19:00:00 5.21667 C 6.55 g/m*3 5.22 C 0.93333 km/h
2756 13-02-2020 20:00:00 5.375 C 6.64 g/m*3 5.38 C 1.06667 km/h
2757 13-02-2020 21:00:00 5.63333 C 6.8 g/m*3 5.63 C 0.53333 km/h
2758 13-02-2020 22:00:00 6.43333 C 7.17 g/m*3 4.49 C 9.40833 km/h
2759 13-02-2020 23:00:00 6.86667 C 7.23 g/m*3 6.17 C 5.09167 km/h
2760 14-02-2020 00:00:00 6.59167 C 7.17 g/m*3 5.42 C 6.44167 km/h
2761 14-02-2020 01:00:00 6.275 C 7.02 g/m*3 4.98 C 6.7 km/h
2762 14-02-2020 02:00:00 6.30833 C 7.02 g/m*3 5.13 C 6.3 km/h
2763 14-02-2020 03:00:00 6.375 C 7 g/m*3 6.38 C 3.33333 km/h
2764 14-02-2020 04:00:00 5.95 C 6.87 g/m*3 5.95 C 2.26667 km/h
2765 14-02-2020 05:00:00 5.65 C 6.77 g/m*3 5.65 C 1.46667 km/h
2766 14-02-2020 06:00:00 5.64167 C 6.81 g/m*3 5.64 C 0.93333 km/h
2767 14-02-2020 07:00:00 5.49167 C 6.74 g/m*3 5.49 C 2.93333 km/h
2768 14-02-2020 08:00:00 5.31667 C 6.66 g/m*3 5.32 C 4.14167 km/h
2769 14-02-2020 09:00:00 5.81667 C 6.75 g/m*3 4.26 C 7.375 km/h
2770 14-02-2020 10:00:00 6.18333 C 6.71 g/m*3 3.7 C 11.96667 km/h
2771 14-02-2020 11:00:00 6.69167 C 6.81 g/m*3 4.51 C 10.89167 km/h
2772 14-02-2020 12:00:00 7.21667 C 6.88 g/m*3 5.63 C 8.46667 km/h
2773 14-02-2020 13:00:00 7.71667 C 6.77 g/m*3 6.51 C 7.25 km/h
2774 14-02-2020 14:00:00 8.16667 C 6.79 g/m*3 7.07 C 7.1 km/h
2775 14-02-2020 15:00:00 8.25 C 6.58 g/m*3 7.3 C 6.56667 km/h
Sensor: Nr:Datum:Temp:Abs-Feuchte:Windchill:Wind:
Aussen-T/F 2776 14-02-2020 16:00:00 8.39167 C 6.83 g/m*3 8.39 C 0.93333 km/h
2777 14-02-2020 17:00:00 7.725 C 7.05 g/m*3 7.73 C 0.13333 km/h
2778 14-02-2020 18:00:00 6.8 C 6.89 g/m*3 6.8 C 0 km/h
2779 14-02-2020 19:00:00 5.975 C 6.55 g/m*3 5.98 C 2.4 km/h
2780 14-02-2020 20:00:00 4.91667 C 6.25 g/m*3 4.92 C 1.2 km/h
2781 14-02-2020 21:00:00 4.23333 C 6.06 g/m*3 4.23 C 0 km/h
2782 14-02-2020 22:00:00 3.49167 C 5.81 g/m*3 3.49 C 0 km/h
2783 14-02-2020 23:00:00 3.13333 C 5.7 g/m*3 3.13 C 0 km/h
2784 15-02-2020 00:00:00 2.75 C 5.57 g/m*3 2.75 C 0 km/h
2785 15-02-2020 01:00:00 3.19167 C 5.78 g/m*3 3.19 C 0.13333 km/h
2786 15-02-2020 02:00:00 3.25833 C 5.81 g/m*3 3.26 C 0 km/h
2787 15-02-2020 03:00:00 2.69167 C 5.59 g/m*3 2.69 C 0 km/h
2788 15-02-2020 04:00:00 2.46667 C 5.52 g/m*3 2.47 C 0 km/h
2789 15-02-2020 05:00:00 2.25 C 5.44 g/m*3 2.25 C 0 km/h
2790 15-02-2020 06:00:00 1.85833 C 5.3 g/m*3 1.86 C 0 km/h
2791 15-02-2020 07:00:00 1.725 C 5.28 g/m*3 1.73 C 0.8 km/h
2792 15-02-2020 08:00:00 2.34167 C 5.52 g/m*3 2.34 C 0.26667 km/h
2793 15-02-2020 09:00:00 3.675 C 6.04 g/m*3 3.68 C 0 km/h
2794 15-02-2020 10:00:00 4.83333 C 6.56 g/m*3 4.83 C 0.26667 km/h
2795 15-02-2020 11:00:00 6.5 C 7.3 g/m*3 6.5 C 0.13333 km/h
2796 15-02-2020 12:00:00 8.80833 C 8 g/m*3 8.81 C 2.8 km/h
2797 15-02-2020 13:00:00 11.19167 C 7.86 g/m*3 11.19 C 9.4 km/h
2798 15-02-2020 14:00:00 11.45 C 7.6 g/m*3 11.45 C 8.475 km/h
2799 15-02-2020 15:00:00 11.50833 C 7.6 g/m*3 11.51 C 7.79167 km/h
2800 15-02-2020 16:00:00 10.95 C 7.63 g/m*3 10.95 C 2.4 km/h
Sensor: Nr:Datum:Temp:Abs-Feuchte:Windchill:Wind:
Aussen-T/F 2801 15-02-2020 17:00:00 8.89167 C 7.33 g/m*3 8.89 C 1.86667 km/h
2802 15-02-2020 18:00:00 7.575 C 7.12 g/m*3 7.58 C 3.2 km/h
2803 15-02-2020 19:00:00 7.35 C 7.11 g/m*3 7.35 C 1.86667 km/h
2804 15-02-2020 20:00:00 7.61667 C 7.16 g/m*3 7.62 C 2.26667 km/h
2805 15-02-2020 21:00:00 8.1 C 7.16 g/m*3 8.1 C 0.8 km/h
2806 15-02-2020 22:00:00 8.64167 C 7.16 g/m*3 8.64 C 2.00833 km/h
2807 15-02-2020 23:00:00 10 C 7.3 g/m*3 9.73 C 5.08333 km/h
2808 16-02-2020 00:00:00 10.275 C 7.33 g/m*3 9.43 C 7.5 km/h
2809 16-02-2020 01:00:00 10.58333 C 7.47 g/m*3 9.97 C 6.7 km/h
2810 16-02-2020 02:00:00 11.20833 C 7.73 g/m*3 11.21 C 5.90833 km/h
2811 16-02-2020 03:00:00 12.35833 C 7.89 g/m*3 12.36 C 8.46667 km/h
2812 16-02-2020 04:00:00 12.58333 C 7.77 g/m*3 12.58 C 7.76667 km/h
2813 16-02-2020 05:00:00 12.15833 C 7.68 g/m*3 12.16 C 4.69167 km/h
2814 16-02-2020 06:00:00 13.19167 C 7.74 g/m*3 13.19 C 11.69167 km/h
2815 16-02-2020 07:00:00 13.9 C 8.33 g/m*3 13.9 C 19.45 km/h
2816 16-02-2020 08:00:00 13.75833 C 8.79 g/m*3 13.76 C 21.58333 km/h
2817 16-02-2020 09:00:00 13.95833 C 8.75 g/m*3 13.96 C 19.04167 km/h
2818 16-02-2020 10:00:00 14.4 C 8.62 g/m*3 14.4 C 14.1 km/h
2819 16-02-2020 11:00:00 15.44167 C 8.48 g/m*3 15.44 C 13.425 km/h
2820 16-02-2020 12:00:00 16.43333 C 8.17 g/m*3 16.43 C 13.56667 km/h
2821 16-02-2020 13:00:00 17.26667 C 8.03 g/m*3 17.27 C 18.76667 km/h
2822 16-02-2020 14:00:00 17.83333 C 7.96 g/m*3 17.83 C 19.3 km/h
2823 16-02-2020 15:00:00 17.69167 C 8.04 g/m*3 17.69 C 11.29167 km/h
2824 16-02-2020 16:00:00 17.75833 C 7.91 g/m*3 17.76 C 17.43333 km/h
2825 16-02-2020 17:00:00 16.25 C 7.9 g/m*3 16.25 C 7.93333 km/h
Sensor: Nr:Datum:Temp:Abs-Feuchte:Windchill:Wind:
Aussen-T/F 2826 16-02-2020 18:00:00 15.45833 C 7.67 g/m*3 15.46 C 12.1 km/h
2827 16-02-2020 19:00:00 15.81667 C 7.68 g/m*3 15.82 C 11.95833 km/h
2828 16-02-2020 20:00:00 16.125 C 7.86 g/m*3 16.13 C 16.9 km/h
2829 16-02-2020 21:00:00 16.425 C 8.07 g/m*3 16.43 C 28.68333 km/h
2830 16-02-2020 22:00:00 16.33333 C 8.47 g/m*3 16.33 C 26.95 km/h
2831 16-02-2020 23:00:00 12.95833 C 8.88 g/m*3 12.96 C 18.775 km/h
2832 17-02-2020 00:00:00 9.95833 C 8.26 g/m*3 8.66 C 9.53333 km/h
2833 17-02-2020 01:00:00 9.46667 C 7.94 g/m*3 7.74 C 11.55 km/h
2834 17-02-2020 02:00:00 8.51667 C 7.35 g/m*3 5.96 C 15.95833 km/h
2835 17-02-2020 03:00:00 8.31667 C 6.94 g/m*3 6.1 C 13.15833 km/h
2836 17-02-2020 04:00:00 8.28333 C 6.95 g/m*3 6.12 C 12.75833 km/h
2837 17-02-2020 05:00:00 8.03333 C 7 g/m*3 6.66 C 8.18333 km/h
2838 17-02-2020 06:00:00 8.05 C 7.1 g/m*3 6.47 C 9.13333 km/h
2839 17-02-2020 07:00:00 8.175 C 7.14 g/m*3 7.21 C 6.58333 km/h
2840 17-02-2020 08:00:00 8.1 C 7.14 g/m*3 7.57 C 5.08333 km/h
2841 17-02-2020 09:00:00 8.7 C 7.22 g/m*3 7.69 C 7.10833 km/h
2842 17-02-2020 10:00:00 8.96667 C 7.26 g/m*3 7.58 C 9.00833 km/h
2843 17-02-2020 11:00:00 9.43333 C 7.15 g/m*3 7.19 C 15.16667 km/h
2844 17-02-2020 12:00:00 9.55833 C 6.94 g/m*3 7.43 C 14.5 km/h
2845 17-02-2020 13:00:00 10.03333 C 6.94 g/m*3 7.74 C 16.9 km/h
2846 17-02-2020 14:00:00 10.45833 C 7.15 g/m*3 7.92 C 20.375 km/h
2847 17-02-2020 15:00:00 10.73333 C 7.22 g/m*3 8.58 C 17.16667 km/h
2848 17-02-2020 16:00:00 10.96667 C 7.18 g/m*3 8.9 C 16.9 km/h
2849 17-02-2020 17:00:00 9.54167 C 7.05 g/m*3 7.31 C 15.3 km/h
2850 17-02-2020 18:00:00 7.29167 C 6.65 g/m*3 4.46 C 15.84167 km/h
Sensor: Nr:Datum:Temp:Abs-Feuchte:Windchill:Wind:
Aussen-T/F 2851 17-02-2020 19:00:00 6.71667 C 6.5 g/m*3 4.8 C 9.54167 km/h
2852 17-02-2020 20:00:00 5.5 C 6.25 g/m*3 5.5 C 2 km/h
2853 17-02-2020 21:00:00 5.35833 C 6.47 g/m*3 5.36 C 1.86667 km/h
2854 17-02-2020 22:00:00 6.875 C 6.93 g/m*3 4.86 C 10.2 km/h
2855 17-02-2020 23:00:00 8.01667 C 6.92 g/m*3 5.96 C 11.69167 km/h
2856 18-02-2020 00:00:00 8.025 C 6.65 g/m*3 5.68 C 13.55 km/h
2857 18-02-2020 01:00:00 8.06667 C 6.6 g/m*3 6.02 C 11.69167 km/h
2858 18-02-2020 02:00:00 7.58333 C 6.53 g/m*3 5.48 C 11.43333 km/h
2859 18-02-2020 03:00:00 7.41667 C 6.47 g/m*3 5.13 C 12.35833 km/h
2860 18-02-2020 04:00:00 6.81667 C 6.3 g/m*3 4.44 C 12.09167 km/h
2861 18-02-2020 05:00:00 6.38333 C 6.17 g/m*3 3.23 C 16.63333 km/h
2862 18-02-2020 06:00:00 6.13333 C 6.17 g/m*3 3.3 C 13.96667 km/h
2863 18-02-2020 07:00:00 5.84167 C 6.09 g/m*3 3.36 C 11.56667 km/h
2864 18-02-2020 08:00:00 5.75 C 6.08 g/m*3 3.33 C 11.14167 km/h
2865 18-02-2020 09:00:00 6.11667 C 6.18 g/m*3 3.72 C 11.41667 km/h
2866 18-02-2020 10:00:00 6.775 C 6.14 g/m*3 3.86 C 15.56667 km/h
2867 18-02-2020 11:00:00 7.45 C 6.22 g/m*3 4.73 C 15.3 km/h
2868 18-02-2020 12:00:00 8.06667 C 6.29 g/m*3 5.44 C 15.7 km/h
2869 18-02-2020 13:00:00 8.55833 C 6.36 g/m*3 5.66 C 19.04167 km/h
2870 18-02-2020 14:00:00 8.29167 C 6.34 g/m*3 5.52 C 17.3 km/h
2871 18-02-2020 15:00:00 8.6 C 6.27 g/m*3 6.15 C 15.3 km/h
2872 18-02-2020 16:00:00 8.40833 C 6.24 g/m*3 6.5 C 11.29167 km/h
2873 18-02-2020 17:00:00 8.125 C 6.31 g/m*3 6.53 C 9.275 km/h
2874 18-02-2020 18:00:00 7.40833 C 6.29 g/m*3 6.01 C 7.79167 km/h
2875 18-02-2020 19:00:00 6.325 C 6.15 g/m*3 6.33 C 1.86667 km/h
Sensor: Nr:Datum:Temp:Abs-Feuchte:Windchill:Wind:
Aussen-T/F 2876 18-02-2020 20:00:00 6.54167 C 6.24 g/m*3 5.1 C 7.38333 km/h
2877 18-02-2020 21:00:00 6.84167 C 6.31 g/m*3 5.49 C 7.25 km/h
2878 18-02-2020 22:00:00 7.29167 C 6.51 g/m*3 6.05 C 7.11667 km/h
2879 18-02-2020 23:00:00 7.175 C 6.54 g/m*3 5.58 C 8.46667 km/h
2880 19-02-2020 00:00:00 7.31667 C 6.46 g/m*3 4.57 C 15.29167 km/h
2881 19-02-2020 01:00:00 7.43333 C 6.38 g/m*3 5.02 C 13.15 km/h
2882 19-02-2020 02:00:00 7.60833 C 6.46 g/m*3 4.67 C 17.3 km/h
2883 19-02-2020 03:00:00 7.38333 C 6.57 g/m*3 4.47 C 16.63333 km/h
2884 19-02-2020 04:00:00 6.85833 C 6.72 g/m*3 3.94 C 15.7 km/h
2885 19-02-2020 05:00:00 6.825 C 6.62 g/m*3 3.67 C 17.44167 km/h
2886 19-02-2020 06:00:00 6.41667 C 6.3 g/m*3 4.03 C 11.7 km/h
2887 19-02-2020 07:00:00 6 C 6.09 g/m*3 3.22 C 13.43333 km/h
2888 19-02-2020 08:00:00 5.575 C 5.87 g/m*3 2.96 C 11.96667 km/h
2889 19-02-2020 09:00:00 5.55 C 5.83 g/m*3 4.14 C 6.69167 km/h
2890 19-02-2020 10:00:00 5.66667 C 5.84 g/m*3 3.74 C 8.725 km/h
2891 19-02-2020 11:00:00 6.5 C 5.72 g/m*3 3.75 C 13.96667 km/h
2892 19-02-2020 12:00:00 7.01667 C 5.46 g/m*3 4.25 C 14.9 km/h
2893 19-02-2020 13:00:00 7.39167 C 5.26 g/m*3 4.38 C 17.43333 km/h
2894 19-02-2020 14:00:00 7.70833 C 5.25 g/m*3 4.94 C 16.1 km/h
2895 19-02-2020 15:00:00 7.88333 C 5.21 g/m*3 5.28 C 15.16667 km/h
2896 19-02-2020 16:00:00 7.91667 C 5.16 g/m*3 5.55 C 13.56667 km/h
2897 19-02-2020 17:00:00 7.06667 C 5.06 g/m*3 5.36 C 8.86667 km/h
2898 19-02-2020 18:00:00 5.05 C 5.18 g/m*3 5.05 C 0 km/h
2899 19-02-2020 19:00:00 3.35833 C 5.03 g/m*3 3.36 C 0 km/h
2900 19-02-2020 20:00:00 2.76667 C 4.93 g/m*3 2.77 C 0.4 km/h
Sensor: Nr:Datum:Temp:Abs-Feuchte:Windchill:Wind:
Aussen-T/F 2901 19-02-2020 21:00:00 3.59167 C 5.11 g/m*3 3.59 C 2.8 km/h
2902 19-02-2020 22:00:00 5.49167 C 5.44 g/m*3 2.56 C 13.68333 km/h
2903 19-02-2020 23:00:00 5.50833 C 5.93 g/m*3 2.9 C 11.825 km/h
2904 20-02-2020 00:00:00 5.675 C 6.15 g/m*3 3.06 C 12.09167 km/h
2905 20-02-2020 01:00:00 5.85833 C 6.36 g/m*3 4.66 C 6.16667 km/h
2906 20-02-2020 02:00:00 6.225 C 6.39 g/m*3 4.14 C 9.93333 km/h
2907 20-02-2020 03:00:00 6.675 C 6.52 g/m*3 4.44 C 11.15833 km/h
2908 20-02-2020 04:00:00 6.95833 C 6.65 g/m*3 4.8 C 11.025 km/h
2909 20-02-2020 05:00:00 7.09167 C 6.72 g/m*3 5.3 C 9.28333 km/h
2910 20-02-2020 06:00:00 7.16667 C 6.85 g/m*3 6.51 C 5.09167 km/h
2911 20-02-2020 07:00:00 7.2 C 6.95 g/m*3 7.2 C 2.81667 km/h
2912 20-02-2020 08:00:00 7.23333 C 7.05 g/m*3 7.23 C 0.66667 km/h
2913 20-02-2020 09:00:00 7.80833 C 7.21 g/m*3 7.81 C 4.15 km/h
2914 20-02-2020 10:00:00 8.65833 C 7.21 g/m*3 7.45 C 7.91667 km/h
2915 20-02-2020 11:00:00 9.56667 C 7.25 g/m*3 7.57 C 13.55833 km/h
2916 20-02-2020 12:00:00 9.65 C 7.18 g/m*3 8.06 C 10.89167 km/h
2917 20-02-2020 13:00:00 9.725 C 7.41 g/m*3 8.14 C 11 km/h
2918 20-02-2020 14:00:00 10.15833 C 7.16 g/m*3 7.98 C 16.1 km/h
2919 20-02-2020 15:00:00 9.98333 C 7.18 g/m*3 8.11 C 13.3 km/h
2920 20-02-2020 16:00:00 9.575 C 7 g/m*3 7.81 C 11.95 km/h
2921 20-02-2020 17:00:00 9.39167 C 6.86 g/m*3 7.56 C 12.1 km/h
2922 20-02-2020 18:00:00 9.34167 C 6.86 g/m*3 7.59 C 11.54167 km/h
2923 20-02-2020 19:00:00 8.66667 C 6.79 g/m*3 6.65 C 12.33333 km/h
2924 20-02-2020 20:00:00 9.5 C 6.78 g/m*3 6.91 C 18.36667 km/h
2925 20-02-2020 21:00:00 9.13333 C 7 g/m*3 6.09 C 21.975 km/h
Sensor: Nr:Datum:Temp:Abs-Feuchte:Windchill:Wind:
Aussen-T/F 2926 20-02-2020 22:00:00 8.13333 C 7.14 g/m*3 5.11 C 19.175 km/h
2927 20-02-2020 23:00:00 6.6 C 6.56 g/m*3 3.96 C 13.425 km/h
2928 21-02-2020 00:00:00 5.43333 C 6.11 g/m*3 2.2 C 15.56667 km/h
2929 21-02-2020 01:00:00 4.84167 C 5.58 g/m*3 1.95 C 12.63333 km/h
2930 21-02-2020 02:00:00 4.225 C 5.43 g/m*3 2.06 C 8.60833 km/h
2931 21-02-2020 03:00:00 3.83333 C 5.36 g/m*3 2.32 C 6.16667 km/h
2932 21-02-2020 04:00:00 2.85833 C 5.26 g/m*3 1.35 C 5.75833 km/h
2933 21-02-2020 05:00:00 2.81667 C 5.26 g/m*3 1.25 C 5.9 km/h
2934 21-02-2020 06:00:00 2.6 C 5.17 g/m*3 1.06 C 5.75 km/h
2935 21-02-2020 07:00:00 2.89167 C 5.15 g/m*3 0.8 C 7.525 km/h
2936 21-02-2020 08:00:00 2.6 C 5.08 g/m*3 2.6 C 3.74167 km/h
2937 21-02-2020 09:00:00 3.33333 C 5.33 g/m*3 1.48 C 6.975 km/h
2938 21-02-2020 10:00:00 4.35833 C 5.52 g/m*3 2.16 C 8.85833 km/h
2939 21-02-2020 11:00:00 5.825 C 5.83 g/m*3 3.19 C 12.36667 km/h
2940 21-02-2020 12:00:00 7.175 C 6.11 g/m*3 4.37 C 15.43333 km/h
2941 21-02-2020 13:00:00 7.76667 C 6.18 g/m*3 4.85 C 17.43333 km/h
2942 21-02-2020 14:00:00 7.99167 C 6.22 g/m*3 5.58 C 13.95833 km/h
2943 21-02-2020 15:00:00 8.36667 C 6.17 g/m*3 6.24 C 12.625 km/h
2944 21-02-2020 16:00:00 8.225 C 6.05 g/m*3 6.45 C 10.35 km/h
2945 21-02-2020 17:00:00 7.73333 C 5.89 g/m*3 6.6 C 6.96667 km/h
2946 21-02-2020 18:00:00 6.16667 C 5.75 g/m*3 6.17 C 2.8 km/h
2947 21-02-2020 19:00:00 4.98333 C 5.61 g/m*3 4.98 C 2.40833 km/h
2948 21-02-2020 20:00:00 5.35 C 5.62 g/m*3 3.99 C 6.43333 km/h
2949 21-02-2020 21:00:00 5.73333 C 5.69 g/m*3 4.88 C 5.08333 km/h
2950 21-02-2020 22:00:00 4.68333 C 5.62 g/m*3 4.68 C 2.4 km/h
Sensor: Nr:Datum:Temp:Abs-Feuchte:Windchill:Wind:
Aussen-T/F 2951 21-02-2020 23:00:00 4.43333 C 5.69 g/m*3 4.43 C 3.475 km/h
2952 22-02-2020 00:00:00 4.54167 C 5.71 g/m*3 4.54 C 4.14167 km/h
2953 22-02-2020 01:00:00 4.55833 C 5.69 g/m*3 4.56 C 3.74167 km/h
2954 22-02-2020 02:00:00 5.025 C 5.78 g/m*3 2.32 C 11.81667 km/h
2955 22-02-2020 03:00:00 5.41667 C 5.79 g/m*3 2.61 C 12.875 km/h
2956 22-02-2020 04:00:00 5.28333 C 5.76 g/m*3 3.01 C 9.94167 km/h
2957 22-02-2020 05:00:00 5.70833 C 5.87 g/m*3 2.3 C 17.3 km/h
2958 22-02-2020 06:00:00 5.825 C 5.88 g/m*3 2.41 C 17.575 km/h
2959 22-02-2020 07:00:00 5.78333 C 5.86 g/m*3 2.96 C 13.425 km/h
2960 22-02-2020 08:00:00 6.04167 C 5.91 g/m*3 3.39 C 12.76667 km/h
2961 22-02-2020 09:00:00 6.69167 C 6 g/m*3 3.46 C 17.83333 km/h
2962 22-02-2020 10:00:00 7.43333 C 6.02 g/m*3 3.9 C 22.25 km/h
2963 22-02-2020 11:00:00 7.9 C 6.06 g/m*3 4.94 C 18.10833 km/h
2964 22-02-2020 12:00:00 8.80833 C 6.05 g/m*3 7.75 C 7.36667 km/h
2965 22-02-2020 13:00:00 9.89167 C 6.22 g/m*3 8.76 C 8.60833 km/h
2966 22-02-2020 14:00:00 10.29167 C 6.29 g/m*3 8.16 C 15.96667 km/h
2967 22-02-2020 15:00:00 10.59167 C 6.58 g/m*3 8.35 C 17.7 km/h
2968 22-02-2020 16:00:00 10.71667 C 6.85 g/m*3 8.46 C 18.1 km/h
2969 22-02-2020 17:00:00 10.31667 C 6.93 g/m*3 8.22 C 15.7 km/h
2970 22-02-2020 18:00:00 10.11667 C 7.17 g/m*3 8.01 C 15.43333 km/h
2971 22-02-2020 19:00:00 9.94167 C 7.49 g/m*3 7.67 C 16.5 km/h
2972 22-02-2020 20:00:00 10.23333 C 7.76 g/m*3 8.18 C 15.16667 km/h
2973 22-02-2020 21:00:00 10.39167 C 7.93 g/m*3 8.46 C 14.49167 km/h
2974 22-02-2020 22:00:00 10.8 C 8.1 g/m*3 8.53 C 18.5 km/h
2975 22-02-2020 23:00:00 10.9 C 8.16 g/m*3 8.89 C 16.23333 km/h
Sensor: Nr:Datum:Temp:Abs-Feuchte:Windchill:Wind:
Aussen-T/F 2976 23-02-2020 00:00:00 10.8 C 8.14 g/m*3 8.94 C 14.625 km/h
2977 23-02-2020 01:00:00 9.90833 C 8.34 g/m*3 8.27 C 11.56667 km/h
2978 23-02-2020 02:00:00 10.1 C 8.3 g/m*3 8.24 C 13.43333 km/h
2979 23-02-2020 03:00:00 10.2 C 8.09 g/m*3 8.26 C 14.23333 km/h
2980 23-02-2020 04:00:00 10.25833 C 7.98 g/m*3 8.36 C 13.96667 km/h
2981 23-02-2020 05:00:00 10.34167 C 8.21 g/m*3 8.36 C 14.76667 km/h
2982 23-02-2020 06:00:00 10.28333 C 8.17 g/m*3 8.53 C 12.89167 km/h
2983 23-02-2020 07:00:00 10.25 C 8.31 g/m*3 8.02 C 16.78333 km/h
2984 23-02-2020 08:00:00 10.525 C 8.55 g/m*3 7.92 C 21.3 km/h
2985 23-02-2020 09:00:00 10.58333 C 8.64 g/m*3 8.32 C 17.825 km/h
2986 23-02-2020 10:00:00 10.91667 C 8.73 g/m*3 8.34 C 22.24167 km/h
2987 23-02-2020 11:00:00 11.325 C 8.79 g/m*3 11.33 C 20.91667 km/h
2988 23-02-2020 12:00:00 11.775 C 8.97 g/m*3 11.78 C 24.66667 km/h
2989 23-02-2020 13:00:00 12.03333 C 8.98 g/m*3 12.03 C 23.175 km/h
2990 23-02-2020 14:00:00 12.05833 C 9.09 g/m*3 12.06 C 23.74167 km/h
2991 23-02-2020 15:00:00 12.175 C 9.27 g/m*3 12.18 C 23.30833 km/h
2992 23-02-2020 16:00:00 12.1 C 9.29 g/m*3 12.1 C 18.5 km/h
2993 23-02-2020 17:00:00 11.9 C 9.36 g/m*3 11.9 C 18.24167 km/h
2994 23-02-2020 18:00:00 11.34167 C 9.46 g/m*3 11.34 C 13.83333 km/h
2995 23-02-2020 19:00:00 10.65 C 9.11 g/m*3 8.62 C 15.825 km/h
2996 23-02-2020 20:00:00 8.6 C 7.84 g/m*3 6.2 C 14.9 km/h
2997 23-02-2020 21:00:00 8.30833 C 7.44 g/m*3 5.79 C 15.3 km/h
2998 23-02-2020 22:00:00 8.175 C 7.09 g/m*3 5.84 C 13.7 km/h
2999 23-02-2020 23:00:00 7.55 C 6.48 g/m*3 6.02 C 8.46667 km/h
3000 24-02-2020 00:00:00 7.13333 C 6.25 g/m*3 7.13 C 4.80833 km/h
Sensor: Nr:Datum:Temp:Abs-Feuchte:Windchill:Wind:
Aussen-T/F 3001 24-02-2020 01:00:00 6.325 C 6.15 g/m*3 6.33 C 4.68333 km/h
3002 24-02-2020 02:00:00 5.21667 C 5.91 g/m*3 5.22 C 1.73333 km/h
3003 24-02-2020 03:00:00 5.175 C 5.92 g/m*3 5.18 C 1.875 km/h
3004 24-02-2020 04:00:00 5.075 C 5.93 g/m*3 5.08 C 0.66667 km/h
3005 24-02-2020 05:00:00 4.68333 C 6.02 g/m*3 4.68 C 0 km/h
3006 24-02-2020 06:00:00 4.68333 C 6.11 g/m*3 4.68 C 0 km/h
3007 24-02-2020 07:00:00 4.85833 C 6.19 g/m*3 4.86 C 0.53333 km/h
3008 24-02-2020 08:00:00 5.61667 C 6.36 g/m*3 5.62 C 3.34167 km/h
3009 24-02-2020 09:00:00 6.49167 C 6.47 g/m*3 6.49 C 1.86667 km/h
3010 24-02-2020 10:00:00 6.525 C 6.69 g/m*3 6.53 C 1.46667 km/h
3011 24-02-2020 11:00:00 6.39167 C 6.92 g/m*3 6.39 C 1.2 km/h
3012 24-02-2020 12:00:00 6.88333 C 7.27 g/m*3 6.88 C 1.46667 km/h
3013 24-02-2020 13:00:00 7.90833 C 7.82 g/m*3 7.91 C 0.4 km/h
3014 24-02-2020 14:00:00 9.40833 C 8.66 g/m*3 8.74 C 6.175 km/h
3015 24-02-2020 15:00:00 11.13333 C 9.25 g/m*3 11.13 C 19.3 km/h
3016 24-02-2020 16:00:00 11.9 C 9.37 g/m*3 11.9 C 21.575 km/h
3017 24-02-2020 17:00:00 11.68333 C 8.92 g/m*3 11.68 C 24.93333 km/h
3018 24-02-2020 18:00:00 11.375 C 8.48 g/m*3 11.38 C 22.78333 km/h
3019 24-02-2020 19:00:00 11.26667 C 8.3 g/m*3 11.27 C 17.56667 km/h
3020 24-02-2020 20:00:00 11.40833 C 8.09 g/m*3 11.41 C 19.03333 km/h
3021 24-02-2020 21:00:00 11.16667 C 8.21 g/m*3 11.17 C 18.24167 km/h
3022 24-02-2020 22:00:00 11.15 C 8.29 g/m*3 11.15 C 20.23333 km/h
3023 24-02-2020 23:00:00 11.175 C 8.39 g/m*3 11.18 C 21.84167 km/h
3024 25-02-2020 00:00:00 10.89167 C 8.48 g/m*3 9.17 C 13.69167 km/h
3025 25-02-2020 01:00:00 10.8 C 8.5 g/m*3 8.99 C 14.23333 km/h
Sensor: Nr:Datum:Temp:Abs-Feuchte:Windchill:Wind:
Aussen-T/F 3026 25-02-2020 02:00:00 10.70833 C 8.52 g/m*3 9.03 C 13.03333 km/h
3027 25-02-2020 03:00:00 10.38333 C 8.46 g/m*3 9.05 C 10.225 km/h
3028 25-02-2020 04:00:00 10.3 C 8.39 g/m*3 8.55 C 12.9 km/h
3029 25-02-2020 05:00:00 10.14167 C 8.26 g/m*3 8.25 C 13.7 km/h
3030 25-02-2020 06:00:00 9.925 C 8.15 g/m*3 7.22 C 20.65 km/h
3031 25-02-2020 07:00:00 9.50833 C 8.11 g/m*3 7.41 C 14.23333 km/h
3032 25-02-2020 08:00:00 8.81667 C 8.14 g/m*3 7.69 C 7.66667 km/h
3033 25-02-2020 09:00:00 8.71667 C 8.09 g/m*3 8.03 C 5.89167 km/h
3034 25-02-2020 10:00:00 8.59167 C 7.21 g/m*3 6.41 C 13.3 km/h
3035 25-02-2020 11:00:00 8.73333 C 6.81 g/m*3 6.64 C 12.9 km/h
3036 25-02-2020 12:00:00 9.51667 C 6.55 g/m*3 7.47 C 13.825 km/h
3037 25-02-2020 13:00:00 10.15 C 6.68 g/m*3 7.8 C 17.7 km/h
3038 25-02-2020 14:00:00 10.28333 C 6.43 g/m*3 7.93 C 17.96667 km/h
3039 25-02-2020 15:00:00 10.125 C 6.42 g/m*3 8.25 C 13.56667 km/h
3040 25-02-2020 16:00:00 10.43333 C 6.33 g/m*3 8.81 C 12.23333 km/h
3041 25-02-2020 17:00:00 9.875 C 6.38 g/m*3 8.09 C 12.48333 km/h
3042 25-02-2020 18:00:00 8.85 C 6.37 g/m*3 7.22 C 10.21667 km/h
3043 25-02-2020 19:00:00 7.40833 C 6.54 g/m*3 7.41 C 3.21667 km/h
3044 25-02-2020 20:00:00 6.54167 C 6.72 g/m*3 6.54 C 3.88333 km/h
3045 25-02-2020 21:00:00 6.38333 C 6.58 g/m*3 4.92 C 7.36667 km/h
3046 25-02-2020 22:00:00 5.85833 C 5.67 g/m*3 2.97 C 13.94167 km/h
3047 25-02-2020 23:00:00 4.93333 C 5.58 g/m*3 3.42 C 6.70833 km/h
3048 26-02-2020 00:00:00 5.7 C 5.83 g/m*3 5.7 C 3.89167 km/h
3049 26-02-2020 01:00:00 5.9 C 6.01 g/m*3 3.26 C 12.48333 km/h
3050 26-02-2020 02:00:00 5.575 C 5.71 g/m*3 2.82 C 12.76667 km/h
Sensor: Nr:Datum:Temp:Abs-Feuchte:Windchill:Wind:
Aussen-T/F 3051 26-02-2020 03:00:00 5.01667 C 5.33 g/m*3 2.23 C 12.23333 km/h
3052 26-02-2020 04:00:00 4.36667 C 5.27 g/m*3 1.14 C 13.96667 km/h
3053 26-02-2020 05:00:00 4.41667 C 5.18 g/m*3 0.6 C 17.96667 km/h
3054 26-02-2020 06:00:00 4.28333 C 5.03 g/m*3 -0.01 C 21.45 km/h
3055 26-02-2020 07:00:00 3.95 C 5.06 g/m*3 0.01 C 17.975 km/h
3056 26-02-2020 08:00:00 4.09167 C 5.15 g/m*3 0.13 C 18.36667 km/h
3057 26-02-2020 09:00:00 3.90833 C 5.29 g/m*3 0.03 C 17.43333 km/h
3058 26-02-2020 10:00:00 4.25833 C 5.48 g/m*3 0.43 C 17.7 km/h
3059 26-02-2020 11:00:00 5.23333 C 5.56 g/m*3 1.51 C 18.76667 km/h
3060 26-02-2020 12:00:00 6.025 C 5.62 g/m*3 2.44 C 19.3 km/h
3061 26-02-2020 13:00:00 6.00833 C 5.6 g/m*3 2.45 C 19.03333 km/h
3062 26-02-2020 14:00:00 5.69167 C 5.77 g/m*3 2.35 C 16.76667 km/h
3063 26-02-2020 15:00:00 6.28333 C 5.77 g/m*3 2.83 C 18.775 km/h
3064 26-02-2020 16:00:00 5.96667 C 5.42 g/m*3 2.64 C 17.16667 km/h
3065 26-02-2020 17:00:00 5.55 C 5.31 g/m*3 2.38 C 15.3 km/h
3066 26-02-2020 18:00:00 4.53333 C 5.23 g/m*3 1.83 C 11.3 km/h
3067 26-02-2020 19:00:00 4.425 C 5.34 g/m*3 2.34 C 8.46667 km/h
3068 26-02-2020 20:00:00 4.01667 C 5.26 g/m*3 1.75 C 8.875 km/h
3069 26-02-2020 21:00:00 3.99167 C 5.31 g/m*3 2.09 C 7.50833 km/h
3070 26-02-2020 22:00:00 3.9 C 5.36 g/m*3 2.14 C 6.96667 km/h
3071 26-02-2020 23:00:00 3.625 C 5.37 g/m*3 1.39 C 8.475 km/h
3072 27-02-2020 00:00:00 3.5 C 5.29 g/m*3 1.28 C 8.325 km/h
3073 27-02-2020 01:00:00 3.01667 C 5.16 g/m*3 1.8 C 5.08333 km/h
3074 27-02-2020 02:00:00 3.19167 C 5.23 g/m*3 0.45 C 10.225 km/h
3075 27-02-2020 03:00:00 3.51667 C 5.42 g/m*3 0.66 C 11.025 km/h
Sensor: Nr:Datum:Temp:Abs-Feuchte:Windchill:Wind:
Aussen-T/F 3076 27-02-2020 04:00:00 3.3 C 5.38 g/m*3 0.8 C 9.275 km/h
3077 27-02-2020 05:00:00 2.725 C 5.21 g/m*3 1.36 C 5.34167 km/h
3078 27-02-2020 06:00:00 2.725 C 5.15 g/m*3 0.37 C 8.33333 km/h
3079 27-02-2020 07:00:00 3.08333 C 5.22 g/m*3 3.08 C 4.55 km/h
3080 27-02-2020 08:00:00 3.50833 C 5.44 g/m*3 3.51 C 0.53333 km/h
3081 27-02-2020 09:00:00 4.6 C 5.6 g/m*3 4.6 C 3.06667 km/h
3082 27-02-2020 10:00:00 5.33333 C 5.62 g/m*3 5.33 C 3.475 km/h
3083 27-02-2020 11:00:00 5.00833 C 5.67 g/m*3 3.77 C 5.89167 km/h
3084 27-02-2020 12:00:00 4.475 C 5.82 g/m*3 3.07 C 6.15 km/h
3085 27-02-2020 13:00:00 3.725 C 5.7 g/m*3 3.73 C 4.41667 km/h
3086 27-02-2020 14:00:00 3.23333 C 5.63 g/m*3 1.36 C 6.975 km/h
3087 27-02-2020 15:00:00 2.98333 C 5.58 g/m*3 1.07 C 6.98333 km/h
3088 27-02-2020 16:00:00 2.15833 C 5.28 g/m*3 2.16 C 0.66667 km/h
3089 27-02-2020 17:00:00 1.18333 C 4.96 g/m*3 1.18 C 0.53333 km/h
3090 27-02-2020 18:00:00 1.175 C 5.01 g/m*3 1.18 C 0.4 km/h
3091 27-02-2020 19:00:00 1.58333 C 5.18 g/m*3 -0.55 C 6.975 km/h
3092 27-02-2020 20:00:00 1.725 C 5.18 g/m*3 -0.3 C 6.71667 km/h
3093 27-02-2020 21:00:00 1.69167 C 5.17 g/m*3 0.07 C 5.625 km/h
3094 27-02-2020 22:00:00 1.725 C 5.21 g/m*3 1.73 C 3.73333 km/h
3095 27-02-2020 23:00:00 2.30833 C 5.4 g/m*3 -0.48 C 9.675 km/h
3096 28-02-2020 00:00:00 2.75 C 5.42 g/m*3 0.52 C 7.90833 km/h
3097 28-02-2020 01:00:00 2.425 C 5.35 g/m*3 2.42 C 3.6 km/h
3098 28-02-2020 02:00:00 2.16667 C 5.29 g/m*3 2.17 C 4.13333 km/h
3099 28-02-2020 03:00:00 1.9 C 5.19 g/m*3 1.9 C 4.80833 km/h
3100 28-02-2020 04:00:00 1.81667 C 5.16 g/m*3 1.82 C 4.675 km/h
Sensor: Nr:Datum:Temp:Abs-Feuchte:Windchill:Wind:
Aussen-T/F 3101 28-02-2020 05:00:00 1.73333 C 5.13 g/m*3 -0.19 C 6.43333 km/h
3102 28-02-2020 06:00:00 1.41667 C 5 g/m*3 -0.97 C 7.65 km/h
3103 28-02-2020 07:00:00 1.15833 C 4.88 g/m*3 -0.95 C 6.70833 km/h
3104 28-02-2020 08:00:00 1.15 C 4.92 g/m*3 -0.38 C 5.20833 km/h
3105 28-02-2020 09:00:00 1.975 C 5.17 g/m*3 -0.39 C 7.91667 km/h
3106 28-02-2020 10:00:00 3.00833 C 5.35 g/m*3 0.1 C 10.76667 km/h
3107 28-02-2020 11:00:00 3.78333 C 5.43 g/m*3 0.56 C 13.16667 km/h
3108 28-02-2020 12:00:00 4.6 C 5.62 g/m*3 1.4 C 14.1 km/h
3109 28-02-2020 13:00:00 6.05833 C 5.81 g/m*3 3.62 C 11.56667 km/h
3110 28-02-2020 14:00:00 7.36667 C 5.84 g/m*3 5.3 C 11.01667 km/h
3111 28-02-2020 15:00:00 7.45 C 5.76 g/m*3 5.97 C 8.19167 km/h
3112 28-02-2020 16:00:00 7.225 C 5.92 g/m*3 7.23 C 3.75 km/h
3113 28-02-2020 17:00:00 6.425 C 6.08 g/m*3 6.43 C 1.46667 km/h
3114 28-02-2020 18:00:00 5.375 C 5.76 g/m*3 5.38 C 3.34167 km/h
3115 28-02-2020 19:00:00 5.64167 C 5.62 g/m*3 5.64 C 4.425 km/h
3116 28-02-2020 20:00:00 5.5 C 5.72 g/m*3 4.08 C 6.71667 km/h
3117 28-02-2020 21:00:00 5.025 C 5.9 g/m*3 4.08 C 5.09167 km/h
3118 28-02-2020 22:00:00 4.975 C 5.96 g/m*3 4.97 C 3.46667 km/h
3119 28-02-2020 23:00:00 4.41667 C 6.06 g/m*3 4.42 C 2.4 km/h
3120 29-02-2020 00:00:00 5.13333 C 6.42 g/m*3 5.13 C 4.95833 km/h
3121 29-02-2020 01:00:00 5.69167 C 6.66 g/m*3 5.69 C 1.6 km/h
3122 29-02-2020 02:00:00 6.10833 C 6.94 g/m*3 6.11 C 3.74167 km/h
3123 29-02-2020 03:00:00 8.4 C 7.83 g/m*3 6.54 C 11.03333 km/h
3124 29-02-2020 04:00:00 9.725 C 8.1 g/m*3 7.41 C 16.36667 km/h
3125 29-02-2020 05:00:00 9.60833 C 7.9 g/m*3 8.32 C 9.14167 km/h
Sensor: Nr:Datum:Temp:Abs-Feuchte:Windchill:Wind:
Aussen-T/F 3126 29-02-2020 06:00:00 9.30833 C 7.73 g/m*3 8.24 C 7.78333 km/h
3127 29-02-2020 07:00:00 8.775 C 7.55 g/m*3 8.78 C 4.54167 km/h
3128 29-02-2020 08:00:00 8.23333 C 7.5 g/m*3 8.23 C 2.13333 km/h
3129 29-02-2020 09:00:00 8.975 C 7.69 g/m*3 8.98 C 3.61667 km/h
3130 29-02-2020 10:00:00 10.13333 C 7.37 g/m*3 10.13 C 4.00833 km/h
3131 29-02-2020 11:00:00 11.54167 C 7.5 g/m*3 11.54 C 6.84167 km/h
3132 29-02-2020 12:00:00 13.95833 C 7.71 g/m*3 13.96 C 9.55 km/h
3133 29-02-2020 13:00:00 14.65833 C 8.01 g/m*3 14.66 C 9.55 km/h
3134 29-02-2020 14:00:00 14.68333 C 8.51 g/m*3 14.68 C 17.56667 km/h
3135 29-02-2020 15:00:00 11.33333 C 9.11 g/m*3 11.33 C 12.35833 km/h
3136 29-02-2020 16:00:00 11.325 C 8.7 g/m*3 11.33 C 21.7 km/h
3137 29-02-2020 17:00:00 9.30833 C 7.34 g/m*3 7.11 C 14.63333 km/h
3138 29-02-2020 18:00:00 8.50833 C 7.03 g/m*3 6.18 C 14.24167 km/h
3139 29-02-2020 19:00:00 6.65 C 6.3 g/m*3 4.11 C 12.89167 km/h
3140 29-02-2020 20:00:00 6.6 C 6 g/m*3 4.22 C 11.83333 km/h
3141 29-02-2020 21:00:00 5.69167 C 5.67 g/m*3 4.3 C 6.70833 km/h
3142 29-02-2020 22:00:00 4.54167 C 5.66 g/m*3 4.54 C 4 km/h
3143 29-02-2020 23:00:00 5.20833 C 5.97 g/m*3 4 C 5.89167 km/h
3144 01-03-2020 00:00:00 6.86667 C 6.18 g/m*3 3.88 C 16.23333 km/h
3145 01-03-2020 01:00:00 6.38333 C 6.1 g/m*3 3.76 C 13.025 km/h
3146 01-03-2020 02:00:00 6.35833 C 6.16 g/m*3 3.77 C 12.76667 km/h
3147 01-03-2020 03:00:00 7.10833 C 6.35 g/m*3 4.94 C 11.26667 km/h
3148 01-03-2020 04:00:00 7.30833 C 6.18 g/m*3 4.86 C 13.16667 km/h
3149 01-03-2020 05:00:00 7.45833 C 6.14 g/m*3 4.99 C 13.55833 km/h
3150 01-03-2020 06:00:00 7.425 C 6.21 g/m*3 5.32 C 11.28333 km/h
Sensor: Nr:Datum:Temp:Abs-Feuchte:Windchill:Wind:
Aussen-T/F